Time,TemperatureF,DewpointF,PressureIn,WindDirection,WindDirectionDegrees,WindSpeedMPH,WindSpeedGustMPH,Humidity,HourlyPrecipIn,Conditions,Clouds,dailyrainin,SoftwareType,DateUTC
2013-05-08 00:00:00,64.0,58.8,30.09,South,182,0.0,0.0,83,0.00,,---,0.00,VWS V14.01,2013-05-08 05:00:00,
2013-05-08 00:01:00,64.0,58.8,30.09,South,182,0.0,0.0,83,0.00,,---,0.00,VWS V14.01,2013-05-08 05:01:00,
2013-05-08 00:02:00,64.0,58.8,30.09,South,182,0.0,0.0,83,0.00,,---,0.00,VWS V14.01,2013-05-08 05:02:00,
2013-05-08 00:03:00,63.9,58.6,30.09,South,182,0.0,0.0,83,0.00,,---,0.00,VWS V14.01,2013-05-08 05:03:00,
2013-05-08 00:04:00,63.7,58.4,30.09,South,182,0.0,0.0,83,0.00,,---,0.00,VWS V14.01,2013-05-08 05:04:00,
2013-05-08 00:05:00,63.7,58.4,30.09,South,182,0.0,0.0,83,0.00,,---,0.00,VWS V14.01,2013-05-08 05:05:00,
2013-05-08 00:06:00,63.5,58.2,30.09,South,182,0.0,0.0,83,0.00,,---,0.00,VWS V14.01,2013-05-08 05:06:00,
2013-05-08 00:07:00,63.5,58.2,30.09,South,182,0.0,0.0,83,0.00,,---,0.00,VWS V14.01,2013-05-08 05:07:00,
2013-05-08 00:08:00,63.5,58.6,30.09,South,182,0.0,0.0,84,0.00,,---,0.00,VWS V14.01,2013-05-08 05:08:00,
2013-05-08 00:09:00,63.5,58.6,30.09,South,182,0.0,0.0,84,0.00,,---,0.00,VWS V14.01,2013-05-08 05:09:00,
2013-05-08 00:10:00,63.5,58.6,30.09,South,182,0.0,0.0,84,0.00,,---,0.00,VWS V14.01,2013-05-08 05:10:00,
2013-05-08 00:11:00,63.5,58.9,30.09,South,182,0.0,0.0,85,0.00,,---,0.00,VWS V14.01,2013-05-08 05:11:00,
2013-05-08 00:12:00,63.5,58.9,30.09,South,182,0.0,0.0,85,0.00,,---,0.00,VWS V14.01,2013-05-08 05:12:00,
2013-05-08 00:13:00,63.7,59.1,30.09,South,182,0.0,0.0,85,0.00,,---,0.00,VWS V14.01,2013-05-08 05:13:00,
2013-05-08 00:14:00,63.7,59.1,30.09,South,182,0.0,0.0,85,0.00,,---,0.00,VWS V14.01,2013-05-08 05:14:00,
2013-05-08 00:15:00,63.7,59.4,30.09,South,182,0.0,0.0,86,0.00,,---,0.00,VWS V14.01,2013-05-08 05:15:00,
2013-05-08 00:16:00,63.7,59.4,30.09,South,182,0.0,0.0,86,0.00,,---,0.00,VWS V14.01,2013-05-08 05:16:00,
2013-05-08 00:17:00,63.7,59.4,30.09,South,182,0.0,0.0,86,0.00,,---,0.00,VWS V14.01,2013-05-08 05:17:00,
2013-05-08 00:18:00,63.7,59.4,30.09,South,182,0.0,0.0,86,0.00,,---,0.00,VWS V14.01,2013-05-08 05:18:00,
2013-05-08 00:19:00,63.5,59.2,30.09,South,182,0.0,0.0,86,0.00,,---,0.00,VWS V14.01,2013-05-08 05:19:00,
2013-05-08 00:20:00,63.5,59.2,30.09,South,182,0.0,0.0,86,0.00,,---,0.00,VWS V14.01,2013-05-08 05:20:00,
2013-05-08 00:21:00,63.5,59.2,30.09,South,182,0.0,0.0,86,0.00,,---,0.00,VWS V14.01,2013-05-08 05:21:00,
2013-05-08 00:22:00,63.5,59.2,30.09,South,182,0.0,0.0,86,0.00,,---,0.00,VWS V14.01,2013-05-08 05:22:00,
2013-05-08 00:23:00,63.5,59.6,30.09,South,182,0.0,0.0,87,0.00,,---,0.00,VWS V14.01,2013-05-08 05:23:00,
2013-05-08 00:24:00,63.5,59.6,30.09,South,182,0.0,0.0,87,0.00,,---,0.00,VWS V14.01,2013-05-08 05:24:00,
2013-05-08 00:25:00,63.3,59.4,30.09,South,182,0.0,0.0,87,0.00,,---,0.00,VWS V14.01,2013-05-08 05:25:00,
2013-05-08 00:26:00,63.1,59.2,30.09,South,182,0.0,0.0,87,0.00,,---,0.00,VWS V14.01,2013-05-08 05:26:00,
2013-05-08 00:27:00,63.1,59.2,30.09,South,182,0.0,0.0,87,0.00,,---,0.00,VWS V14.01,2013-05-08 05:27:00,
2013-05-08 00:28:00,63.0,59.0,30.09,South,182,0.0,0.0,87,0.00,,---,0.00,VWS V14.01,2013-05-08 05:28:00,
2013-05-08 00:29:00,62.8,58.9,30.09,South,182,0.0,0.0,87,0.00,,---,0.00,VWS V14.01,2013-05-08 05:29:00,
2013-05-08 00:30:00,62.8,58.9,30.09,South,182,0.0,0.0,87,0.00,,---,0.00,VWS V14.01,2013-05-08 05:30:00,
2013-05-08 00:31:00,62.8,58.9,30.09,South,182,0.0,0.0,87,0.00,,---,0.00,VWS V14.01,2013-05-08 05:31:00,
2013-05-08 00:32:00,62.6,58.7,30.09,South,182,0.0,0.0,87,0.00,,---,0.00,VWS V14.01,2013-05-08 05:32:00,
2013-05-08 00:33:00,62.6,58.7,30.09,South,182,0.0,0.0,87,0.00,,---,0.00,VWS V14.01,2013-05-08 05:33:00,
2013-05-08 00:34:00,62.6,58.7,30.09,South,182,0.0,0.0,87,0.00,,---,0.00,VWS V14.01,2013-05-08 05:34:00,
2013-05-08 00:35:00,62.4,58.8,30.09,South,182,0.0,0.0,88,0.00,,---,0.00,VWS V14.01,2013-05-08 05:35:00,
2013-05-08 00:36:00,62.4,58.8,30.09,South,182,0.0,0.0,88,0.00,,---,0.00,VWS V14.01,2013-05-08 05:36:00,
2013-05-08 00:37:00,62.4,58.8,30.09,South,182,0.0,0.0,88,0.00,,---,0.00,VWS V14.01,2013-05-08 05:37:00,
2013-05-08 00:38:00,62.4,58.8,30.09,South,182,0.0,0.0,88,0.00,,---,0.00,VWS V14.01,2013-05-08 05:38:00,
2013-05-08 00:39:00,62.2,58.7,30.09,South,182,0.0,0.0,88,0.00,,---,0.00,VWS V14.01,2013-05-08 05:39:00,
2013-05-08 00:40:00,62.2,58.7,30.09,South,182,0.0,0.0,88,0.00,,---,0.00,VWS V14.01,2013-05-08 05:40:00,
2013-05-08 00:41:00,62.4,59.1,30.09,South,182,0.0,0.0,89,0.00,,---,0.00,VWS V14.01,2013-05-08 05:41:00,
2013-05-08 00:42:00,62.4,59.1,30.09,South,182,0.0,0.0,89,0.00,,---,0.00,VWS V14.01,2013-05-08 05:42:00,
2013-05-08 00:43:00,62.4,59.1,30.09,South,182,0.0,0.0,89,0.00,,---,0.00,VWS V14.01,2013-05-08 05:43:00,
2013-05-08 00:44:00,62.2,59.0,30.09,South,182,0.0,0.0,89,0.00,,---,0.00,VWS V14.01,2013-05-08 05:44:00,
2013-05-08 00:45:00,62.2,59.0,30.09,South,182,0.0,0.0,89,0.00,,---,0.00,VWS V14.01,2013-05-08 05:45:00,
2013-05-08 00:46:00,62.2,59.0,30.09,South,182,0.0,0.0,89,0.00,,---,0.00,VWS V14.01,2013-05-08 05:46:00,
2013-05-08 00:47:00,62.2,59.0,30.09,South,182,0.0,0.0,89,0.00,,---,0.00,VWS V14.01,2013-05-08 05:47:00,
2013-05-08 00:48:00,62.2,59.0,30.09,South,182,0.0,0.0,89,0.00,,---,0.00,VWS V14.01,2013-05-08 05:48:00,
2013-05-08 00:49:00,62.1,58.8,30.09,South,182,0.0,0.0,89,0.00,,---,0.00,VWS V14.01,2013-05-08 05:49:00,
2013-05-08 00:50:00,62.1,58.8,30.09,South,182,0.0,0.0,89,0.00,,---,0.00,VWS V14.01,2013-05-08 05:50:00,
2013-05-08 00:51:00,61.9,58.9,30.09,South,182,0.0,0.0,90,0.00,,---,0.00,VWS V14.01,2013-05-08 05:51:00,
2013-05-08 00:52:00,61.9,58.9,30.09,South,182,0.0,0.0,90,0.00,,---,0.00,VWS V14.01,2013-05-08 05:52:00,
2013-05-08 00:53:00,61.9,58.9,30.09,South,182,0.0,0.0,90,0.00,,---,0.00,VWS V14.01,2013-05-08 05:53:00,
2013-05-08 00:54:00,61.9,58.9,30.09,South,182,0.0,0.0,90,0.00,,---,0.00,VWS V14.01,2013-05-08 05:54:00,
2013-05-08 00:55:00,61.9,58.9,30.09,South,182,0.0,0.0,90,0.00,,---,0.00,VWS V14.01,2013-05-08 05:55:00,
2013-05-08 00:56:00,61.9,58.9,30.09,South,182,0.0,0.0,90,0.00,,---,0.00,VWS V14.01,2013-05-08 05:56:00,
2013-05-08 00:57:00,61.9,58.9,30.09,South,182,0.0,0.0,90,0.00,,---,0.00,VWS V14.01,2013-05-08 05:57:00,
2013-05-08 00:58:00,61.9,58.9,30.09,South,182,0.0,0.0,90,0.00,,---,0.00,VWS V14.01,2013-05-08 05:58:00,
2013-05-08 00:59:00,61.7,58.7,30.09,South,182,0.0,0.0,90,0.00,,---,0.00,VWS V14.01,2013-05-08 05:59:00,
2013-05-08 01:00:00,61.7,58.7,30.09,South,182,0.0,0.0,90,0.00,,---,0.00,VWS V14.01,2013-05-08 06:00:00,
2013-05-08 01:01:00,61.7,58.7,30.09,South,182,0.0,0.0,90,0.00,,---,0.00,VWS V14.01,2013-05-08 06:01:00,
2013-05-08 01:02:00,61.7,59.0,30.09,South,182,0.0,0.0,91,0.00,,---,0.00,VWS V14.01,2013-05-08 06:02:00,
2013-05-08 01:03:00,61.7,59.0,30.09,South,182,0.0,0.0,91,0.00,,---,0.00,VWS V14.01,2013-05-08 06:03:00,
2013-05-08 01:04:00,61.7,59.0,30.09,South,182,0.0,0.0,91,0.00,,---,0.00,VWS V14.01,2013-05-08 06:04:00,
2013-05-08 01:05:00,61.7,59.0,30.09,South,182,0.0,0.0,91,0.00,,---,0.00,VWS V14.01,2013-05-08 06:05:00,
2013-05-08 01:06:00,61.7,59.0,30.09,South,182,0.0,0.0,91,0.00,,---,0.00,VWS V14.01,2013-05-08 06:06:00,
2013-05-08 01:07:00,61.7,59.0,30.09,South,182,0.0,0.0,91,0.00,,---,0.00,VWS V14.01,2013-05-08 06:07:00,
2013-05-08 01:08:00,61.7,59.0,30.09,South,182,0.0,0.0,91,0.00,,---,0.00,VWS V14.01,2013-05-08 06:08:00,
2013-05-08 01:09:00,61.7,59.0,30.09,South,182,0.0,0.0,91,0.00,,---,0.00,VWS V14.01,2013-05-08 06:09:00,
2013-05-08 01:10:00,61.7,59.0,30.09,South,182,0.0,0.0,91,0.00,,---,0.00,VWS V14.01,2013-05-08 06:10:00,
2013-05-08 01:11:00,61.5,58.9,30.09,South,182,0.0,0.0,91,0.00,,---,0.00,VWS V14.01,2013-05-08 06:11:00,
2013-05-08 01:12:00,61.5,58.9,30.09,South,182,0.0,0.0,91,0.00,,---,0.00,VWS V14.01,2013-05-08 06:12:00,
2013-05-08 01:13:00,61.7,59.0,30.09,South,182,0.0,0.0,91,0.00,,---,0.00,VWS V14.01,2013-05-08 06:13:00,
2013-05-08 01:14:00,61.7,59.4,30.09,South,182,0.0,0.0,92,0.00,,---,0.00,VWS V14.01,2013-05-08 06:14:00,
2013-05-08 01:15:00,61.5,59.2,30.09,South,182,0.0,0.0,92,0.00,,---,0.00,VWS V14.01,2013-05-08 06:15:00,
2013-05-08 01:16:00,61.5,59.2,30.09,South,182,0.0,0.0,92,0.00,,---,0.00,VWS V14.01,2013-05-08 06:16:00,
2013-05-08 01:17:00,61.3,59.0,30.09,South,182,0.0,0.0,92,0.00,,---,0.00,VWS V14.01,2013-05-08 06:17:00,
2013-05-08 01:18:00,61.3,59.0,30.09,South,182,0.0,0.0,92,0.00,,---,0.00,VWS V14.01,2013-05-08 06:18:00,
2013-05-08 01:19:00,61.3,59.0,30.09,South,182,0.0,0.0,92,0.00,,---,0.00,VWS V14.01,2013-05-08 06:19:00,
2013-05-08 01:20:00,61.2,58.8,30.09,South,182,0.0,0.0,92,0.00,,---,0.00,VWS V14.01,2013-05-08 06:20:00,
2013-05-08 01:21:00,61.2,58.8,30.09,South,182,0.0,0.0,92,0.00,,---,0.00,VWS V14.01,2013-05-08 06:21:00,
2013-05-08 01:22:00,61.2,58.8,30.09,South,182,0.0,0.0,92,0.00,,---,0.00,VWS V14.01,2013-05-08 06:22:00,
2013-05-08 01:23:00,61.2,58.8,30.09,South,182,0.0,0.0,92,0.00,,---,0.00,VWS V14.01,2013-05-08 06:23:00,
2013-05-08 01:24:00,61.0,58.6,30.09,South,182,0.0,0.0,92,0.00,,---,0.00,VWS V14.01,2013-05-08 06:24:00,
2013-05-08 01:25:00,61.0,58.6,30.09,South,182,0.0,0.0,92,0.00,,---,0.00,VWS V14.01,2013-05-08 06:25:00,
2013-05-08 01:26:00,61.0,58.6,30.09,South,182,0.0,0.0,92,0.00,,---,0.00,VWS V14.01,2013-05-08 06:26:00,
2013-05-08 01:27:00,61.0,58.6,30.09,South,182,0.0,0.0,92,0.00,,---,0.00,VWS V14.01,2013-05-08 06:27:00,
2013-05-08 01:28:00,61.0,58.6,30.09,South,182,0.0,0.0,92,0.00,,---,0.00,VWS V14.01,2013-05-08 06:28:00,
2013-05-08 01:29:00,61.0,58.6,30.09,South,182,0.0,0.0,92,0.00,,---,0.00,VWS V14.01,2013-05-08 06:29:00,
2013-05-08 01:30:00,61.0,58.6,30.09,South,182,0.0,0.0,92,0.00,,---,0.00,VWS V14.01,2013-05-08 06:30:00,
2013-05-08 01:31:00,60.8,58.5,30.09,South,182,0.0,0.0,92,0.00,,---,0.00,VWS V14.01,2013-05-08 06:31:00,
2013-05-08 01:32:00,60.8,58.5,30.09,South,182,0.0,0.0,92,0.00,,---,0.00,VWS V14.01,2013-05-08 06:32:00,
2013-05-08 01:33:00,60.8,58.5,30.09,South,182,0.0,0.0,92,0.00,,---,0.00,VWS V14.01,2013-05-08 06:33:00,
2013-05-08 01:34:00,60.8,58.5,30.09,South,182,0.0,0.0,92,0.00,,---,0.00,VWS V14.01,2013-05-08 06:34:00,
2013-05-08 01:35:00,60.8,58.5,30.09,South,182,0.0,0.0,92,0.00,,---,0.00,VWS V14.01,2013-05-08 06:35:00,
2013-05-08 01:36:00,60.6,58.6,30.09,South,182,0.0,0.0,93,0.00,,---,0.00,VWS V14.01,2013-05-08 06:36:00,
2013-05-08 01:37:00,60.6,58.6,30.09,South,182,0.0,0.0,93,0.00,,---,0.00,VWS V14.01,2013-05-08 06:37:00,
2013-05-08 01:38:00,60.6,58.6,30.09,South,182,0.0,0.0,93,0.00,,---,0.00,VWS V14.01,2013-05-08 06:38:00,
2013-05-08 01:39:00,60.6,58.6,30.09,South,182,0.0,0.0,93,0.00,,---,0.00,VWS V14.01,2013-05-08 06:39:00,
2013-05-08 01:40:00,60.6,58.6,30.09,South,182,0.0,0.0,93,0.00,,---,0.00,VWS V14.01,2013-05-08 06:40:00,
2013-05-08 01:41:00,60.4,58.4,30.09,South,182,0.0,0.0,93,0.00,,---,0.00,VWS V14.01,2013-05-08 06:41:00,
2013-05-08 01:42:00,60.4,58.4,30.09,South,182,0.0,0.0,93,0.00,,---,0.00,VWS V14.01,2013-05-08 06:42:00,
2013-05-08 01:43:00,60.4,58.4,30.09,South,182,0.0,0.0,93,0.00,,---,0.00,VWS V14.01,2013-05-08 06:43:00,
2013-05-08 01:44:00,60.4,58.4,30.09,South,182,0.0,0.0,93,0.00,,---,0.00,VWS V14.01,2013-05-08 06:44:00,
2013-05-08 01:45:00,60.4,58.4,30.09,South,182,0.0,0.0,93,0.00,,---,0.00,VWS V14.01,2013-05-08 06:45:00,
2013-05-08 01:46:00,60.3,58.2,30.09,South,182,0.0,0.0,93,0.00,,---,0.00,VWS V14.01,2013-05-08 06:46:00,
2013-05-08 01:47:00,60.3,58.2,30.09,South,182,0.0,0.0,93,0.00,,---,0.00,VWS V14.01,2013-05-08 06:47:00,
2013-05-08 01:48:00,60.3,58.2,30.09,South,182,0.0,0.0,93,0.00,,---,0.00,VWS V14.01,2013-05-08 06:48:00,
2013-05-08 01:49:00,60.3,58.2,30.09,South,182,0.0,0.0,93,0.00,,---,0.00,VWS V14.01,2013-05-08 06:49:00,
2013-05-08 01:50:00,60.3,58.2,30.09,South,182,0.0,0.0,93,0.00,,---,0.00,VWS V14.01,2013-05-08 06:50:00,
2013-05-08 01:51:00,60.3,58.2,30.09,South,182,0.0,0.0,93,0.00,,---,0.00,VWS V14.01,2013-05-08 06:51:00,
2013-05-08 01:52:00,60.3,58.2,30.09,South,182,0.0,0.0,93,0.00,,---,0.00,VWS V14.01,2013-05-08 06:52:00,
2013-05-08 01:53:00,60.3,58.2,30.09,South,182,0.0,0.0,93,0.00,,---,0.00,VWS V14.01,2013-05-08 06:53:00,
2013-05-08 01:54:00,60.1,58.0,30.09,South,182,0.0,0.0,93,0.00,,---,0.00,VWS V14.01,2013-05-08 06:54:00,
2013-05-08 01:55:00,60.1,58.0,30.09,South,182,0.0,0.0,93,0.00,,---,0.00,VWS V14.01,2013-05-08 06:55:00,
2013-05-08 01:56:00,60.3,58.5,30.09,South,182,0.0,0.0,94,0.00,,---,0.00,VWS V14.01,2013-05-08 06:56:00,
2013-05-08 01:57:00,60.3,58.5,30.09,South,182,0.0,0.0,94,0.00,,---,0.00,VWS V14.01,2013-05-08 06:57:00,
2013-05-08 01:58:00,60.3,58.5,30.09,South,182,0.0,0.0,94,0.00,,---,0.00,VWS V14.01,2013-05-08 06:58:00,
2013-05-08 01:59:00,60.3,58.5,30.09,South,182,0.0,0.0,94,0.00,,---,0.00,VWS V14.01,2013-05-08 06:59:00,
2013-05-08 02:00:00,60.3,58.5,30.09,South,182,0.0,0.0,94,0.00,,---,0.00,VWS V14.01,2013-05-08 07:00:00,
2013-05-08 02:01:00,60.3,58.5,30.09,South,182,0.0,0.0,94,0.00,,---,0.00,VWS V14.01,2013-05-08 07:01:00,
2013-05-08 02:02:00,60.3,58.5,30.09,South,182,0.0,0.0,94,0.00,,---,0.00,VWS V14.01,2013-05-08 07:02:00,
2013-05-08 02:03:00,60.1,58.3,30.09,South,182,0.0,0.0,94,0.00,,---,0.00,VWS V14.01,2013-05-08 07:03:00,
2013-05-08 02:04:00,60.1,58.3,30.09,South,182,0.0,0.0,94,0.00,,---,0.00,VWS V14.01,2013-05-08 07:04:00,
2013-05-08 02:05:00,60.1,58.3,30.09,South,182,0.0,0.0,94,0.00,,---,0.00,VWS V14.01,2013-05-08 07:05:00,
2013-05-08 02:06:00,59.9,58.2,30.09,South,182,0.0,0.0,94,0.00,,---,0.00,VWS V14.01,2013-05-08 07:06:00,
2013-05-08 02:07:00,59.9,58.2,30.09,South,182,0.0,0.0,94,0.00,,---,0.00,VWS V14.01,2013-05-08 07:07:00,
2013-05-08 02:08:00,59.7,58.0,30.09,South,182,0.0,0.0,94,0.00,,---,0.00,VWS V14.01,2013-05-08 07:08:00,
2013-05-08 02:09:00,59.7,58.0,30.09,South,182,0.0,0.0,94,0.00,,---,0.00,VWS V14.01,2013-05-08 07:09:00,
2013-05-08 02:10:00,59.7,58.0,30.09,South,182,0.0,0.0,94,0.00,,---,0.00,VWS V14.01,2013-05-08 07:10:00,
2013-05-08 02:11:00,59.7,58.0,30.09,South,182,0.0,0.0,94,0.00,,---,0.00,VWS V14.01,2013-05-08 07:11:00,
2013-05-08 02:12:00,59.7,58.0,30.09,South,182,0.0,0.0,94,0.00,,---,0.00,VWS V14.01,2013-05-08 07:12:00,
2013-05-08 02:13:00,59.7,58.0,30.09,South,182,0.0,0.0,94,0.00,,---,0.00,VWS V14.01,2013-05-08 07:13:00,
2013-05-08 02:14:00,59.7,58.0,30.09,South,182,0.0,0.0,94,0.00,,---,0.00,VWS V14.01,2013-05-08 07:14:00,
2013-05-08 02:15:00,59.7,58.0,30.09,South,182,0.0,0.0,94,0.00,,---,0.00,VWS V14.01,2013-05-08 07:15:00,
2013-05-08 02:16:00,59.5,57.8,30.09,South,182,0.0,0.0,94,0.00,,---,0.00,VWS V14.01,2013-05-08 07:16:00,
2013-05-08 02:17:00,59.5,57.8,30.09,South,182,0.0,0.0,94,0.00,,---,0.00,VWS V14.01,2013-05-08 07:17:00,
2013-05-08 02:18:00,59.5,57.8,30.09,South,182,0.0,0.0,94,0.00,,---,0.00,VWS V14.01,2013-05-08 07:18:00,
2013-05-08 02:19:00,59.5,57.8,30.09,South,182,0.0,0.0,94,0.00,,---,0.00,VWS V14.01,2013-05-08 07:19:00,
2013-05-08 02:20:00,59.5,57.8,30.09,South,182,0.0,0.0,94,0.00,,---,0.00,VWS V14.01,2013-05-08 07:20:00,
2013-05-08 02:21:00,59.5,57.8,30.09,South,182,0.0,0.0,94,0.00,,---,0.00,VWS V14.01,2013-05-08 07:21:00,
2013-05-08 02:22:00,59.4,57.6,30.09,South,182,0.0,0.0,94,0.00,,---,0.00,VWS V14.01,2013-05-08 07:22:00,
2013-05-08 02:23:00,59.4,57.6,30.09,South,182,0.0,0.0,94,0.00,,---,0.00,VWS V14.01,2013-05-08 07:23:00,
2013-05-08 02:24:00,59.4,57.6,30.09,South,182,0.0,0.0,94,0.00,,---,0.00,VWS V14.01,2013-05-08 07:24:00,
2013-05-08 02:25:00,59.4,57.6,30.09,South,182,0.0,0.0,94,0.00,,---,0.00,VWS V14.01,2013-05-08 07:25:00,
2013-05-08 02:26:00,59.4,57.6,30.09,South,182,0.0,0.0,94,0.00,,---,0.00,VWS V14.01,2013-05-08 07:26:00,
2013-05-08 02:27:00,59.4,57.6,30.09,South,182,0.0,0.0,94,0.00,,---,0.00,VWS V14.01,2013-05-08 07:27:00,
2013-05-08 02:28:00,59.4,57.6,30.09,South,182,0.0,0.0,94,0.00,,---,0.00,VWS V14.01,2013-05-08 07:28:00,
2013-05-08 02:29:00,59.4,57.6,30.09,South,182,0.0,0.0,94,0.00,,---,0.00,VWS V14.01,2013-05-08 07:29:00,
2013-05-08 02:30:00,59.4,57.6,30.09,South,182,0.0,0.0,94,0.00,,---,0.00,VWS V14.01,2013-05-08 07:30:00,
2013-05-08 02:31:00,59.2,57.5,30.06,South,182,0.0,0.0,94,0.00,,---,0.00,VWS V14.01,2013-05-08 07:31:00,
2013-05-08 02:32:00,59.2,57.5,30.06,South,182,0.0,0.0,94,0.00,,---,0.00,VWS V14.01,2013-05-08 07:32:00,
2013-05-08 02:33:00,59.2,57.5,30.06,South,182,0.0,0.0,94,0.00,,---,0.00,VWS V14.01,2013-05-08 07:33:00,
2013-05-08 02:34:00,59.2,57.5,30.06,South,182,0.0,0.0,94,0.00,,---,0.00,VWS V14.01,2013-05-08 07:34:00,
2013-05-08 02:35:00,59.2,57.5,30.06,South,182,0.0,0.0,94,0.00,,---,0.00,VWS V14.01,2013-05-08 07:35:00,
2013-05-08 02:36:00,59.2,57.8,30.06,South,182,0.0,0.0,95,0.00,,---,0.00,VWS V14.01,2013-05-08 07:36:00,
2013-05-08 02:37:00,59.2,57.8,30.06,South,182,0.0,0.0,95,0.00,,---,0.00,VWS V14.01,2013-05-08 07:37:00,
2013-05-08 02:38:00,59.0,57.6,30.06,South,182,0.0,0.0,95,0.00,,---,0.00,VWS V14.01,2013-05-08 07:38:00,
2013-05-08 02:39:00,59.0,57.6,30.06,South,182,0.0,0.0,95,0.00,,---,0.00,VWS V14.01,2013-05-08 07:39:00,
2013-05-08 02:40:00,59.0,57.6,30.06,South,182,0.0,0.0,95,0.00,,---,0.00,VWS V14.01,2013-05-08 07:40:00,
2013-05-08 02:41:00,59.0,57.6,30.06,South,182,0.0,0.0,95,0.00,,---,0.00,VWS V14.01,2013-05-08 07:41:00,
2013-05-08 02:42:00,59.0,57.6,30.06,South,182,0.0,0.0,95,0.00,,---,0.00,VWS V14.01,2013-05-08 07:42:00,
2013-05-08 02:43:00,58.8,57.4,30.06,South,182,0.0,0.0,95,0.00,,---,0.00,VWS V14.01,2013-05-08 07:43:00,
2013-05-08 02:44:00,58.8,57.4,30.06,South,182,0.0,0.0,95,0.00,,---,0.00,VWS V14.01,2013-05-08 07:44:00,
2013-05-08 02:45:00,58.8,57.4,30.06,South,182,0.0,0.0,95,0.00,,---,0.00,VWS V14.01,2013-05-08 07:45:00,
2013-05-08 02:46:00,58.8,57.4,30.09,South,182,0.0,0.0,95,0.00,,---,0.00,VWS V14.01,2013-05-08 07:46:00,
2013-05-08 02:47:00,58.8,57.4,30.09,South,182,0.0,0.0,95,0.00,,---,0.00,VWS V14.01,2013-05-08 07:47:00,
2013-05-08 02:48:00,58.8,57.4,30.09,South,182,0.0,0.0,95,0.00,,---,0.00,VWS V14.01,2013-05-08 07:48:00,
2013-05-08 02:49:00,58.8,57.4,30.09,South,182,0.0,0.0,95,0.00,,---,0.00,VWS V14.01,2013-05-08 07:49:00,
2013-05-08 02:50:00,58.8,57.4,30.09,South,182,0.0,0.0,95,0.00,,---,0.00,VWS V14.01,2013-05-08 07:50:00,
2013-05-08 02:51:00,58.6,57.2,30.09,South,182,0.0,0.0,95,0.00,,---,0.00,VWS V14.01,2013-05-08 07:51:00,
2013-05-08 02:52:00,58.6,57.2,30.09,South,182,0.0,0.0,95,0.00,,---,0.00,VWS V14.01,2013-05-08 07:52:00,
2013-05-08 02:53:00,58.6,57.2,30.09,South,182,0.0,0.0,95,0.00,,---,0.00,VWS V14.01,2013-05-08 07:53:00,
2013-05-08 02:54:00,58.6,57.2,30.09,South,182,0.0,0.0,95,0.00,,---,0.00,VWS V14.01,2013-05-08 07:54:00,
2013-05-08 02:55:00,58.6,57.2,30.09,South,182,0.0,0.0,95,0.00,,---,0.00,VWS V14.01,2013-05-08 07:55:00,
2013-05-08 02:56:00,58.6,57.2,30.09,South,182,0.0,0.0,95,0.00,,---,0.00,VWS V14.01,2013-05-08 07:56:00,
2013-05-08 02:57:00,58.6,57.2,30.09,South,182,0.0,0.0,95,0.00,,---,0.00,VWS V14.01,2013-05-08 07:57:00,
2013-05-08 02:58:00,58.6,57.2,30.09,South,182,0.0,0.0,95,0.00,,---,0.00,VWS V14.01,2013-05-08 07:58:00,
2013-05-08 02:59:00,58.6,57.2,30.09,South,182,0.0,0.0,95,0.00,,---,0.00,VWS V14.01,2013-05-08 07:59:00,
2013-05-08 03:00:00,58.5,57.0,30.09,South,182,0.0,0.0,95,0.00,,---,0.00,VWS V14.01,2013-05-08 08:00:00,
2013-05-08 03:01:00,58.5,57.0,30.09,South,182,0.0,0.0,95,0.00,,---,0.00,VWS V14.01,2013-05-08 08:01:00,
2013-05-08 03:02:00,58.5,57.0,30.09,South,182,0.0,0.0,95,0.00,,---,0.00,VWS V14.01,2013-05-08 08:02:00,
2013-05-08 03:03:00,58.5,57.0,30.09,South,182,0.0,0.0,95,0.00,,---,0.00,VWS V14.01,2013-05-08 08:03:00,
2013-05-08 03:04:00,58.5,57.0,30.09,South,182,0.0,0.0,95,0.00,,---,0.00,VWS V14.01,2013-05-08 08:04:00,
2013-05-08 03:05:00,58.5,57.0,30.09,South,182,0.0,0.0,95,0.00,,---,0.00,VWS V14.01,2013-05-08 08:05:00,
2013-05-08 03:06:00,58.5,57.3,30.09,South,182,0.0,0.0,96,0.00,,---,0.00,VWS V14.01,2013-05-08 08:06:00,
2013-05-08 03:07:00,58.5,57.3,30.09,South,182,0.0,0.0,96,0.00,,---,0.00,VWS V14.01,2013-05-08 08:07:00,
2013-05-08 03:08:00,58.5,57.3,30.09,South,182,0.0,0.0,96,0.00,,---,0.00,VWS V14.01,2013-05-08 08:08:00,
2013-05-08 03:09:00,58.5,57.3,30.09,South,182,0.0,0.0,96,0.00,,---,0.00,VWS V14.01,2013-05-08 08:09:00,
2013-05-08 03:10:00,58.5,57.3,30.09,South,182,0.0,0.0,96,0.00,,---,0.00,VWS V14.01,2013-05-08 08:10:00,
2013-05-08 03:11:00,58.5,57.3,30.09,South,182,0.0,0.0,96,0.00,,---,0.00,VWS V14.01,2013-05-08 08:11:00,
2013-05-08 03:12:00,58.5,57.3,30.09,South,182,0.0,0.0,96,0.00,,---,0.00,VWS V14.01,2013-05-08 08:12:00,
2013-05-08 03:13:00,58.3,57.2,30.09,South,182,0.0,0.0,96,0.00,,---,0.00,VWS V14.01,2013-05-08 08:13:00,
2013-05-08 03:14:00,58.3,57.2,30.09,South,182,0.0,0.0,96,0.00,,---,0.00,VWS V14.01,2013-05-08 08:14:00,
2013-05-08 03:15:00,58.3,57.2,30.09,South,182,0.0,0.0,96,0.00,,---,0.00,VWS V14.01,2013-05-08 08:15:00,
2013-05-08 03:16:00,58.5,57.3,30.06,South,182,0.0,0.0,96,0.00,,---,0.00,VWS V14.01,2013-05-08 08:16:00,
2013-05-08 03:17:00,58.5,57.3,30.06,South,182,0.0,0.0,96,0.00,,---,0.00,VWS V14.01,2013-05-08 08:17:00,
2013-05-08 03:18:00,58.3,57.2,30.06,South,182,0.0,0.0,96,0.00,,---,0.00,VWS V14.01,2013-05-08 08:18:00,
2013-05-08 03:19:00,58.3,57.2,30.06,South,182,0.0,0.0,96,0.00,,---,0.00,VWS V14.01,2013-05-08 08:19:00,
2013-05-08 03:20:00,58.5,57.3,30.06,South,182,0.0,0.0,96,0.00,,---,0.00,VWS V14.01,2013-05-08 08:20:00,
2013-05-08 03:21:00,58.5,57.3,30.06,South,182,0.0,0.0,96,0.00,,---,0.00,VWS V14.01,2013-05-08 08:21:00,
2013-05-08 03:22:00,58.5,57.3,30.06,South,182,0.0,0.0,96,0.00,,---,0.00,VWS V14.01,2013-05-08 08:22:00,
2013-05-08 03:23:00,58.3,57.2,30.06,South,182,0.0,0.0,96,0.00,,---,0.00,VWS V14.01,2013-05-08 08:23:00,
2013-05-08 03:24:00,58.3,57.2,30.06,South,182,0.0,0.0,96,0.00,,---,0.00,VWS V14.01,2013-05-08 08:24:00,
2013-05-08 03:25:00,58.3,57.2,30.06,South,182,0.0,0.0,96,0.00,,---,0.00,VWS V14.01,2013-05-08 08:25:00,
2013-05-08 03:26:00,58.3,57.2,30.06,South,182,0.0,0.0,96,0.00,,---,0.00,VWS V14.01,2013-05-08 08:26:00,
2013-05-08 03:27:00,58.3,57.2,30.06,South,182,0.0,0.0,96,0.00,,---,0.00,VWS V14.01,2013-05-08 08:27:00,
2013-05-08 03:28:00,58.1,57.0,30.06,South,182,0.0,0.0,96,0.00,,---,0.00,VWS V14.01,2013-05-08 08:28:00,
2013-05-08 03:29:00,58.1,57.0,30.06,South,182,0.0,0.0,96,0.00,,---,0.00,VWS V14.01,2013-05-08 08:29:00,
2013-05-08 03:30:00,58.1,57.0,30.06,South,182,0.0,0.0,96,0.00,,---,0.00,VWS V14.01,2013-05-08 08:30:00,
2013-05-08 03:31:00,58.1,57.0,30.09,South,182,0.0,0.0,96,0.00,,---,0.00,VWS V14.01,2013-05-08 08:31:00,
2013-05-08 03:32:00,58.1,57.0,30.09,South,182,0.0,0.0,96,0.00,,---,0.00,VWS V14.01,2013-05-08 08:32:00,
2013-05-08 03:33:00,58.1,57.0,30.09,South,182,0.0,0.0,96,0.00,,---,0.00,VWS V14.01,2013-05-08 08:33:00,
2013-05-08 03:34:00,58.1,57.0,30.09,South,182,0.0,0.0,96,0.00,,---,0.00,VWS V14.01,2013-05-08 08:34:00,
2013-05-08 03:35:00,58.1,57.0,30.09,South,182,0.0,0.0,96,0.00,,---,0.00,VWS V14.01,2013-05-08 08:35:00,
2013-05-08 03:36:00,57.9,56.8,30.09,South,182,0.0,0.0,96,0.00,,---,0.00,VWS V14.01,2013-05-08 08:36:00,
2013-05-08 03:37:00,57.9,56.8,30.09,South,182,0.0,0.0,96,0.00,,---,0.00,VWS V14.01,2013-05-08 08:37:00,
2013-05-08 03:38:00,57.9,56.8,30.09,South,182,0.0,0.0,96,0.00,,---,0.00,VWS V14.01,2013-05-08 08:38:00,
2013-05-08 03:39:00,57.9,56.8,30.09,South,182,0.0,0.0,96,0.00,,---,0.00,VWS V14.01,2013-05-08 08:39:00,
2013-05-08 03:40:00,57.9,56.8,30.09,South,182,0.0,0.0,96,0.00,,---,0.00,VWS V14.01,2013-05-08 08:40:00,
2013-05-08 03:41:00,57.9,56.8,30.09,South,182,0.0,0.0,96,0.00,,---,0.00,VWS V14.01,2013-05-08 08:41:00,
2013-05-08 03:42:00,57.9,56.8,30.09,South,182,0.0,0.0,96,0.00,,---,0.00,VWS V14.01,2013-05-08 08:42:00,
2013-05-08 03:43:00,57.9,56.8,30.09,South,182,0.0,0.0,96,0.00,,---,0.00,VWS V14.01,2013-05-08 08:43:00,
2013-05-08 03:44:00,57.9,56.8,30.09,South,182,0.0,0.0,96,0.00,,---,0.00,VWS V14.01,2013-05-08 08:44:00,
2013-05-08 03:45:00,57.7,56.6,30.09,South,182,0.0,0.0,96,0.00,,---,0.00,VWS V14.01,2013-05-08 08:45:00,
2013-05-08 03:46:00,57.7,56.6,30.09,South,182,0.0,0.0,96,0.00,,---,0.00,VWS V14.01,2013-05-08 08:46:00,
2013-05-08 03:47:00,57.7,56.6,30.09,South,182,0.0,0.0,96,0.00,,---,0.00,VWS V14.01,2013-05-08 08:47:00,
2013-05-08 03:48:00,57.7,56.6,30.09,South,182,0.0,0.0,96,0.00,,---,0.00,VWS V14.01,2013-05-08 08:48:00,
2013-05-08 03:49:00,57.7,56.6,30.09,South,182,0.0,0.0,96,0.00,,---,0.00,VWS V14.01,2013-05-08 08:49:00,
2013-05-08 03:50:00,57.7,56.6,30.09,South,182,0.0,0.0,96,0.00,,---,0.00,VWS V14.01,2013-05-08 08:50:00,
2013-05-08 03:51:00,57.9,56.8,30.09,South,182,0.0,0.0,96,0.00,,---,0.00,VWS V14.01,2013-05-08 08:51:00,
2013-05-08 03:52:00,57.9,56.8,30.09,South,182,0.0,0.0,96,0.00,,---,0.00,VWS V14.01,2013-05-08 08:52:00,
2013-05-08 03:53:00,57.9,56.8,30.09,South,182,0.0,0.0,96,0.00,,---,0.00,VWS V14.01,2013-05-08 08:53:00,
2013-05-08 03:54:00,57.7,56.6,30.09,South,182,0.0,0.0,96,0.00,,---,0.00,VWS V14.01,2013-05-08 08:54:00,
2013-05-08 03:55:00,57.7,56.6,30.09,South,182,0.0,0.0,96,0.00,,---,0.00,VWS V14.01,2013-05-08 08:55:00,
2013-05-08 03:56:00,57.7,56.9,30.09,South,182,0.0,0.0,97,0.00,,---,0.00,VWS V14.01,2013-05-08 08:56:00,
2013-05-08 03:57:00,57.7,56.9,30.09,South,182,0.0,0.0,97,0.00,,---,0.00,VWS V14.01,2013-05-08 08:57:00,
2013-05-08 03:58:00,57.7,56.9,30.09,South,182,0.0,0.0,97,0.00,,---,0.00,VWS V14.01,2013-05-08 08:58:00,
2013-05-08 03:59:00,57.7,56.9,30.09,South,182,0.0,0.0,97,0.00,,---,0.00,VWS V14.01,2013-05-08 08:59:00,
2013-05-08 04:00:00,57.7,56.9,30.09,South,182,0.0,0.0,97,0.00,,---,0.00,VWS V14.01,2013-05-08 09:00:00,
2013-05-08 04:01:00,57.6,56.7,30.09,South,182,0.0,0.0,97,0.00,,---,0.00,VWS V14.01,2013-05-08 09:01:00,
2013-05-08 04:02:00,57.6,56.7,30.09,South,182,0.0,0.0,97,0.00,,---,0.00,VWS V14.01,2013-05-08 09:02:00,
2013-05-08 04:03:00,57.6,56.7,30.09,South,182,0.0,0.0,97,0.00,,---,0.00,VWS V14.01,2013-05-08 09:03:00,
2013-05-08 04:04:00,57.6,56.7,30.09,South,182,0.0,0.0,97,0.00,,---,0.00,VWS V14.01,2013-05-08 09:04:00,
2013-05-08 04:05:00,57.6,56.7,30.09,South,182,0.0,0.0,97,0.00,,---,0.00,VWS V14.01,2013-05-08 09:05:00,
2013-05-08 04:06:00,57.6,56.7,30.09,South,182,0.0,0.0,97,0.00,,---,0.00,VWS V14.01,2013-05-08 09:06:00,
2013-05-08 04:07:00,57.6,56.7,30.09,South,182,0.0,0.0,97,0.00,,---,0.00,VWS V14.01,2013-05-08 09:07:00,
2013-05-08 04:08:00,57.6,56.7,30.09,South,182,0.0,0.0,97,0.00,,---,0.00,VWS V14.01,2013-05-08 09:08:00,
2013-05-08 04:09:00,57.6,56.7,30.09,South,182,0.0,0.0,97,0.00,,---,0.00,VWS V14.01,2013-05-08 09:09:00,
2013-05-08 04:10:00,57.6,56.7,30.09,South,182,0.0,0.0,97,0.00,,---,0.00,VWS V14.01,2013-05-08 09:10:00,
2013-05-08 04:11:00,57.6,56.7,30.09,South,182,0.0,0.0,97,0.00,,---,0.00,VWS V14.01,2013-05-08 09:11:00,
2013-05-08 04:12:00,57.6,56.7,30.09,South,182,0.0,0.0,97,0.00,,---,0.00,VWS V14.01,2013-05-08 09:12:00,
2013-05-08 04:13:00,57.6,56.7,30.09,South,182,0.0,0.0,97,0.00,,---,0.00,VWS V14.01,2013-05-08 09:13:00,
2013-05-08 04:14:00,57.6,56.7,30.09,South,182,0.0,0.0,97,0.00,,---,0.00,VWS V14.01,2013-05-08 09:14:00,
2013-05-08 04:15:00,57.6,56.7,30.09,South,182,0.0,0.0,97,0.00,,---,0.00,VWS V14.01,2013-05-08 09:15:00,
2013-05-08 04:16:00,57.6,56.7,30.09,South,182,0.0,0.0,97,0.00,,---,0.00,VWS V14.01,2013-05-08 09:16:00,
2013-05-08 04:17:00,57.6,56.7,30.09,South,182,0.0,0.0,97,0.00,,---,0.00,VWS V14.01,2013-05-08 09:17:00,
2013-05-08 04:18:00,57.6,56.7,30.09,South,182,0.0,0.0,97,0.00,,---,0.00,VWS V14.01,2013-05-08 09:18:00,
2013-05-08 04:19:00,57.6,56.7,30.09,South,182,0.0,0.0,97,0.00,,---,0.00,VWS V14.01,2013-05-08 09:19:00,
2013-05-08 04:20:00,57.6,56.7,30.09,South,182,0.0,0.0,97,0.00,,---,0.00,VWS V14.01,2013-05-08 09:20:00,
2013-05-08 04:21:00,57.6,56.7,30.09,South,182,0.0,0.0,97,0.00,,---,0.00,VWS V14.01,2013-05-08 09:21:00,
2013-05-08 04:22:00,57.6,56.7,30.09,South,182,0.0,0.0,97,0.00,,---,0.00,VWS V14.01,2013-05-08 09:22:00,
2013-05-08 04:23:00,57.6,56.7,30.09,South,182,0.0,0.0,97,0.00,,---,0.00,VWS V14.01,2013-05-08 09:23:00,
2013-05-08 04:24:00,57.6,56.7,30.09,South,182,0.0,0.0,97,0.00,,---,0.00,VWS V14.01,2013-05-08 09:24:00,
2013-05-08 04:25:00,57.6,56.7,30.09,South,182,0.0,0.0,97,0.00,,---,0.00,VWS V14.01,2013-05-08 09:25:00,
2013-05-08 04:26:00,57.6,56.7,30.09,South,182,0.0,0.0,97,0.00,,---,0.00,VWS V14.01,2013-05-08 09:26:00,
2013-05-08 04:27:00,57.6,56.7,30.09,South,182,0.0,0.0,97,0.00,,---,0.00,VWS V14.01,2013-05-08 09:27:00,
2013-05-08 04:28:00,57.6,56.7,30.09,South,182,0.0,0.0,97,0.00,,---,0.00,VWS V14.01,2013-05-08 09:28:00,
2013-05-08 04:29:00,57.6,56.7,30.09,South,182,0.0,0.0,97,0.00,,---,0.00,VWS V14.01,2013-05-08 09:29:00,
2013-05-08 04:30:00,57.6,56.7,30.09,South,182,0.0,0.0,97,0.00,,---,0.00,VWS V14.01,2013-05-08 09:30:00,
2013-05-08 04:31:00,57.6,56.7,30.09,South,182,0.0,0.0,97,0.00,,---,0.00,VWS V14.01,2013-05-08 09:31:00,
2013-05-08 04:32:00,57.6,56.7,30.09,South,182,0.0,0.0,97,0.00,,---,0.00,VWS V14.01,2013-05-08 09:32:00,
2013-05-08 04:33:00,57.6,56.7,30.09,South,182,0.0,0.0,97,0.00,,---,0.00,VWS V14.01,2013-05-08 09:33:00,
2013-05-08 04:34:00,57.6,56.7,30.09,South,182,0.0,0.0,97,0.00,,---,0.00,VWS V14.01,2013-05-08 09:34:00,
2013-05-08 04:35:00,57.6,56.7,30.09,South,182,0.0,0.0,97,0.00,,---,0.00,VWS V14.01,2013-05-08 09:35:00,
2013-05-08 04:36:00,57.6,56.7,30.09,South,182,0.0,0.0,97,0.00,,---,0.00,VWS V14.01,2013-05-08 09:36:00,
2013-05-08 04:37:00,57.6,56.7,30.09,South,182,0.0,0.0,97,0.00,,---,0.00,VWS V14.01,2013-05-08 09:37:00,
2013-05-08 04:38:00,57.6,56.7,30.09,South,182,0.0,0.0,97,0.00,,---,0.00,VWS V14.01,2013-05-08 09:38:00,
2013-05-08 04:39:00,57.6,56.7,30.09,South,182,0.0,0.0,97,0.00,,---,0.00,VWS V14.01,2013-05-08 09:39:00,
2013-05-08 04:40:00,57.6,56.7,30.09,South,182,0.0,0.0,97,0.00,,---,0.00,VWS V14.01,2013-05-08 09:40:00,
2013-05-08 04:41:00,57.4,56.5,30.09,South,182,0.0,0.0,97,0.00,,---,0.00,VWS V14.01,2013-05-08 09:41:00,
2013-05-08 04:42:00,57.4,56.5,30.09,South,182,0.0,0.0,97,0.00,,---,0.00,VWS V14.01,2013-05-08 09:42:00,
2013-05-08 04:43:00,57.4,56.5,30.09,South,182,0.0,0.0,97,0.00,,---,0.00,VWS V14.01,2013-05-08 09:43:00,
2013-05-08 04:44:00,57.4,56.5,30.09,South,182,0.0,0.0,97,0.00,,---,0.00,VWS V14.01,2013-05-08 09:44:00,
2013-05-08 04:45:00,57.4,56.5,30.09,South,182,0.0,0.0,97,0.00,,---,0.00,VWS V14.01,2013-05-08 09:45:00,
2013-05-08 04:46:00,57.4,56.5,30.09,South,182,0.0,0.0,97,0.00,,---,0.00,VWS V14.01,2013-05-08 09:46:00,
2013-05-08 04:47:00,57.4,56.5,30.09,South,182,0.0,0.0,97,0.00,,---,0.00,VWS V14.01,2013-05-08 09:47:00,
2013-05-08 04:48:00,57.4,56.5,30.09,South,182,0.0,0.0,97,0.00,,---,0.00,VWS V14.01,2013-05-08 09:48:00,
2013-05-08 04:49:00,57.2,56.4,30.09,South,182,0.0,0.0,97,0.00,,---,0.00,VWS V14.01,2013-05-08 09:49:00,
2013-05-08 04:50:00,57.2,56.4,30.09,South,182,0.0,0.0,97,0.00,,---,0.00,VWS V14.01,2013-05-08 09:50:00,
2013-05-08 04:51:00,57.2,56.4,30.09,South,182,0.0,0.0,97,0.00,,---,0.00,VWS V14.01,2013-05-08 09:51:00,
2013-05-08 04:52:00,57.2,56.4,30.09,South,182,0.0,0.0,97,0.00,,---,0.00,VWS V14.01,2013-05-08 09:52:00,
2013-05-08 04:53:00,57.2,56.4,30.09,South,182,0.0,0.0,97,0.00,,---,0.00,VWS V14.01,2013-05-08 09:53:00,
2013-05-08 04:54:00,57.2,56.4,30.09,South,182,0.0,0.0,97,0.00,,---,0.00,VWS V14.01,2013-05-08 09:54:00,
2013-05-08 04:55:00,57.2,56.4,30.09,South,182,0.0,0.0,97,0.00,,---,0.00,VWS V14.01,2013-05-08 09:55:00,
2013-05-08 04:56:00,57.2,56.4,30.09,South,182,0.0,0.0,97,0.00,,---,0.00,VWS V14.01,2013-05-08 09:56:00,
2013-05-08 04:57:00,57.2,56.4,30.09,South,182,0.0,0.0,97,0.00,,---,0.00,VWS V14.01,2013-05-08 09:57:00,
2013-05-08 04:58:00,57.2,56.4,30.09,South,182,0.0,0.0,97,0.00,,---,0.00,VWS V14.01,2013-05-08 09:58:00,
2013-05-08 04:59:00,57.0,56.2,30.09,South,182,0.0,0.0,97,0.00,,---,0.00,VWS V14.01,2013-05-08 09:59:00,
2013-05-08 05:00:00,57.0,56.2,30.09,South,182,0.0,0.0,97,0.00,,---,0.00,VWS V14.01,2013-05-08 10:00:00,
2013-05-08 05:01:00,57.0,56.2,30.09,South,182,0.0,0.0,97,0.00,,---,0.00,VWS V14.01,2013-05-08 10:01:00,
2013-05-08 05:02:00,57.0,56.2,30.09,South,182,0.0,0.0,97,0.00,,---,0.00,VWS V14.01,2013-05-08 10:02:00,
2013-05-08 05:03:00,57.0,56.2,30.09,South,182,0.0,0.0,97,0.00,,---,0.00,VWS V14.01,2013-05-08 10:03:00,
2013-05-08 05:04:00,57.0,56.2,30.09,South,182,0.0,0.0,97,0.00,,---,0.00,VWS V14.01,2013-05-08 10:04:00,
2013-05-08 05:05:00,56.8,56.0,30.09,South,182,0.0,0.0,97,0.00,,---,0.00,VWS V14.01,2013-05-08 10:05:00,
2013-05-08 05:06:00,56.8,56.0,30.09,South,182,0.0,0.0,97,0.00,,---,0.00,VWS V14.01,2013-05-08 10:06:00,
2013-05-08 05:07:00,56.8,56.0,30.09,South,182,0.0,0.0,97,0.00,,---,0.00,VWS V14.01,2013-05-08 10:07:00,
2013-05-08 05:08:00,56.8,56.0,30.09,South,182,0.0,0.0,97,0.00,,---,0.00,VWS V14.01,2013-05-08 10:08:00,
2013-05-08 05:09:00,56.8,56.0,30.09,South,182,0.0,0.0,97,0.00,,---,0.00,VWS V14.01,2013-05-08 10:09:00,
2013-05-08 05:10:00,56.8,56.0,30.09,South,182,0.0,0.0,97,0.00,,---,0.00,VWS V14.01,2013-05-08 10:10:00,
2013-05-08 05:11:00,56.8,56.0,30.09,South,182,0.0,0.0,97,0.00,,---,0.00,VWS V14.01,2013-05-08 10:11:00,
2013-05-08 05:12:00,56.8,56.0,30.09,South,182,0.0,0.0,97,0.00,,---,0.00,VWS V14.01,2013-05-08 10:12:00,
2013-05-08 05:13:00,56.8,56.3,30.09,South,182,0.0,0.0,98,0.00,,---,0.00,VWS V14.01,2013-05-08 10:13:00,
2013-05-08 05:14:00,56.8,56.0,30.09,South,182,0.0,0.0,97,0.00,,---,0.00,VWS V14.01,2013-05-08 10:14:00,
2013-05-08 05:15:00,56.8,56.0,30.09,South,182,0.0,0.0,97,0.00,,---,0.00,VWS V14.01,2013-05-08 10:15:00,
2013-05-08 05:16:00,56.8,56.0,30.09,South,182,0.0,0.0,97,0.00,,---,0.00,VWS V14.01,2013-05-08 10:16:00,
2013-05-08 05:17:00,56.8,56.0,30.09,South,182,0.0,0.0,97,0.00,,---,0.00,VWS V14.01,2013-05-08 10:17:00,
2013-05-08 05:18:00,56.7,56.1,30.09,South,182,0.0,0.0,98,0.00,,---,0.00,VWS V14.01,2013-05-08 10:18:00,
2013-05-08 05:19:00,56.7,56.1,30.09,South,182,0.0,0.0,98,0.00,,---,0.00,VWS V14.01,2013-05-08 10:19:00,
2013-05-08 05:20:00,56.7,56.1,30.09,South,182,0.0,0.0,98,0.00,,---,0.00,VWS V14.01,2013-05-08 10:20:00,
2013-05-08 05:21:00,56.7,56.1,30.09,South,182,0.0,0.0,98,0.00,,---,0.00,VWS V14.01,2013-05-08 10:21:00,
2013-05-08 05:22:00,56.7,56.1,30.09,South,182,0.0,0.0,98,0.00,,---,0.00,VWS V14.01,2013-05-08 10:22:00,
2013-05-08 05:23:00,56.7,56.1,30.09,South,182,0.0,0.0,98,0.00,,---,0.00,VWS V14.01,2013-05-08 10:23:00,
2013-05-08 05:24:00,56.7,56.1,30.09,South,182,0.0,0.0,98,0.00,,---,0.00,VWS V14.01,2013-05-08 10:24:00,
2013-05-08 05:25:00,56.7,56.1,30.09,South,182,0.0,0.0,98,0.00,,---,0.00,VWS V14.01,2013-05-08 10:25:00,
2013-05-08 05:26:00,56.7,56.1,30.09,South,182,0.0,0.0,98,0.00,,---,0.00,VWS V14.01,2013-05-08 10:26:00,
2013-05-08 05:27:00,56.7,56.1,30.09,South,182,0.0,0.0,98,0.00,,---,0.00,VWS V14.01,2013-05-08 10:27:00,
2013-05-08 05:28:00,56.7,56.1,30.09,South,182,0.0,0.0,98,0.00,,---,0.00,VWS V14.01,2013-05-08 10:28:00,
2013-05-08 05:29:00,56.5,55.9,30.09,South,182,0.0,0.0,98,0.00,,---,0.00,VWS V14.01,2013-05-08 10:29:00,
2013-05-08 05:30:00,56.5,55.9,30.09,South,182,0.0,0.0,98,0.00,,---,0.00,VWS V14.01,2013-05-08 10:30:00,
2013-05-08 05:31:00,56.5,55.9,30.06,South,182,0.0,0.0,98,0.00,,---,0.00,VWS V14.01,2013-05-08 10:31:00,
2013-05-08 05:32:00,56.5,55.9,30.06,South,182,0.0,0.0,98,0.00,,---,0.00,VWS V14.01,2013-05-08 10:32:00,
2013-05-08 05:33:00,56.5,55.9,30.06,South,182,0.0,0.0,98,0.00,,---,0.00,VWS V14.01,2013-05-08 10:33:00,
2013-05-08 05:34:00,56.5,55.9,30.06,South,182,0.0,0.0,98,0.00,,---,0.00,VWS V14.01,2013-05-08 10:34:00,
2013-05-08 05:35:00,56.5,55.9,30.06,South,182,0.0,0.0,98,0.00,,---,0.00,VWS V14.01,2013-05-08 10:35:00,
2013-05-08 05:36:00,56.5,55.9,30.06,South,182,0.0,0.0,98,0.00,,---,0.00,VWS V14.01,2013-05-08 10:36:00,
2013-05-08 05:37:00,56.5,55.9,30.06,South,182,0.0,0.0,98,0.00,,---,0.00,VWS V14.01,2013-05-08 10:37:00,
2013-05-08 05:38:00,56.5,55.9,30.06,South,182,0.0,0.0,98,0.00,,---,0.00,VWS V14.01,2013-05-08 10:38:00,
2013-05-08 05:39:00,56.5,55.9,30.06,South,182,0.0,0.0,98,0.00,,---,0.00,VWS V14.01,2013-05-08 10:39:00,
2013-05-08 05:40:00,56.5,55.9,30.06,South,182,0.0,0.0,98,0.00,,---,0.00,VWS V14.01,2013-05-08 10:40:00,
2013-05-08 05:41:00,56.5,55.9,30.06,South,182,0.0,0.0,98,0.00,,---,0.00,VWS V14.01,2013-05-08 10:41:00,
2013-05-08 05:42:00,56.5,55.9,30.06,South,182,0.0,0.0,98,0.00,,---,0.00,VWS V14.01,2013-05-08 10:42:00,
2013-05-08 05:43:00,56.5,55.9,30.06,South,182,0.0,0.0,98,0.00,,---,0.00,VWS V14.01,2013-05-08 10:43:00,
2013-05-08 05:44:00,56.5,55.9,30.06,South,182,0.0,0.0,98,0.00,,---,0.00,VWS V14.01,2013-05-08 10:44:00,
2013-05-08 05:45:00,56.5,55.9,30.06,South,182,0.0,0.0,98,0.00,,---,0.00,VWS V14.01,2013-05-08 10:45:00,
2013-05-08 05:46:00,56.7,56.1,30.09,South,182,0.0,0.0,98,0.00,,---,0.00,VWS V14.01,2013-05-08 10:46:00,
2013-05-08 05:47:00,56.7,56.1,30.09,South,182,0.0,0.0,98,0.00,,---,0.00,VWS V14.01,2013-05-08 10:47:00,
2013-05-08 05:48:00,56.5,55.9,30.09,South,182,0.0,0.0,98,0.00,,---,0.00,VWS V14.01,2013-05-08 10:48:00,
2013-05-08 05:49:00,56.5,55.9,30.09,South,182,0.0,0.0,98,0.00,,---,0.00,VWS V14.01,2013-05-08 10:49:00,
2013-05-08 05:50:00,56.5,55.9,30.09,South,182,0.0,0.0,98,0.00,,---,0.00,VWS V14.01,2013-05-08 10:50:00,
2013-05-08 05:51:00,56.5,55.9,30.09,South,182,0.0,0.0,98,0.00,,---,0.00,VWS V14.01,2013-05-08 10:51:00,
2013-05-08 05:52:00,56.5,55.9,30.09,South,182,0.0,0.0,98,0.00,,---,0.00,VWS V14.01,2013-05-08 10:52:00,
2013-05-08 05:53:00,56.5,55.9,30.09,South,182,0.0,0.0,98,0.00,,---,0.00,VWS V14.01,2013-05-08 10:53:00,
2013-05-08 05:54:00,56.5,55.9,30.09,South,182,0.0,0.0,98,0.00,,---,0.00,VWS V14.01,2013-05-08 10:54:00,
2013-05-08 05:55:00,56.5,55.9,30.09,South,182,0.0,0.0,98,0.00,,---,0.00,VWS V14.01,2013-05-08 10:55:00,
2013-05-08 05:56:00,56.5,55.9,30.09,South,182,0.0,0.0,98,0.00,,---,0.00,VWS V14.01,2013-05-08 10:56:00,
2013-05-08 05:57:00,56.7,56.1,30.09,South,182,0.0,0.0,98,0.00,,---,0.00,VWS V14.01,2013-05-08 10:57:00,
2013-05-08 05:58:00,56.7,56.1,30.09,South,182,0.0,0.0,98,0.00,,---,0.00,VWS V14.01,2013-05-08 10:58:00,
2013-05-08 05:59:00,56.7,56.1,30.09,South,182,0.0,0.0,98,0.00,,---,0.00,VWS V14.01,2013-05-08 10:59:00,
2013-05-08 06:00:00,56.5,55.9,30.09,South,182,0.0,0.0,98,0.00,,---,0.00,VWS V14.01,2013-05-08 11:00:00,
2013-05-08 06:01:00,56.5,55.9,30.09,South,182,0.0,0.0,98,0.00,,---,0.00,VWS V14.01,2013-05-08 11:01:00,
2013-05-08 06:02:00,56.5,55.9,30.09,South,182,0.0,0.0,98,0.00,,---,0.00,VWS V14.01,2013-05-08 11:02:00,
2013-05-08 06:03:00,56.5,55.9,30.09,South,182,0.0,0.0,98,0.00,,---,0.00,VWS V14.01,2013-05-08 11:03:00,
2013-05-08 06:04:00,56.5,55.9,30.09,South,182,0.0,0.0,98,0.00,,---,0.00,VWS V14.01,2013-05-08 11:04:00,
2013-05-08 06:05:00,56.5,55.9,30.09,South,182,0.0,0.0,98,0.00,,---,0.00,VWS V14.01,2013-05-08 11:05:00,
2013-05-08 06:06:00,56.5,55.9,30.09,South,182,0.0,0.0,98,0.00,,---,0.00,VWS V14.01,2013-05-08 11:06:00,
2013-05-08 06:07:00,56.5,55.9,30.09,South,182,0.0,0.0,98,0.00,,---,0.00,VWS V14.01,2013-05-08 11:07:00,
2013-05-08 06:08:00,56.3,55.7,30.09,South,182,0.0,0.0,98,0.00,,---,0.00,VWS V14.01,2013-05-08 11:08:00,
2013-05-08 06:09:00,56.3,55.7,30.09,South,182,0.0,0.0,98,0.00,,---,0.00,VWS V14.01,2013-05-08 11:09:00,
2013-05-08 06:10:00,56.3,55.7,30.09,South,182,0.0,0.0,98,0.00,,---,0.00,VWS V14.01,2013-05-08 11:10:00,
2013-05-08 06:11:00,56.3,55.8,30.09,South,182,0.0,0.0,98,0.00,,---,0.00,VWS V14.01,2013-05-08 11:11:00,
2013-05-08 06:12:00,56.5,55.9,30.09,South,182,0.0,0.0,98,0.00,,---,0.00,VWS V14.01,2013-05-08 11:12:00,
2013-05-08 06:13:00,56.5,55.9,30.09,South,182,0.0,0.0,98,0.00,,---,0.00,VWS V14.01,2013-05-08 11:13:00,
2013-05-08 06:14:00,56.5,55.9,30.09,South,182,0.0,0.0,98,0.00,,---,0.00,VWS V14.01,2013-05-08 11:14:00,
2013-05-08 06:15:00,56.5,55.9,30.09,South,182,0.0,0.0,98,0.00,,---,0.00,VWS V14.01,2013-05-08 11:15:00,
2013-05-08 06:16:00,56.5,55.9,30.09,South,182,0.0,0.0,98,0.00,,---,0.00,VWS V14.01,2013-05-08 11:16:00,
2013-05-08 06:17:00,56.5,55.9,30.09,South,182,0.0,0.0,98,0.00,,---,0.00,VWS V14.01,2013-05-08 11:17:00,
2013-05-08 06:18:00,56.5,55.9,30.09,South,182,0.0,0.0,98,0.00,,---,0.00,VWS V14.01,2013-05-08 11:18:00,
2013-05-08 06:19:00,56.5,55.9,30.09,South,182,0.0,0.0,98,0.00,,---,0.00,VWS V14.01,2013-05-08 11:19:00,
2013-05-08 06:20:00,56.5,55.9,30.09,South,182,0.0,0.0,98,0.00,,---,0.00,VWS V14.01,2013-05-08 11:20:00,
2013-05-08 06:21:00,56.5,55.9,30.09,South,182,0.0,0.0,98,0.00,,---,0.00,VWS V14.01,2013-05-08 11:21:00,
2013-05-08 06:22:00,56.7,56.1,30.09,South,182,0.0,0.0,98,0.00,,---,0.00,VWS V14.01,2013-05-08 11:22:00,
2013-05-08 06:23:00,56.7,56.1,30.09,South,182,0.0,0.0,98,0.00,,---,0.00,VWS V14.01,2013-05-08 11:23:00,
2013-05-08 06:24:00,56.7,56.1,30.09,South,182,0.0,0.0,98,0.00,,---,0.00,VWS V14.01,2013-05-08 11:24:00,
2013-05-08 06:25:00,56.7,56.1,30.09,South,182,0.0,0.0,98,0.00,,---,0.00,VWS V14.01,2013-05-08 11:25:00,
2013-05-08 06:26:00,56.7,56.1,30.09,South,182,0.0,0.0,98,0.00,,---,0.00,VWS V14.01,2013-05-08 11:26:00,
2013-05-08 06:27:00,56.7,56.1,30.09,South,182,0.0,0.0,98,0.00,,---,0.00,VWS V14.01,2013-05-08 11:27:00,
2013-05-08 06:28:00,56.7,56.1,30.09,South,182,0.0,0.0,98,0.00,,---,0.00,VWS V14.01,2013-05-08 11:28:00,
2013-05-08 06:29:00,56.7,56.1,30.09,South,182,0.0,0.0,98,0.00,,---,0.00,VWS V14.01,2013-05-08 11:29:00,
2013-05-08 06:30:00,56.7,56.1,30.09,South,182,0.0,0.0,98,0.00,,---,0.00,VWS V14.01,2013-05-08 11:30:00,
2013-05-08 06:31:00,56.8,56.3,30.12,South,182,0.0,0.0,98,0.00,,---,0.00,VWS V14.01,2013-05-08 11:31:00,
2013-05-08 06:32:00,56.8,56.3,30.12,South,182,0.0,0.0,98,0.00,,---,0.00,VWS V14.01,2013-05-08 11:32:00,
2013-05-08 06:33:00,56.8,56.3,30.12,South,182,0.0,0.0,98,0.00,,---,0.00,VWS V14.01,2013-05-08 11:33:00,
2013-05-08 06:34:00,56.8,56.3,30.12,South,182,0.0,0.0,98,0.00,,---,0.00,VWS V14.01,2013-05-08 11:34:00,
2013-05-08 06:35:00,56.8,56.3,30.12,South,182,0.0,0.0,98,0.00,,---,0.00,VWS V14.01,2013-05-08 11:35:00,
2013-05-08 06:36:00,56.8,56.3,30.12,South,182,0.0,0.0,98,0.00,,---,0.00,VWS V14.01,2013-05-08 11:36:00,
2013-05-08 06:37:00,56.8,56.3,30.12,South,182,0.0,0.0,98,0.00,,---,0.00,VWS V14.01,2013-05-08 11:37:00,
2013-05-08 06:38:00,56.8,56.3,30.12,South,182,0.0,0.0,98,0.00,,---,0.00,VWS V14.01,2013-05-08 11:38:00,
2013-05-08 06:39:00,56.8,56.3,30.12,South,182,0.0,0.0,98,0.00,,---,0.00,VWS V14.01,2013-05-08 11:39:00,
2013-05-08 06:40:00,57.0,56.5,30.12,South,182,0.0,0.0,98,0.00,,---,0.00,VWS V14.01,2013-05-08 11:40:00,
2013-05-08 06:41:00,57.0,56.5,30.12,South,182,0.0,0.0,98,0.00,,---,0.00,VWS V14.01,2013-05-08 11:41:00,
2013-05-08 06:42:00,57.0,56.5,30.12,South,182,0.0,0.0,98,0.00,,---,0.00,VWS V14.01,2013-05-08 11:42:00,
2013-05-08 06:43:00,57.0,56.5,30.12,South,182,0.0,0.0,98,0.00,,---,0.00,VWS V14.01,2013-05-08 11:43:00,
2013-05-08 06:44:00,57.0,56.5,30.12,South,182,0.0,0.0,98,0.00,,---,0.00,VWS V14.01,2013-05-08 11:44:00,
2013-05-08 06:45:00,57.2,56.6,30.12,South,182,0.0,0.0,98,0.00,,---,0.00,VWS V14.01,2013-05-08 11:45:00,
2013-05-08 06:46:00,57.2,56.6,30.12,South,182,0.0,0.0,98,0.00,,---,0.00,VWS V14.01,2013-05-08 11:46:00,
2013-05-08 06:47:00,57.2,56.6,30.12,South,182,0.0,0.0,98,0.00,,---,0.00,VWS V14.01,2013-05-08 11:47:00,
2013-05-08 06:48:00,57.2,56.6,30.12,South,182,0.0,0.0,98,0.00,,---,0.00,VWS V14.01,2013-05-08 11:48:00,
2013-05-08 06:49:00,57.4,56.8,30.12,South,182,0.0,0.0,98,0.00,,---,0.00,VWS V14.01,2013-05-08 11:49:00,
2013-05-08 06:50:00,57.4,56.8,30.12,South,182,0.0,0.0,98,0.00,,---,0.00,VWS V14.01,2013-05-08 11:50:00,
2013-05-08 06:51:00,57.4,56.8,30.12,South,182,0.0,0.0,98,0.00,,---,0.00,VWS V14.01,2013-05-08 11:51:00,
2013-05-08 06:52:00,57.4,56.8,30.12,South,182,0.0,0.0,98,0.00,,---,0.00,VWS V14.01,2013-05-08 11:52:00,
2013-05-08 06:53:00,57.6,57.0,30.12,South,182,0.0,0.0,98,0.00,,---,0.00,VWS V14.01,2013-05-08 11:53:00,
2013-05-08 06:54:00,57.6,57.0,30.12,South,182,0.0,0.0,98,0.00,,---,0.00,VWS V14.01,2013-05-08 11:54:00,
2013-05-08 06:55:00,57.6,57.0,30.12,South,182,0.0,0.0,98,0.00,,---,0.00,VWS V14.01,2013-05-08 11:55:00,
2013-05-08 06:56:00,57.7,57.2,30.12,South,182,0.0,0.0,98,0.00,,---,0.00,VWS V14.01,2013-05-08 11:56:00,
2013-05-08 06:57:00,57.7,57.2,30.12,South,182,0.0,0.0,98,0.00,,---,0.00,VWS V14.01,2013-05-08 11:57:00,
2013-05-08 06:58:00,57.9,57.4,30.12,South,182,0.0,0.0,98,0.00,,---,0.00,VWS V14.01,2013-05-08 11:58:00,
2013-05-08 06:59:00,57.9,57.4,30.12,South,182,0.0,0.0,98,0.00,,---,0.00,VWS V14.01,2013-05-08 11:59:00,
2013-05-08 07:00:00,57.9,57.4,30.12,South,182,0.0,0.0,98,0.00,,---,0.00,VWS V14.01,2013-05-08 12:00:00,
2013-05-08 07:01:00,57.9,57.4,30.12,South,182,0.0,0.0,98,0.00,,---,0.00,VWS V14.01,2013-05-08 12:01:00,
2013-05-08 07:02:00,58.1,57.5,30.12,South,182,0.0,0.0,98,0.00,,---,0.00,VWS V14.01,2013-05-08 12:02:00,
2013-05-08 07:03:00,58.1,57.5,30.12,South,182,0.0,0.0,98,0.00,,---,0.00,VWS V14.01,2013-05-08 12:03:00,
2013-05-08 07:04:00,58.1,57.5,30.12,South,182,0.0,0.0,98,0.00,,---,0.00,VWS V14.01,2013-05-08 12:04:00,
2013-05-08 07:05:00,58.3,57.7,30.12,South,182,0.0,0.0,98,0.00,,---,0.00,VWS V14.01,2013-05-08 12:05:00,
2013-05-08 07:06:00,58.5,57.9,30.12,South,182,0.0,0.0,98,0.00,,---,0.00,VWS V14.01,2013-05-08 12:06:00,
2013-05-08 07:07:00,58.5,57.9,30.12,South,182,0.0,0.0,98,0.00,,---,0.00,VWS V14.01,2013-05-08 12:07:00,
2013-05-08 07:08:00,58.5,57.9,30.12,South,182,0.0,0.0,98,0.00,,---,0.00,VWS V14.01,2013-05-08 12:08:00,
2013-05-08 07:09:00,58.6,58.1,30.12,South,182,0.0,0.0,98,0.00,,---,0.00,VWS V14.01,2013-05-08 12:09:00,
2013-05-08 07:10:00,58.6,58.1,30.12,South,182,0.0,0.0,98,0.00,,---,0.00,VWS V14.01,2013-05-08 12:10:00,
2013-05-08 07:11:00,58.8,58.3,30.12,South,182,0.0,0.0,98,0.00,,---,0.00,VWS V14.01,2013-05-08 12:11:00,
2013-05-08 07:12:00,58.8,58.3,30.12,South,182,0.0,0.0,98,0.00,,---,0.00,VWS V14.01,2013-05-08 12:12:00,
2013-05-08 07:13:00,59.0,58.2,30.12,South,182,0.0,0.0,97,0.00,,---,0.00,VWS V14.01,2013-05-08 12:13:00,
2013-05-08 07:14:00,59.0,58.2,30.12,South,182,0.0,0.0,97,0.00,,---,0.00,VWS V14.01,2013-05-08 12:14:00,
2013-05-08 07:15:00,59.2,58.6,30.12,South,182,0.0,0.0,98,0.00,,---,0.00,VWS V14.01,2013-05-08 12:15:00,
2013-05-08 07:16:00,59.4,58.8,30.12,South,182,0.0,0.0,98,0.00,,---,0.00,VWS V14.01,2013-05-08 12:16:00,
2013-05-08 07:17:00,59.4,58.8,30.12,South,182,0.0,0.0,98,0.00,,---,0.00,VWS V14.01,2013-05-08 12:17:00,
2013-05-08 07:18:00,59.4,58.8,30.12,South,182,0.0,0.0,98,0.00,,---,0.00,VWS V14.01,2013-05-08 12:18:00,
2013-05-08 07:19:00,59.5,59.0,30.12,South,182,0.0,0.0,98,0.00,,---,0.00,VWS V14.01,2013-05-08 12:19:00,
2013-05-08 07:20:00,59.7,59.2,30.12,South,182,0.0,0.0,98,0.00,,---,0.00,VWS V14.01,2013-05-08 12:20:00,
2013-05-08 07:21:00,59.9,59.3,30.12,South,182,0.0,0.0,98,0.00,,---,0.00,VWS V14.01,2013-05-08 12:21:00,
2013-05-08 07:22:00,59.9,59.3,30.12,South,182,0.0,0.0,98,0.00,,---,0.00,VWS V14.01,2013-05-08 12:22:00,
2013-05-08 07:23:00,60.1,59.5,30.12,South,182,0.0,0.0,98,0.00,,---,0.00,VWS V14.01,2013-05-08 12:23:00,
2013-05-08 07:24:00,60.1,59.5,30.12,South,182,0.0,0.0,98,0.00,,---,0.00,VWS V14.01,2013-05-08 12:24:00,
2013-05-08 07:25:00,60.3,59.7,30.12,South,182,0.0,0.0,98,0.00,,---,0.00,VWS V14.01,2013-05-08 12:25:00,
2013-05-08 07:26:00,60.4,59.9,30.12,South,182,0.0,0.0,98,0.00,,---,0.00,VWS V14.01,2013-05-08 12:26:00,
2013-05-08 07:27:00,60.4,59.9,30.12,South,182,0.0,0.0,98,0.00,,---,0.00,VWS V14.01,2013-05-08 12:27:00,
2013-05-08 07:28:00,60.6,60.1,30.12,South,182,0.0,0.0,98,0.00,,---,0.00,VWS V14.01,2013-05-08 12:28:00,
2013-05-08 07:29:00,60.8,60.0,30.12,South,182,0.0,0.0,97,0.00,,---,0.00,VWS V14.01,2013-05-08 12:29:00,
2013-05-08 07:30:00,60.8,60.0,30.12,South,182,0.0,0.0,97,0.00,,---,0.00,VWS V14.01,2013-05-08 12:30:00,
2013-05-08 07:31:00,61.0,60.1,30.12,South,182,0.0,0.0,97,0.00,,---,0.00,VWS V14.01,2013-05-08 12:31:00,
2013-05-08 07:32:00,61.0,60.1,30.12,South,182,0.0,0.0,97,0.00,,---,0.00,VWS V14.01,2013-05-08 12:32:00,
2013-05-08 07:33:00,61.2,60.3,30.12,South,182,0.0,0.0,97,0.00,,---,0.00,VWS V14.01,2013-05-08 12:33:00,
2013-05-08 07:34:00,61.3,60.5,30.12,South,182,0.0,0.0,97,0.00,,---,0.00,VWS V14.01,2013-05-08 12:34:00,
2013-05-08 07:35:00,61.5,60.7,30.12,South,182,0.0,0.0,97,0.00,,---,0.00,VWS V14.01,2013-05-08 12:35:00,
2013-05-08 07:36:00,61.7,60.8,30.12,South,182,0.0,0.0,97,0.00,,---,0.00,VWS V14.01,2013-05-08 12:36:00,
2013-05-08 07:37:00,61.7,60.8,30.12,South,182,0.0,0.0,97,0.00,,---,0.00,VWS V14.01,2013-05-08 12:37:00,
2013-05-08 07:38:00,61.9,61.0,30.12,South,182,0.0,0.0,97,0.00,,---,0.00,VWS V14.01,2013-05-08 12:38:00,
2013-05-08 07:39:00,61.9,61.0,30.12,South,182,0.0,0.0,97,0.00,,---,0.00,VWS V14.01,2013-05-08 12:39:00,
2013-05-08 07:40:00,61.9,61.0,30.12,South,182,0.0,0.0,97,0.00,,---,0.00,VWS V14.01,2013-05-08 12:40:00,
2013-05-08 07:41:00,62.2,61.4,30.12,South,182,0.0,0.0,97,0.00,,---,0.00,VWS V14.01,2013-05-08 12:41:00,
2013-05-08 07:42:00,62.2,61.4,30.12,South,182,0.0,0.0,97,0.00,,---,0.00,VWS V14.01,2013-05-08 12:42:00,
2013-05-08 07:43:00,62.2,61.7,30.12,South,182,0.0,0.0,98,0.00,,---,0.00,VWS V14.01,2013-05-08 12:43:00,
2013-05-08 07:44:00,62.4,61.6,30.12,South,182,0.0,0.0,97,0.00,,---,0.00,VWS V14.01,2013-05-08 12:44:00,
2013-05-08 07:45:00,62.6,61.7,30.12,South,182,0.0,0.0,97,0.00,,---,0.00,VWS V14.01,2013-05-08 12:45:00,
2013-05-08 07:46:00,62.6,61.7,30.12,South,182,0.0,0.0,97,0.00,,---,0.00,VWS V14.01,2013-05-08 12:46:00,
2013-05-08 07:47:00,62.6,61.7,30.12,South,182,0.0,0.0,97,0.00,,---,0.00,VWS V14.01,2013-05-08 12:47:00,
2013-05-08 07:48:00,62.6,61.7,30.12,South,182,0.0,0.0,97,0.00,,---,0.00,VWS V14.01,2013-05-08 12:48:00,
2013-05-08 07:49:00,63.0,62.1,30.12,South,182,0.0,0.0,97,0.00,,---,0.00,VWS V14.01,2013-05-08 12:49:00,
2013-05-08 07:50:00,63.0,62.1,30.12,South,182,0.0,0.0,97,0.00,,---,0.00,VWS V14.01,2013-05-08 12:50:00,
2013-05-08 07:51:00,63.1,62.3,30.12,South,182,0.0,0.0,97,0.00,,---,0.00,VWS V14.01,2013-05-08 12:51:00,
2013-05-08 07:52:00,63.3,62.5,30.12,South,182,0.0,0.0,97,0.00,,---,0.00,VWS V14.01,2013-05-08 12:52:00,
2013-05-08 07:53:00,63.3,62.5,30.12,South,182,0.0,0.0,97,0.00,,---,0.00,VWS V14.01,2013-05-08 12:53:00,
2013-05-08 07:54:00,63.5,62.6,30.12,South,182,0.0,0.0,97,0.00,,---,0.00,VWS V14.01,2013-05-08 12:54:00,
2013-05-08 07:55:00,63.7,62.8,30.12,South,182,0.0,0.0,97,0.00,,---,0.00,VWS V14.01,2013-05-08 12:55:00,
2013-05-08 07:56:00,63.9,63.0,30.12,South,182,0.0,0.0,97,0.00,,---,0.00,VWS V14.01,2013-05-08 12:56:00,
2013-05-08 07:57:00,64.0,63.2,30.12,South,182,0.0,0.0,97,0.00,,---,0.00,VWS V14.01,2013-05-08 12:57:00,
2013-05-08 07:58:00,64.0,63.2,30.12,South,182,0.0,0.0,97,0.00,,---,0.00,VWS V14.01,2013-05-08 12:58:00,
2013-05-08 07:59:00,64.2,63.3,30.12,South,182,0.0,0.0,97,0.00,,---,0.00,VWS V14.01,2013-05-08 12:59:00,
2013-05-08 08:00:00,64.2,63.3,30.12,South,182,0.0,0.0,97,0.00,,---,0.00,VWS V14.01,2013-05-08 13:00:00,
2013-05-08 08:01:00,64.4,63.5,30.12,South,182,0.0,0.0,97,0.00,,---,0.00,VWS V14.01,2013-05-08 13:01:00,
2013-05-08 08:02:00,64.4,63.5,30.12,South,182,0.0,0.0,97,0.00,,---,0.00,VWS V14.01,2013-05-08 13:02:00,
2013-05-08 08:03:00,64.8,63.9,30.12,South,182,0.0,0.0,97,0.00,,---,0.00,VWS V14.01,2013-05-08 13:03:00,
2013-05-08 08:04:00,64.8,63.9,30.12,South,182,0.0,0.0,97,0.00,,---,0.00,VWS V14.01,2013-05-08 13:04:00,
2013-05-08 08:05:00,64.9,64.1,30.12,South,182,0.0,0.0,97,0.00,,---,0.00,VWS V14.01,2013-05-08 13:05:00,
2013-05-08 08:06:00,64.9,64.1,30.12,South,182,0.0,0.0,97,0.00,,---,0.00,VWS V14.01,2013-05-08 13:06:00,
2013-05-08 08:07:00,65.1,64.2,30.12,South,182,0.0,0.0,97,0.00,,---,0.00,VWS V14.01,2013-05-08 13:07:00,
2013-05-08 08:08:00,65.1,64.2,30.12,South,182,0.0,0.0,97,0.00,,---,0.00,VWS V14.01,2013-05-08 13:08:00,
2013-05-08 08:09:00,65.3,64.4,30.12,South,182,0.0,0.0,97,0.00,,---,0.00,VWS V14.01,2013-05-08 13:09:00,
2013-05-08 08:10:00,65.5,64.6,30.12,South,182,0.0,0.0,97,0.00,,---,0.00,VWS V14.01,2013-05-08 13:10:00,
2013-05-08 08:11:00,65.7,64.8,30.12,South,182,0.0,0.0,97,0.00,,---,0.00,VWS V14.01,2013-05-08 13:11:00,
2013-05-08 08:12:00,65.7,64.8,30.12,South,182,0.0,0.0,97,0.00,,---,0.00,VWS V14.01,2013-05-08 13:12:00,
2013-05-08 08:13:00,65.8,65.0,30.12,South,182,0.0,0.0,97,0.00,,---,0.00,VWS V14.01,2013-05-08 13:13:00,
2013-05-08 08:14:00,65.8,65.0,30.12,South,182,0.0,0.0,97,0.00,,---,0.00,VWS V14.01,2013-05-08 13:14:00,
2013-05-08 08:15:00,66.0,65.2,30.12,South,182,0.0,0.0,97,0.00,,---,0.00,VWS V14.01,2013-05-08 13:15:00,
2013-05-08 08:16:00,66.0,65.2,30.15,South,182,0.0,0.0,97,0.00,,---,0.00,VWS V14.01,2013-05-08 13:16:00,
2013-05-08 08:17:00,66.0,64.8,30.15,South,182,0.0,0.0,96,0.00,,---,0.00,VWS V14.01,2013-05-08 13:17:00,
2013-05-08 08:18:00,66.2,65.0,30.15,South,182,0.0,0.0,96,0.00,,---,0.00,VWS V14.01,2013-05-08 13:18:00,
2013-05-08 08:19:00,66.2,65.0,30.15,South,182,0.0,0.0,96,0.00,,---,0.00,VWS V14.01,2013-05-08 13:19:00,
2013-05-08 08:20:00,66.4,65.2,30.15,South,182,0.0,0.0,96,0.00,,---,0.00,VWS V14.01,2013-05-08 13:20:00,
2013-05-08 08:21:00,66.6,65.4,30.15,South,182,0.0,0.0,96,0.00,,---,0.00,VWS V14.01,2013-05-08 13:21:00,
2013-05-08 08:22:00,66.6,65.4,30.15,South,182,0.0,0.0,96,0.00,,---,0.00,VWS V14.01,2013-05-08 13:22:00,
2013-05-08 08:23:00,66.6,65.4,30.15,South,182,0.0,0.0,96,0.00,,---,0.00,VWS V14.01,2013-05-08 13:23:00,
2013-05-08 08:24:00,66.7,65.6,30.15,South,182,0.0,0.0,96,0.00,,---,0.00,VWS V14.01,2013-05-08 13:24:00,
2013-05-08 08:25:00,66.7,65.6,30.15,South,182,0.0,0.0,96,0.00,,---,0.00,VWS V14.01,2013-05-08 13:25:00,
2013-05-08 08:26:00,66.9,65.8,30.15,South,182,0.0,0.0,96,0.00,,---,0.00,VWS V14.01,2013-05-08 13:26:00,
2013-05-08 08:27:00,66.9,65.8,30.15,South,182,0.0,0.0,96,0.00,,---,0.00,VWS V14.01,2013-05-08 13:27:00,
2013-05-08 08:28:00,66.9,65.8,30.15,South,182,0.0,0.0,96,0.00,,---,0.00,VWS V14.01,2013-05-08 13:28:00,
2013-05-08 08:29:00,67.1,65.9,30.15,South,182,0.0,0.0,96,0.00,,---,0.00,VWS V14.01,2013-05-08 13:29:00,
2013-05-08 08:30:00,67.3,66.1,30.15,South,182,0.0,0.0,96,0.00,,---,0.00,VWS V14.01,2013-05-08 13:30:00,
2013-05-08 08:31:00,67.3,66.1,30.15,South,182,0.0,0.0,96,0.00,,---,0.00,VWS V14.01,2013-05-08 13:31:00,
2013-05-08 08:32:00,67.3,66.1,30.15,South,182,0.0,0.0,96,0.00,,---,0.00,VWS V14.01,2013-05-08 13:32:00,
2013-05-08 08:33:00,67.5,66.0,30.15,South,182,0.0,0.0,95,0.00,,---,0.00,VWS V14.01,2013-05-08 13:33:00,
2013-05-08 08:34:00,67.5,66.0,30.15,South,182,0.0,0.0,95,0.00,,---,0.00,VWS V14.01,2013-05-08 13:34:00,
2013-05-08 08:35:00,67.5,66.0,30.15,South,182,0.0,0.0,95,0.00,,---,0.00,VWS V14.01,2013-05-08 13:35:00,
2013-05-08 08:36:00,67.5,66.0,30.15,South,180,0.0,0.0,95,0.00,,---,0.00,VWS V14.01,2013-05-08 13:36:00,
2013-05-08 08:37:00,67.6,66.2,30.15,South,182,0.0,0.0,95,0.00,,---,0.00,VWS V14.01,2013-05-08 13:37:00,
2013-05-08 08:38:00,67.6,66.2,30.15,South,182,0.0,0.0,95,0.00,,---,0.00,VWS V14.01,2013-05-08 13:38:00,
2013-05-08 08:39:00,67.8,66.3,30.15,South,182,0.0,0.0,95,0.00,,---,0.00,VWS V14.01,2013-05-08 13:39:00,
2013-05-08 08:40:00,68.0,66.5,30.15,South,182,0.0,0.0,95,0.00,,---,0.00,VWS V14.01,2013-05-08 13:40:00,
2013-05-08 08:41:00,68.2,66.4,30.15,South,182,0.0,0.0,94,0.00,,---,0.00,VWS V14.01,2013-05-08 13:41:00,
2013-05-08 08:42:00,68.2,66.4,30.15,South,182,0.0,0.0,94,0.00,,---,0.00,VWS V14.01,2013-05-08 13:42:00,
2013-05-08 08:43:00,68.4,66.6,30.15,South,179,0.0,0.0,94,0.00,,---,0.00,VWS V14.01,2013-05-08 13:43:00,
2013-05-08 08:44:00,68.4,66.6,30.15,South,171,0.0,2.7,94,0.00,,---,0.00,VWS V14.01,2013-05-08 13:44:00,
2013-05-08 08:45:00,68.4,66.6,30.15,South,171,0.0,0.0,94,0.00,,---,0.00,VWS V14.01,2013-05-08 13:45:00,
2013-05-08 08:46:00,68.5,66.8,30.15,South,171,0.0,0.0,94,0.00,,---,0.00,VWS V14.01,2013-05-08 13:46:00,
2013-05-08 08:47:00,68.5,66.8,30.15,South,171,0.0,0.0,94,0.00,,---,0.00,VWS V14.01,2013-05-08 13:47:00,
2013-05-08 08:48:00,68.7,66.9,30.15,South,170,0.0,0.0,94,0.00,,---,0.00,VWS V14.01,2013-05-08 13:48:00,
2013-05-08 08:49:00,68.7,66.9,30.15,South,170,0.0,0.0,94,0.00,,---,0.00,VWS V14.01,2013-05-08 13:49:00,
2013-05-08 08:50:00,68.9,66.8,30.15,South,176,0.0,0.0,93,0.00,,---,0.00,VWS V14.01,2013-05-08 13:50:00,
2013-05-08 08:51:00,68.9,66.8,30.15,SSE,164,0.0,0.0,93,0.00,,---,0.00,VWS V14.01,2013-05-08 13:51:00,
2013-05-08 08:52:00,69.1,67.0,30.15,SSW,206,0.0,0.0,93,0.00,,---,0.00,VWS V14.01,2013-05-08 13:52:00,
2013-05-08 08:53:00,69.1,67.0,30.15,South,180,0.0,0.0,93,0.00,,---,0.00,VWS V14.01,2013-05-08 13:53:00,
2013-05-08 08:54:00,69.3,67.2,30.15,South,189,0.0,0.0,93,0.00,,---,0.00,VWS V14.01,2013-05-08 13:54:00,
2013-05-08 08:55:00,69.4,67.0,30.15,WSW,250,0.0,0.0,92,0.00,,---,0.00,VWS V14.01,2013-05-08 13:55:00,
2013-05-08 08:56:00,69.6,67.2,30.15,SSE,157,0.0,0.0,92,0.00,,---,0.00,VWS V14.01,2013-05-08 13:56:00,
2013-05-08 08:57:00,69.6,67.2,30.15,SSW,213,0.0,0.0,92,0.00,,---,0.00,VWS V14.01,2013-05-08 13:57:00,
2013-05-08 08:58:00,69.6,66.9,30.15,SSE,163,3.1,3.1,91,0.00,,---,0.00,VWS V14.01,2013-05-08 13:58:00,
2013-05-08 08:59:00,69.6,66.9,30.15,SSW,196,0.0,3.1,91,0.00,,---,0.00,VWS V14.01,2013-05-08 13:59:00,
2013-05-08 09:00:00,69.8,66.7,30.15,SSW,210,0.0,0.0,90,0.00,,---,0.00,VWS V14.01,2013-05-08 14:00:00,
2013-05-08 09:01:00,69.8,66.4,30.15,WSW,255,0.0,3.1,89,0.00,,---,0.00,VWS V14.01,2013-05-08 14:01:00,
2013-05-08 09:02:00,70.0,66.6,30.15,WSW,249,0.0,3.1,89,0.00,,---,0.00,VWS V14.01,2013-05-08 14:02:00,
2013-05-08 09:03:00,70.0,66.3,30.15,WSW,252,0.0,0.0,88,0.00,,---,0.00,VWS V14.01,2013-05-08 14:03:00,
2013-05-08 09:04:00,70.2,66.4,30.15,WSW,249,0.0,0.0,88,0.00,,---,0.00,VWS V14.01,2013-05-08 14:04:00,
2013-05-08 09:05:00,70.3,66.3,30.15,West,265,0.0,0.0,87,0.00,,---,0.00,VWS V14.01,2013-05-08 14:05:00,
2013-05-08 09:06:00,70.3,66.3,30.15,WSW,238,0.0,0.0,87,0.00,,---,0.00,VWS V14.01,2013-05-08 14:06:00,
2013-05-08 09:07:00,70.5,66.1,30.15,SSE,165,3.6,3.6,86,0.00,,---,0.00,VWS V14.01,2013-05-08 14:07:00,
2013-05-08 09:08:00,70.5,65.8,30.15,South,183,0.0,3.6,85,0.00,,---,0.00,VWS V14.01,2013-05-08 14:08:00,
2013-05-08 09:09:00,70.7,66.0,30.15,South,170,0.0,0.0,85,0.00,,---,0.00,VWS V14.01,2013-05-08 14:09:00,
2013-05-08 09:10:00,70.7,65.6,30.15,South,169,0.0,0.0,84,0.00,,---,0.00,VWS V14.01,2013-05-08 14:10:00,
2013-05-08 09:11:00,71.1,66.0,30.15,WSW,252,0.0,0.0,84,0.00,,---,0.00,VWS V14.01,2013-05-08 14:11:00,
2013-05-08 09:12:00,71.2,66.2,30.15,West,260,0.0,0.0,84,0.00,,---,0.00,VWS V14.01,2013-05-08 14:12:00,
2013-05-08 09:13:00,71.2,66.2,30.15,WSW,255,2.2,4.0,84,0.00,,---,0.00,VWS V14.01,2013-05-08 14:13:00,
2013-05-08 09:14:00,71.4,65.6,30.15,West,269,0.0,4.0,82,0.00,,---,0.00,VWS V14.01,2013-05-08 14:14:00,
2013-05-08 09:15:00,71.8,65.3,30.15,West,280,0.0,2.7,80,0.00,,---,0.00,VWS V14.01,2013-05-08 14:15:00,
2013-05-08 09:16:00,72.0,65.5,30.15,SW,232,3.6,3.6,80,0.00,,---,0.00,VWS V14.01,2013-05-08 14:16:00,
2013-05-08 09:17:00,72.3,65.4,30.15,South,169,2.2,3.6,79,0.00,,---,0.00,VWS V14.01,2013-05-08 14:17:00,
2013-05-08 09:18:00,72.5,65.6,30.15,West,280,2.7,2.7,79,0.00,,---,0.00,VWS V14.01,2013-05-08 14:18:00,
2013-05-08 09:19:00,72.7,65.4,30.15,SE,146,3.1,5.8,78,0.00,,---,0.00,VWS V14.01,2013-05-08 14:19:00,
2013-05-08 09:20:00,72.7,65.1,30.15,SSE,168,3.6,5.4,77,0.00,,---,0.00,VWS V14.01,2013-05-08 14:20:00,
2013-05-08 09:21:00,72.5,64.5,30.15,SSW,210,2.7,3.1,76,0.00,,---,0.00,VWS V14.01,2013-05-08 14:21:00,
2013-05-08 09:22:00,72.5,64.5,30.15,SSW,203,3.1,3.1,76,0.00,,---,0.00,VWS V14.01,2013-05-08 14:22:00,
2013-05-08 09:23:00,72.5,64.5,30.15,South,191,2.2,3.1,76,0.00,,---,0.00,VWS V14.01,2013-05-08 14:23:00,
2013-05-08 09:24:00,72.5,64.1,30.15,South,191,0.0,2.2,75,0.00,,---,0.00,VWS V14.01,2013-05-08 14:24:00,
2013-05-08 09:25:00,72.5,64.1,30.15,SW,220,4.0,4.0,75,0.00,,---,0.00,VWS V14.01,2013-05-08 14:25:00,
2013-05-08 09:26:00,72.5,64.1,30.15,SSE,164,0.0,0.0,75,0.00,,---,0.00,VWS V14.01,2013-05-08 14:26:00,
2013-05-08 09:27:00,72.5,63.8,30.15,South,172,0.0,4.5,74,0.00,,---,0.00,VWS V14.01,2013-05-08 14:27:00,
2013-05-08 09:28:00,72.9,64.1,30.15,South,179,5.8,5.8,74,0.00,,---,0.00,VWS V14.01,2013-05-08 14:28:00,
2013-05-08 09:29:00,72.9,63.7,30.15,WSW,256,2.2,5.8,73,0.00,,---,0.00,VWS V14.01,2013-05-08 14:29:00,
2013-05-08 09:30:00,73.4,63.8,30.15,SSW,192,2.7,2.7,72,0.00,,---,0.00,VWS V14.01,2013-05-08 14:30:00,
2013-05-08 09:31:00,73.8,63.8,30.15,West,263,2.7,2.7,71,0.00,,---,0.00,VWS V14.01,2013-05-08 14:31:00,
2013-05-08 09:32:00,74.1,63.7,30.15,WNW,285,4.0,6.3,70,0.00,,---,0.00,VWS V14.01,2013-05-08 14:32:00,
2013-05-08 09:33:00,74.3,63.1,30.15,SSW,206,6.3,6.3,68,0.00,,---,0.00,VWS V14.01,2013-05-08 14:33:00,
2013-05-08 09:34:00,74.7,63.4,30.15,WSW,254,3.1,6.3,68,0.00,,---,0.00,VWS V14.01,2013-05-08 14:34:00,
2013-05-08 09:35:00,74.7,63.0,30.15,WSW,238,3.6,8.1,67,0.00,,---,0.00,VWS V14.01,2013-05-08 14:35:00,
2013-05-08 09:36:00,74.8,62.7,30.15,West,261,0.0,0.0,66,0.00,,---,0.00,VWS V14.01,2013-05-08 14:36:00,
2013-05-08 09:37:00,75.2,62.6,30.15,SSE,157,3.6,3.6,65,0.00,,---,0.00,VWS V14.01,2013-05-08 14:37:00,
2013-05-08 09:38:00,75.2,61.3,30.15,South,181,2.7,5.4,62,0.00,,---,0.00,VWS V14.01,2013-05-08 14:38:00,
2013-05-08 09:39:00,75.4,61.0,30.15,SW,221,3.1,4.9,61,0.00,,---,0.00,VWS V14.01,2013-05-08 14:39:00,
2013-05-08 09:40:00,75.6,61.2,30.15,SSE,167,2.2,5.4,61,0.00,,---,0.00,VWS V14.01,2013-05-08 14:40:00,
2013-05-08 09:41:00,75.9,62.0,30.15,South,179,0.0,0.0,62,0.00,,---,0.00,VWS V14.01,2013-05-08 14:41:00,
2013-05-08 09:42:00,76.1,62.2,30.15,SW,223,0.0,0.0,62,0.00,,---,0.00,VWS V14.01,2013-05-08 14:42:00,
2013-05-08 09:43:00,76.1,61.2,30.15,SSE,153,5.8,8.1,60,0.00,,---,0.00,VWS V14.01,2013-05-08 14:43:00,
2013-05-08 09:44:00,75.7,59.4,30.15,SSE,161,4.9,6.3,57,0.00,,---,0.00,VWS V14.01,2013-05-08 14:44:00,
2013-05-08 09:45:00,75.4,58.6,30.15,SSE,164,3.6,5.8,56,0.00,,---,0.00,VWS V14.01,2013-05-08 14:45:00,
2013-05-08 09:46:00,75.6,59.8,30.15,SSW,204,2.7,2.7,58,0.00,,---,0.00,VWS V14.01,2013-05-08 14:46:00,
2013-05-08 09:47:00,75.9,60.1,30.15,SSW,206,4.0,4.0,58,0.00,,---,0.00,VWS V14.01,2013-05-08 14:47:00,
2013-05-08 09:48:00,76.1,59.8,30.15,SSE,149,5.4,6.7,57,0.00,,---,0.00,VWS V14.01,2013-05-08 14:48:00,
2013-05-08 09:49:00,75.7,59.0,30.15,SW,229,5.4,5.4,56,0.00,,---,0.00,VWS V14.01,2013-05-08 14:49:00,
2013-05-08 09:50:00,75.9,59.6,30.15,West,263,4.0,5.4,57,0.00,,---,0.00,VWS V14.01,2013-05-08 14:50:00,
2013-05-08 09:51:00,76.6,59.8,30.15,SSW,207,5.8,5.8,56,0.00,,---,0.00,VWS V14.01,2013-05-08 14:51:00,
2013-05-08 09:52:00,76.8,58.4,30.15,South,177,2.2,5.8,53,0.00,,---,0.00,VWS V14.01,2013-05-08 14:52:00,
2013-05-08 09:53:00,77.0,59.1,30.15,SSW,211,2.7,3.6,54,0.00,,---,0.00,VWS V14.01,2013-05-08 14:53:00,
2013-05-08 09:54:00,77.5,59.6,30.15,SSE,162,4.5,4.5,54,0.00,,---,0.00,VWS V14.01,2013-05-08 14:54:00,
2013-05-08 09:55:00,77.5,58.5,30.15,WSW,254,3.1,4.5,52,0.00,,---,0.00,VWS V14.01,2013-05-08 14:55:00,
2013-05-08 09:56:00,77.9,59.4,30.15,SSW,206,2.7,3.1,53,0.00,,---,0.00,VWS V14.01,2013-05-08 14:56:00,
2013-05-08 09:57:00,78.1,59.6,30.15,WSW,240,2.7,3.1,53,0.00,,---,0.00,VWS V14.01,2013-05-08 14:57:00,
2013-05-08 09:58:00,78.1,59.6,30.15,West,270,2.7,5.8,53,0.00,,---,0.00,VWS V14.01,2013-05-08 14:58:00,
2013-05-08 09:59:00,78.3,59.2,30.15,West,272,2.7,2.7,52,0.00,,---,0.00,VWS V14.01,2013-05-08 14:59:00,
2013-05-08 10:00:00,78.4,58.8,30.15,WSW,247,3.1,3.1,51,0.00,,---,0.00,VWS V14.01,2013-05-08 15:00:00,
2013-05-08 10:01:00,78.8,59.2,30.15,WNW,287,2.7,3.1,51,0.00,,---,0.00,VWS V14.01,2013-05-08 15:01:00,
2013-05-08 10:02:00,78.8,58.6,30.15,WSW,257,3.1,4.9,50,0.00,,---,0.00,VWS V14.01,2013-05-08 15:02:00,
2013-05-08 10:03:00,79.0,58.8,30.15,WSW,256,2.7,4.0,50,0.00,,---,0.00,VWS V14.01,2013-05-08 15:03:00,
2013-05-08 10:04:00,79.0,58.2,30.15,SSE,159,3.1,4.0,49,0.00,,---,0.00,VWS V14.01,2013-05-08 15:04:00,
2013-05-08 10:05:00,79.2,58.4,30.15,West,262,0.0,3.1,49,0.00,,---,0.00,VWS V14.01,2013-05-08 15:05:00,
2013-05-08 10:06:00,79.3,59.1,30.15,WSW,245,2.7,2.7,50,0.00,,---,0.00,VWS V14.01,2013-05-08 15:06:00,
2013-05-08 10:07:00,79.5,58.7,30.15,WSW,250,4.0,4.0,49,0.00,,---,0.00,VWS V14.01,2013-05-08 15:07:00,
2013-05-08 10:08:00,79.0,55.8,30.15,SW,219,5.8,8.1,45,0.00,,---,0.00,VWS V14.01,2013-05-08 15:08:00,
2013-05-08 10:09:00,78.8,56.3,30.15,WSW,247,3.1,5.8,46,0.00,,---,0.00,VWS V14.01,2013-05-08 15:09:00,
2013-05-08 10:10:00,78.4,56.6,30.15,SSW,210,3.1,4.0,47,0.00,,---,0.00,VWS V14.01,2013-05-08 15:10:00,
2013-05-08 10:11:00,78.3,57.0,30.15,SW,227,3.1,3.1,48,0.00,,---,0.00,VWS V14.01,2013-05-08 15:11:00,
2013-05-08 10:12:00,78.4,57.1,30.15,SW,234,2.7,3.1,48,0.00,,---,0.00,VWS V14.01,2013-05-08 15:12:00,
2013-05-08 10:13:00,78.6,57.9,30.15,SW,226,3.6,3.6,49,0.00,,---,0.00,VWS V14.01,2013-05-08 15:13:00,
2013-05-08 10:14:00,78.4,57.1,30.15,West,272,0.0,4.0,48,0.00,,---,0.00,VWS V14.01,2013-05-08 15:14:00,
2013-05-08 10:15:00,78.6,57.3,30.15,WSW,250,3.1,3.1,48,0.00,,---,0.00,VWS V14.01,2013-05-08 15:15:00,
2013-05-08 10:16:00,78.3,57.0,30.15,South,187,4.5,4.5,48,0.00,,---,0.00,VWS V14.01,2013-05-08 15:16:00,
2013-05-08 10:17:00,78.1,55.6,30.15,SSE,160,4.0,4.9,46,0.00,,---,0.00,VWS V14.01,2013-05-08 15:17:00,
2013-05-08 10:18:00,77.9,56.1,30.15,South,181,4.9,4.9,47,0.00,,---,0.00,VWS V14.01,2013-05-08 15:18:00,
2013-05-08 10:19:00,77.9,56.1,30.15,West,278,3.1,4.9,47,0.00,,---,0.00,VWS V14.01,2013-05-08 15:19:00,
2013-05-08 10:20:00,78.1,56.2,30.15,SW,220,4.9,4.9,47,0.00,,---,0.00,VWS V14.01,2013-05-08 15:20:00,
2013-05-08 10:21:00,77.9,56.1,30.15,WSW,241,3.1,3.1,47,0.00,,---,0.00,VWS V14.01,2013-05-08 15:21:00,
2013-05-08 10:22:00,77.7,56.5,30.15,South,184,3.6,4.0,48,0.00,,---,0.00,VWS V14.01,2013-05-08 15:22:00,
2013-05-08 10:23:00,77.7,56.5,30.15,WSW,250,0.0,3.6,48,0.00,,---,0.00,VWS V14.01,2013-05-08 15:23:00,
2013-05-08 10:24:00,77.7,56.5,30.15,SSE,148,5.8,5.8,48,0.00,,---,0.00,VWS V14.01,2013-05-08 15:24:00,
2013-05-08 10:25:00,78.1,56.2,30.15,SSE,165,5.8,5.8,47,0.00,,---,0.00,VWS V14.01,2013-05-08 15:25:00,
2013-05-08 10:26:00,79.0,56.5,30.15,SSE,165,5.4,5.4,46,0.00,,---,0.00,VWS V14.01,2013-05-08 15:26:00,
2013-05-08 10:27:00,79.0,56.5,30.15,SE,140,5.8,5.8,46,0.00,,---,0.00,VWS V14.01,2013-05-08 15:27:00,
2013-05-08 10:28:00,80.2,57.0,30.15,SSE,156,2.7,6.3,45,0.00,,---,0.00,VWS V14.01,2013-05-08 15:28:00,
2013-05-08 10:29:00,80.6,56.7,30.15,South,182,3.6,5.4,44,0.00,,---,0.00,VWS V14.01,2013-05-08 15:29:00,
2013-05-08 10:30:00,81.5,56.9,30.15,SSW,192,4.0,4.0,43,0.00,,---,0.00,VWS V14.01,2013-05-08 15:30:00,
2013-05-08 10:31:00,82.0,58.0,30.15,WNW,287,0.0,3.1,44,0.00,,---,0.00,VWS V14.01,2013-05-08 15:31:00,
2013-05-08 10:32:00,82.8,58.0,30.15,West,272,3.1,3.1,43,0.00,,---,0.00,VWS V14.01,2013-05-08 15:32:00,
2013-05-08 10:33:00,82.8,57.3,30.15,West,276,5.4,5.4,42,0.00,,---,0.00,VWS V14.01,2013-05-08 15:33:00,
2013-05-08 10:34:00,82.9,57.5,30.15,WSW,257,3.6,5.4,42,0.00,,---,0.00,VWS V14.01,2013-05-08 15:34:00,
2013-05-08 10:35:00,82.8,56.7,30.15,WNW,285,4.0,6.3,41,0.00,,---,0.00,VWS V14.01,2013-05-08 15:35:00,
2013-05-08 10:36:00,82.4,56.4,30.15,WNW,284,2.7,3.1,41,0.00,,---,0.00,VWS V14.01,2013-05-08 15:36:00,
2013-05-08 10:37:00,82.6,55.8,30.15,West,270,3.6,5.4,40,0.00,,---,0.00,VWS V14.01,2013-05-08 15:37:00,
2013-05-08 10:38:00,82.8,56.7,30.15,South,186,3.1,3.6,41,0.00,,---,0.00,VWS V14.01,2013-05-08 15:38:00,
2013-05-08 10:39:00,81.9,55.9,30.15,SSW,197,7.6,8.3,41,0.00,,---,0.00,VWS V14.01,2013-05-08 15:39:00,
2013-05-08 10:40:00,81.5,56.2,30.15,West,280,3.6,7.6,42,0.00,,---,0.00,VWS V14.01,2013-05-08 15:40:00,
2013-05-08 10:41:00,80.8,55.6,30.15,West,277,2.2,4.9,42,0.00,,---,0.00,VWS V14.01,2013-05-08 15:41:00,
2013-05-08 10:42:00,80.4,55.9,30.15,SSW,213,4.9,8.1,43,0.00,,---,0.00,VWS V14.01,2013-05-08 15:42:00,
2013-05-08 10:43:00,79.7,55.9,30.15,WSW,238,3.6,4.9,44,0.00,,---,0.00,VWS V14.01,2013-05-08 15:43:00,
2013-05-08 10:44:00,79.5,55.7,30.15,WSW,242,2.7,4.0,44,0.00,,---,0.00,VWS V14.01,2013-05-08 15:44:00,
2013-05-08 10:45:00,79.0,55.2,30.15,West,263,5.8,5.8,44,0.00,,---,0.00,VWS V14.01,2013-05-08 15:45:00,
2013-05-08 10:46:00,78.8,55.7,30.15,SW,226,0.0,3.1,45,0.00,,---,0.00,VWS V14.01,2013-05-08 15:46:00,
2013-05-08 10:47:00,78.6,56.1,30.15,WSW,258,3.6,4.0,46,0.00,,---,0.00,VWS V14.01,2013-05-08 15:47:00,
2013-05-08 10:48:00,78.3,55.8,30.15,NNW,334,3.6,4.0,46,0.00,,---,0.00,VWS V14.01,2013-05-08 15:48:00,
2013-05-08 10:49:00,78.3,55.8,30.15,NW,308,2.7,5.4,46,0.00,,---,0.00,VWS V14.01,2013-05-08 15:49:00,
2013-05-08 10:50:00,78.1,55.6,30.15,West,265,4.0,6.3,46,0.00,,---,0.00,VWS V14.01,2013-05-08 15:50:00,
2013-05-08 10:51:00,77.9,56.1,30.15,West,264,2.2,2.2,47,0.00,,---,0.00,VWS V14.01,2013-05-08 15:51:00,
2013-05-08 10:52:00,77.9,56.1,30.15,WSW,242,3.1,6.3,47,0.00,,---,0.00,VWS V14.01,2013-05-08 15:52:00,
2013-05-08 10:53:00,78.1,56.2,30.15,SSW,208,2.7,6.3,47,0.00,,---,0.00,VWS V14.01,2013-05-08 15:53:00,
2013-05-08 10:54:00,78.8,56.3,30.15,SW,231,6.3,6.3,46,0.00,,---,0.00,VWS V14.01,2013-05-08 15:54:00,
2013-05-08 10:55:00,78.6,55.5,30.15,West,272,5.8,6.3,45,0.00,,---,0.00,VWS V14.01,2013-05-08 15:55:00,
2013-05-08 10:56:00,79.3,56.2,30.15,West,269,5.8,5.8,45,0.00,,---,0.00,VWS V14.01,2013-05-08 15:56:00,
2013-05-08 10:57:00,79.3,56.2,30.15,WSW,248,4.9,5.8,45,0.00,,---,0.00,VWS V14.01,2013-05-08 15:57:00,
2013-05-08 10:58:00,79.2,55.4,30.15,WNW,284,2.7,4.9,44,0.00,,---,0.00,VWS V14.01,2013-05-08 15:58:00,
2013-05-08 10:59:00,79.3,55.6,30.15,WNW,283,3.6,3.6,44,0.00,,---,0.00,VWS V14.01,2013-05-08 15:59:00,
2013-05-08 11:00:00,79.3,56.2,30.15,SW,226,3.1,4.0,45,0.00,,---,0.00,VWS V14.01,2013-05-08 16:00:00,
2013-05-08 11:01:00,79.9,56.7,30.18,WSW,238,2.7,3.6,45,0.00,,---,0.00,VWS V14.01,2013-05-08 16:01:00,
2013-05-08 11:02:00,79.9,56.0,30.18,South,179,4.0,6.3,44,0.00,,---,0.00,VWS V14.01,2013-05-08 16:02:00,
2013-05-08 11:03:00,79.5,55.1,30.18,SW,233,4.5,7.6,43,0.00,,---,0.00,VWS V14.01,2013-05-08 16:03:00,
2013-05-08 11:04:00,79.3,55.6,30.18,SW,232,3.1,4.5,44,0.00,,---,0.00,VWS V14.01,2013-05-08 16:04:00,
2013-05-08 11:05:00,79.3,55.6,30.18,WNW,282,2.7,3.6,44,0.00,,---,0.00,VWS V14.01,2013-05-08 16:05:00,
2013-05-08 11:06:00,79.3,55.6,30.18,SSE,164,3.6,3.6,44,0.00,,---,0.00,VWS V14.01,2013-05-08 16:06:00,
2013-05-08 11:07:00,79.5,55.7,30.18,SW,220,2.7,5.8,44,0.00,,---,0.00,VWS V14.01,2013-05-08 16:07:00,
2013-05-08 11:08:00,79.7,55.9,30.18,South,173,4.0,4.9,44,0.00,,---,0.00,VWS V14.01,2013-05-08 16:08:00,
2013-05-08 11:09:00,79.5,55.7,30.18,SW,225,5.4,5.8,44,0.00,,---,0.00,VWS V14.01,2013-05-08 16:09:00,
2013-05-08 11:10:00,79.5,55.1,30.18,SE,142,7.6,7.6,43,0.00,,---,0.00,VWS V14.01,2013-05-08 16:10:00,
2013-05-08 11:11:00,79.2,54.8,30.18,SSE,158,4.0,4.0,43,0.00,,---,0.00,VWS V14.01,2013-05-08 16:11:00,
2013-05-08 11:12:00,79.2,54.8,30.18,South,170,6.3,6.3,43,0.00,,---,0.00,VWS V14.01,2013-05-08 16:12:00,
2013-05-08 11:13:00,78.8,55.1,30.18,West,259,5.4,6.3,44,0.00,,---,0.00,VWS V14.01,2013-05-08 16:13:00,
2013-05-08 11:14:00,78.6,55.5,30.18,SSE,149,4.0,5.4,45,0.00,,---,0.00,VWS V14.01,2013-05-08 16:14:00,
2013-05-08 11:15:00,78.8,55.7,30.18,South,178,2.7,4.9,45,0.00,,---,0.00,VWS V14.01,2013-05-08 16:15:00,
2013-05-08 11:16:00,78.8,55.7,30.15,SW,234,4.0,4.0,45,0.00,,---,0.00,VWS V14.01,2013-05-08 16:16:00,
2013-05-08 11:17:00,78.6,55.5,30.15,SW,231,4.0,4.9,45,0.00,,---,0.00,VWS V14.01,2013-05-08 16:17:00,
2013-05-08 11:18:00,78.4,55.4,30.15,SE,132,5.4,5.4,45,0.00,,---,0.00,VWS V14.01,2013-05-08 16:18:00,
2013-05-08 11:19:00,78.3,55.2,30.15,WSW,242,3.6,5.4,45,0.00,,---,0.00,VWS V14.01,2013-05-08 16:19:00,
2013-05-08 11:20:00,78.3,55.2,30.15,WSW,254,2.2,4.0,45,0.00,,---,0.00,VWS V14.01,2013-05-08 16:20:00,
2013-05-08 11:21:00,78.1,55.0,30.15,SSW,205,3.1,3.1,45,0.00,,---,0.00,VWS V14.01,2013-05-08 16:21:00,
2013-05-08 11:22:00,78.1,55.0,30.15,West,261,2.7,3.1,45,0.00,,---,0.00,VWS V14.01,2013-05-08 16:22:00,
2013-05-08 11:23:00,78.1,55.0,30.15,WNW,284,3.6,5.8,45,0.00,,---,0.00,VWS V14.01,2013-05-08 16:23:00,
2013-05-08 11:24:00,78.1,55.0,30.15,SSE,148,4.0,5.4,45,0.00,,---,0.00,VWS V14.01,2013-05-08 16:24:00,
2013-05-08 11:25:00,78.1,55.0,30.15,WSW,246,3.6,4.9,45,0.00,,---,0.00,VWS V14.01,2013-05-08 16:25:00,
2013-05-08 11:26:00,78.1,55.0,30.15,WSW,245,3.1,3.1,45,0.00,,---,0.00,VWS V14.01,2013-05-08 16:26:00,
2013-05-08 11:27:00,78.3,55.2,30.15,WNW,288,2.7,4.0,45,0.00,,---,0.00,VWS V14.01,2013-05-08 16:27:00,
2013-05-08 11:28:00,78.3,54.6,30.15,WSW,244,2.7,3.6,44,0.00,,---,0.00,VWS V14.01,2013-05-08 16:28:00,
2013-05-08 11:29:00,78.6,54.9,30.15,SSW,198,2.7,5.8,44,0.00,,---,0.00,VWS V14.01,2013-05-08 16:29:00,
2013-05-08 11:30:00,78.6,54.9,30.15,West,263,5.4,5.4,44,0.00,,---,0.00,VWS V14.01,2013-05-08 16:30:00,
2013-05-08 11:31:00,78.8,54.4,30.15,SSW,195,5.8,5.8,43,0.00,,---,0.00,VWS V14.01,2013-05-08 16:31:00,
2013-05-08 11:32:00,78.6,54.9,30.15,SSW,202,2.7,5.8,44,0.00,,---,0.00,VWS V14.01,2013-05-08 16:32:00,
2013-05-08 11:33:00,78.6,54.9,30.15,SW,230,2.7,5.8,44,0.00,,---,0.00,VWS V14.01,2013-05-08 16:33:00,
2013-05-08 11:34:00,78.4,54.7,30.15,WSW,252,4.9,4.9,44,0.00,,---,0.00,VWS V14.01,2013-05-08 16:34:00,
2013-05-08 11:35:00,78.3,54.6,30.15,WSW,249,4.0,4.9,44,0.00,,---,0.00,VWS V14.01,2013-05-08 16:35:00,
2013-05-08 11:36:00,77.9,54.3,30.15,SSW,198,4.9,4.9,44,0.00,,---,0.00,VWS V14.01,2013-05-08 16:36:00,
2013-05-08 11:37:00,77.9,54.3,30.15,SSW,195,4.0,5.8,44,0.00,,---,0.00,VWS V14.01,2013-05-08 16:37:00,
2013-05-08 11:38:00,77.7,54.7,30.15,SSE,154,6.7,6.7,45,0.00,,---,0.00,VWS V14.01,2013-05-08 16:38:00,
2013-05-08 11:39:00,77.5,54.5,30.15,SW,233,5.4,6.7,45,0.00,,---,0.00,VWS V14.01,2013-05-08 16:39:00,
2013-05-08 11:40:00,77.5,54.5,30.15,SSW,192,5.8,6.7,45,0.00,,---,0.00,VWS V14.01,2013-05-08 16:40:00,
2013-05-08 11:41:00,77.2,54.2,30.15,South,190,3.6,3.6,45,0.00,,---,0.00,VWS V14.01,2013-05-08 16:41:00,
2013-05-08 11:42:00,77.0,54.7,30.15,South,185,2.7,4.0,46,0.00,,---,0.00,VWS V14.01,2013-05-08 16:42:00,
2013-05-08 11:43:00,77.0,54.7,30.15,South,183,5.8,5.8,46,0.00,,---,0.00,VWS V14.01,2013-05-08 16:43:00,
2013-05-08 11:44:00,77.0,54.7,30.15,SW,226,3.6,5.8,46,0.00,,---,0.00,VWS V14.01,2013-05-08 16:44:00,
2013-05-08 11:45:00,76.8,54.5,30.15,SW,235,2.7,8.3,46,0.00,,---,0.00,VWS V14.01,2013-05-08 16:45:00,
2013-05-08 11:46:00,76.8,54.5,30.15,SSW,199,4.0,5.8,46,0.00,,---,0.00,VWS V14.01,2013-05-08 16:46:00,
2013-05-08 11:47:00,76.8,54.5,30.15,South,174,4.0,5.8,46,0.00,,---,0.00,VWS V14.01,2013-05-08 16:47:00,
2013-05-08 11:48:00,77.0,54.7,30.15,SW,219,4.5,4.9,46,0.00,,---,0.00,VWS V14.01,2013-05-08 16:48:00,
2013-05-08 11:49:00,77.2,54.8,30.15,SW,215,3.1,4.9,46,0.00,,---,0.00,VWS V14.01,2013-05-08 16:49:00,
2013-05-08 11:50:00,77.2,54.8,30.15,SSW,211,0.0,4.0,46,0.00,,---,0.00,VWS V14.01,2013-05-08 16:50:00,
2013-05-08 11:51:00,77.4,55.0,30.15,West,260,3.6,5.8,46,0.00,,---,0.00,VWS V14.01,2013-05-08 16:51:00,
2013-05-08 11:52:00,77.4,55.0,30.15,SW,222,3.6,5.8,46,0.00,,---,0.00,VWS V14.01,2013-05-08 16:52:00,
2013-05-08 11:53:00,77.2,54.8,30.15,WSW,243,4.9,7.6,46,0.00,,---,0.00,VWS V14.01,2013-05-08 16:53:00,
2013-05-08 11:54:00,77.2,54.8,30.15,SW,230,2.2,4.9,46,0.00,,---,0.00,VWS V14.01,2013-05-08 16:54:00,
2013-05-08 11:55:00,77.2,54.8,30.15,SW,215,3.1,3.6,46,0.00,,---,0.00,VWS V14.01,2013-05-08 16:55:00,
2013-05-08 11:56:00,77.2,54.8,30.15,SSW,206,3.1,3.1,46,0.00,,---,0.00,VWS V14.01,2013-05-08 16:56:00,
2013-05-08 11:57:00,77.4,55.0,30.15,NW,326,2.7,3.6,46,0.00,,---,0.00,VWS V14.01,2013-05-08 16:57:00,
2013-05-08 11:58:00,77.4,54.4,30.15,SW,232,3.6,3.6,45,0.00,,---,0.00,VWS V14.01,2013-05-08 16:58:00,
2013-05-08 11:59:00,77.4,55.0,30.15,West,259,2.7,3.6,46,0.00,,---,0.00,VWS V14.01,2013-05-08 16:59:00,
2013-05-08 12:00:00,77.4,54.4,30.15,South,171,5.8,5.8,45,0.00,,---,0.00,VWS V14.01,2013-05-08 17:00:00,
2013-05-08 12:01:00,77.4,53.8,30.15,South,191,2.7,3.6,44,0.00,,---,0.00,VWS V14.01,2013-05-08 17:01:00,
2013-05-08 12:02:00,78.3,54.6,30.15,SW,224,5.4,5.4,44,0.00,,---,0.00,VWS V14.01,2013-05-08 17:02:00,
2013-05-08 12:03:00,77.9,54.3,30.15,SSW,201,3.1,6.3,44,0.00,,---,0.00,VWS V14.01,2013-05-08 17:03:00,
2013-05-08 12:04:00,77.9,54.9,30.15,SW,225,0.0,3.1,45,0.00,,---,0.00,VWS V14.01,2013-05-08 17:04:00,
2013-05-08 12:05:00,77.9,54.3,30.15,SSW,198,3.1,5.8,44,0.00,,---,0.00,VWS V14.01,2013-05-08 17:05:00,
2013-05-08 12:06:00,77.7,54.1,30.15,SSW,207,3.1,3.6,44,0.00,,---,0.00,VWS V14.01,2013-05-08 17:06:00,
2013-05-08 12:07:00,77.7,54.1,30.15,SSW,196,5.4,5.4,44,0.00,,---,0.00,VWS V14.01,2013-05-08 17:07:00,
2013-05-08 12:08:00,77.4,53.1,30.15,SSW,204,5.8,8.3,43,0.00,,---,0.00,VWS V14.01,2013-05-08 17:08:00,
2013-05-08 12:09:00,77.4,53.1,30.15,WNW,284,2.7,6.3,43,0.00,,---,0.00,VWS V14.01,2013-05-08 17:09:00,
2013-05-08 12:10:00,77.5,53.9,30.15,WNW,302,3.1,3.1,44,0.00,,---,0.00,VWS V14.01,2013-05-08 17:10:00,
2013-05-08 12:11:00,77.5,53.3,30.15,West,274,3.1,5.8,43,0.00,,---,0.00,VWS V14.01,2013-05-08 17:11:00,
2013-05-08 12:12:00,77.7,53.5,30.15,SSE,151,5.8,5.8,43,0.00,,---,0.00,VWS V14.01,2013-05-08 17:12:00,
2013-05-08 12:13:00,77.7,53.5,30.15,SW,235,2.7,5.8,43,0.00,,---,0.00,VWS V14.01,2013-05-08 17:13:00,
2013-05-08 12:14:00,77.7,54.1,30.15,SSW,200,5.8,5.8,44,0.00,,---,0.00,VWS V14.01,2013-05-08 17:14:00,
2013-05-08 12:15:00,77.7,53.5,30.15,South,171,3.6,8.1,43,0.00,,---,0.00,VWS V14.01,2013-05-08 17:15:00,
2013-05-08 12:16:00,77.7,53.5,30.15,South,183,3.6,3.6,43,0.00,,---,0.00,VWS V14.01,2013-05-08 17:16:00,
2013-05-08 12:17:00,78.1,53.8,30.15,SSE,158,4.0,4.0,43,0.00,,---,0.00,VWS V14.01,2013-05-08 17:17:00,
2013-05-08 12:18:00,78.1,53.8,30.15,SE,129,5.8,5.8,43,0.00,,---,0.00,VWS V14.01,2013-05-08 17:18:00,
2013-05-08 12:19:00,78.3,53.3,30.15,SSW,198,4.9,5.8,42,0.00,,---,0.00,VWS V14.01,2013-05-08 17:19:00,
2013-05-08 12:20:00,78.3,54.0,30.15,West,259,0.0,4.9,43,0.00,,---,0.00,VWS V14.01,2013-05-08 17:20:00,
2013-05-08 12:21:00,79.2,54.1,30.15,West,260,3.6,3.6,42,0.00,,---,0.00,VWS V14.01,2013-05-08 17:21:00,
2013-05-08 12:22:00,79.3,54.3,30.15,SSW,209,2.7,4.9,42,0.00,,---,0.00,VWS V14.01,2013-05-08 17:22:00,
2013-05-08 12:23:00,79.2,53.5,30.15,SW,215,4.0,5.4,41,0.00,,---,0.00,VWS V14.01,2013-05-08 17:23:00,
2013-05-08 12:24:00,79.3,53.6,30.15,WSW,257,4.0,5.4,41,0.00,,---,0.00,VWS V14.01,2013-05-08 17:24:00,
2013-05-08 12:25:00,79.3,54.3,30.15,West,263,3.1,4.0,42,0.00,,---,0.00,VWS V14.01,2013-05-08 17:25:00,
2013-05-08 12:26:00,79.5,54.4,30.15,West,269,3.6,3.6,42,0.00,,---,0.00,VWS V14.01,2013-05-08 17:26:00,
2013-05-08 12:27:00,79.7,54.6,30.15,SW,232,4.0,4.0,42,0.00,,---,0.00,VWS V14.01,2013-05-08 17:27:00,
2013-05-08 12:28:00,79.5,54.4,30.15,SSW,192,5.4,6.7,42,0.00,,---,0.00,VWS V14.01,2013-05-08 17:28:00,
2013-05-08 12:29:00,79.5,54.4,30.15,SW,217,4.9,6.3,42,0.00,,---,0.00,VWS V14.01,2013-05-08 17:29:00,
2013-05-08 12:30:00,79.5,54.4,30.15,SW,233,3.1,4.9,42,0.00,,---,0.00,VWS V14.01,2013-05-08 17:30:00,
2013-05-08 12:31:00,79.5,54.4,30.15,SE,145,4.0,4.0,42,0.00,,---,0.00,VWS V14.01,2013-05-08 17:31:00,
2013-05-08 12:32:00,79.2,54.1,30.15,WSW,249,5.4,7.2,42,0.00,,---,0.00,VWS V14.01,2013-05-08 17:32:00,
2013-05-08 12:33:00,79.2,54.1,30.15,SSW,196,4.9,5.8,42,0.00,,---,0.00,VWS V14.01,2013-05-08 17:33:00,
2013-05-08 12:34:00,79.3,53.6,30.15,South,183,3.1,4.9,41,0.00,,---,0.00,VWS V14.01,2013-05-08 17:34:00,
2013-05-08 12:35:00,80.2,54.4,30.15,SE,146,4.9,6.3,41,0.00,,---,0.00,VWS V14.01,2013-05-08 17:35:00,
2013-05-08 12:36:00,80.8,54.9,30.15,West,265,2.7,3.6,41,0.00,,---,0.00,VWS V14.01,2013-05-08 17:36:00,
2013-05-08 12:37:00,80.6,54.8,30.15,SW,235,5.4,5.4,41,0.00,,---,0.00,VWS V14.01,2013-05-08 17:37:00,
2013-05-08 12:38:00,80.6,54.1,30.15,SSE,168,4.0,5.4,40,0.00,,---,0.00,VWS V14.01,2013-05-08 17:38:00,
2013-05-08 12:39:00,81.1,55.2,30.15,West,259,0.0,4.0,41,0.00,,---,0.00,VWS V14.01,2013-05-08 17:39:00,
2013-05-08 12:40:00,81.5,54.9,30.15,SW,225,3.6,3.6,40,0.00,,---,0.00,VWS V14.01,2013-05-08 17:40:00,
2013-05-08 12:41:00,81.5,54.9,30.15,South,176,2.7,2.7,40,0.00,,---,0.00,VWS V14.01,2013-05-08 17:41:00,
2013-05-08 12:42:00,81.5,54.2,30.15,WNW,286,3.1,4.0,39,0.00,,---,0.00,VWS V14.01,2013-05-08 17:42:00,
2013-05-08 12:43:00,81.5,54.2,30.15,SW,231,3.1,4.9,39,0.00,,---,0.00,VWS V14.01,2013-05-08 17:43:00,
2013-05-08 12:44:00,81.7,54.3,30.15,SSW,194,0.0,3.1,39,0.00,,---,0.00,VWS V14.01,2013-05-08 17:44:00,
2013-05-08 12:45:00,82.2,55.5,30.15,SSW,195,0.0,2.7,40,0.00,,---,0.00,VWS V14.01,2013-05-08 17:45:00,
2013-05-08 12:46:00,82.8,55.3,30.15,West,259,4.9,4.9,39,0.00,,---,0.00,VWS V14.01,2013-05-08 17:46:00,
2013-05-08 12:47:00,82.4,53.5,30.15,WSW,255,4.9,5.4,37,0.00,,---,0.00,VWS V14.01,2013-05-08 17:47:00,
2013-05-08 12:48:00,81.9,53.8,30.15,WNW,297,3.1,4.9,38,0.00,,---,0.00,VWS V14.01,2013-05-08 17:48:00,
2013-05-08 12:49:00,81.7,53.6,30.15,WNW,284,0.0,3.1,38,0.00,,---,0.00,VWS V14.01,2013-05-08 17:49:00,
2013-05-08 12:50:00,81.7,54.3,30.15,SSE,150,5.8,5.8,39,0.00,,---,0.00,VWS V14.01,2013-05-08 17:50:00,
2013-05-08 12:51:00,81.3,54.0,30.15,SSW,202,5.8,5.8,39,0.00,,---,0.00,VWS V14.01,2013-05-08 17:51:00,
2013-05-08 12:52:00,81.0,53.0,30.15,SW,229,5.8,6.3,38,0.00,,---,0.00,VWS V14.01,2013-05-08 17:52:00,
2013-05-08 12:53:00,81.0,53.7,30.15,WSW,245,3.1,5.8,39,0.00,,---,0.00,VWS V14.01,2013-05-08 17:53:00,
2013-05-08 12:54:00,81.0,53.7,30.15,WSW,250,4.0,5.8,39,0.00,,---,0.00,VWS V14.01,2013-05-08 17:54:00,
2013-05-08 12:55:00,82.0,54.0,30.15,WSW,254,3.6,4.0,38,0.00,,---,0.00,VWS V14.01,2013-05-08 17:55:00,
2013-05-08 12:56:00,83.1,55.6,30.15,WSW,238,2.7,2.7,39,0.00,,---,0.00,VWS V14.01,2013-05-08 17:56:00,
2013-05-08 12:57:00,83.1,54.2,30.15,SSE,160,3.6,7.6,37,0.00,,---,0.00,VWS V14.01,2013-05-08 17:57:00,
2013-05-08 12:58:00,83.1,53.4,30.15,South,184,6.3,8.1,36,0.00,,---,0.00,VWS V14.01,2013-05-08 17:58:00,
2013-05-08 12:59:00,83.8,54.1,30.15,South,180,4.9,6.3,36,0.00,,---,0.00,VWS V14.01,2013-05-08 17:59:00,
2013-05-08 13:00:00,84.2,54.4,30.15,SSE,153,4.9,5.4,36,0.00,,---,0.00,VWS V14.01,2013-05-08 18:00:00,
2013-05-08 13:01:00,84.7,54.9,30.15,SW,230,3.6,3.6,36,0.00,,---,0.00,VWS V14.01,2013-05-08 18:01:00,
2013-05-08 13:02:00,84.2,54.4,30.15,South,173,3.6,5.8,36,0.00,,---,0.00,VWS V14.01,2013-05-08 18:02:00,
2013-05-08 13:03:00,83.8,54.1,30.15,SSE,159,5.8,8.1,36,0.00,,---,0.00,VWS V14.01,2013-05-08 18:03:00,
2013-05-08 13:04:00,84.9,54.2,30.15,SSE,166,3.6,5.8,35,0.00,,---,0.00,VWS V14.01,2013-05-08 18:04:00,
2013-05-08 13:05:00,84.9,53.5,30.15,WSW,247,3.6,5.4,34,0.00,,---,0.00,VWS V14.01,2013-05-08 18:05:00,
2013-05-08 13:06:00,84.2,53.6,30.15,South,170,5.8,5.8,35,0.00,,---,0.00,VWS V14.01,2013-05-08 18:06:00,
2013-05-08 13:07:00,84.2,52.8,30.15,SW,236,5.4,7.6,34,0.00,,---,0.00,VWS V14.01,2013-05-08 18:07:00,
2013-05-08 13:08:00,84.2,53.6,30.15,WSW,239,5.8,5.8,35,0.00,,---,0.00,VWS V14.01,2013-05-08 18:08:00,
2013-05-08 13:09:00,84.2,53.6,30.15,SSE,167,3.1,5.8,35,0.00,,---,0.00,VWS V14.01,2013-05-08 18:09:00,
2013-05-08 13:10:00,84.7,52.5,30.15,SSE,166,7.6,7.6,33,0.00,,---,0.00,VWS V14.01,2013-05-08 18:10:00,
2013-05-08 13:11:00,83.3,52.0,30.15,SSW,201,3.1,3.1,34,0.00,,---,0.00,VWS V14.01,2013-05-08 18:11:00,
2013-05-08 13:12:00,83.1,52.7,30.15,South,169,6.3,6.3,35,0.00,,---,0.00,VWS V14.01,2013-05-08 18:12:00,
2013-05-08 13:13:00,83.3,52.8,30.15,South,179,4.0,6.3,35,0.00,,---,0.00,VWS V14.01,2013-05-08 18:13:00,
2013-05-08 13:14:00,83.3,52.0,30.15,SSE,157,3.6,7.2,34,0.00,,---,0.00,VWS V14.01,2013-05-08 18:14:00,
2013-05-08 13:15:00,83.8,53.3,30.15,West,269,2.7,4.9,35,0.00,,---,0.00,VWS V14.01,2013-05-08 18:15:00,
2013-05-08 13:16:00,84.2,52.8,30.15,West,267,2.7,5.4,34,0.00,,---,0.00,VWS V14.01,2013-05-08 18:16:00,
2013-05-08 13:17:00,84.9,53.5,30.15,WSW,239,2.7,5.4,34,0.00,,---,0.00,VWS V14.01,2013-05-08 18:17:00,
2013-05-08 13:18:00,85.3,53.8,30.15,WSW,253,3.6,4.0,34,0.00,,---,0.00,VWS V14.01,2013-05-08 18:18:00,
2013-05-08 13:19:00,85.6,53.3,30.15,SSW,194,5.8,5.8,33,0.00,,---,0.00,VWS V14.01,2013-05-08 18:19:00,
2013-05-08 13:20:00,85.5,51.4,30.15,SW,232,5.8,5.8,31,0.00,,---,0.00,VWS V14.01,2013-05-08 18:20:00,
2013-05-08 13:21:00,85.3,52.1,30.15,SW,215,2.7,2.7,32,0.00,,---,0.00,VWS V14.01,2013-05-08 18:21:00,
2013-05-08 13:22:00,85.1,52.0,30.15,WSW,239,3.1,4.9,32,0.00,,---,0.00,VWS V14.01,2013-05-08 18:22:00,
2013-05-08 13:23:00,85.8,53.4,30.15,SSE,153,3.6,3.6,33,0.00,,---,0.00,VWS V14.01,2013-05-08 18:23:00,
2013-05-08 13:24:00,86.0,52.7,30.15,WNW,294,4.0,4.0,32,0.00,,---,0.00,VWS V14.01,2013-05-08 18:24:00,
2013-05-08 13:25:00,86.0,52.7,30.15,NW,314,3.1,6.7,32,0.00,,---,0.00,VWS V14.01,2013-05-08 18:25:00,
2013-05-08 13:26:00,85.6,52.4,30.15,SSE,156,6.3,8.3,32,0.00,,---,0.00,VWS V14.01,2013-05-08 18:26:00,
2013-05-08 13:27:00,85.3,52.1,30.15,SSW,198,4.0,8.3,32,0.00,,---,0.00,VWS V14.01,2013-05-08 18:27:00,
2013-05-08 13:28:00,85.3,52.1,30.15,West,275,3.6,6.3,32,0.00,,---,0.00,VWS V14.01,2013-05-08 18:28:00,
2013-05-08 13:29:00,85.3,52.1,30.15,SSE,163,4.9,5.4,32,0.00,,---,0.00,VWS V14.01,2013-05-08 18:29:00,
2013-05-08 13:30:00,85.5,52.3,30.15,WSW,249,6.3,6.3,32,0.00,,---,0.00,VWS V14.01,2013-05-08 18:30:00,
2013-05-08 13:31:00,85.8,53.4,30.15,WSW,254,3.1,6.3,33,0.00,,---,0.00,VWS V14.01,2013-05-08 18:31:00,
2013-05-08 13:32:00,86.2,52.9,30.15,West,269,4.0,4.0,32,0.00,,---,0.00,VWS V14.01,2013-05-08 18:32:00,
2013-05-08 13:33:00,86.5,54.0,30.15,WSW,249,5.4,5.4,33,0.00,,---,0.00,VWS V14.01,2013-05-08 18:33:00,
2013-05-08 13:34:00,86.7,53.4,30.15,South,169,3.1,5.4,32,0.00,,---,0.00,VWS V14.01,2013-05-08 18:34:00,
2013-05-08 13:35:00,86.7,53.4,30.15,WNW,294,4.0,4.9,32,0.00,,---,0.00,VWS V14.01,2013-05-08 18:35:00,
2013-05-08 13:36:00,85.8,52.6,30.15,WSW,254,4.0,6.3,32,0.00,,---,0.00,VWS V14.01,2013-05-08 18:36:00,
2013-05-08 13:37:00,85.1,52.0,30.15,WSW,246,5.4,6.3,32,0.00,,---,0.00,VWS V14.01,2013-05-08 18:37:00,
2013-05-08 13:38:00,84.0,51.8,30.15,South,190,3.6,5.4,33,0.00,,---,0.00,VWS V14.01,2013-05-08 18:38:00,
2013-05-08 13:39:00,82.9,50.9,30.15,SSW,209,2.7,6.3,33,0.00,,---,0.00,VWS V14.01,2013-05-08 18:39:00,
2013-05-08 13:40:00,82.8,50.8,30.15,West,267,2.7,3.1,33,0.00,,---,0.00,VWS V14.01,2013-05-08 18:40:00,
2013-05-08 13:41:00,82.2,51.1,30.15,West,270,4.9,4.9,34,0.00,,---,0.00,VWS V14.01,2013-05-08 18:41:00,
2013-05-08 13:42:00,82.4,50.4,30.15,WSW,239,3.1,4.9,33,0.00,,---,0.00,VWS V14.01,2013-05-08 18:42:00,
2013-05-08 13:43:00,83.1,51.1,30.15,SW,217,3.6,4.0,33,0.00,,---,0.00,VWS V14.01,2013-05-08 18:43:00,
2013-05-08 13:44:00,83.3,51.2,30.15,SSE,151,6.3,7.6,33,0.00,,---,0.00,VWS V14.01,2013-05-08 18:44:00,
2013-05-08 13:45:00,82.4,50.4,30.15,SSE,163,5.4,6.3,33,0.00,,---,0.00,VWS V14.01,2013-05-08 18:45:00,
2013-05-08 13:46:00,81.7,50.6,30.15,SSE,158,5.4,5.4,34,0.00,,---,0.00,VWS V14.01,2013-05-08 18:46:00,
2013-05-08 13:47:00,82.0,50.9,30.15,South,173,5.4,5.4,34,0.00,,---,0.00,VWS V14.01,2013-05-08 18:47:00,
2013-05-08 13:48:00,82.9,51.7,30.15,SSW,197,3.1,6.3,34,0.00,,---,0.00,VWS V14.01,2013-05-08 18:48:00,
2013-05-08 13:49:00,83.3,52.0,30.15,ENE,77,4.5,4.5,34,0.00,,---,0.00,VWS V14.01,2013-05-08 18:49:00,
2013-05-08 13:50:00,83.7,52.3,30.15,West,264,2.2,4.5,34,0.00,,---,0.00,VWS V14.01,2013-05-08 18:50:00,
2013-05-08 13:51:00,84.4,53.0,30.15,South,191,4.0,4.9,34,0.00,,---,0.00,VWS V14.01,2013-05-08 18:51:00,
2013-05-08 13:52:00,84.4,52.2,30.15,SW,221,5.8,5.8,33,0.00,,---,0.00,VWS V14.01,2013-05-08 18:52:00,
2013-05-08 13:53:00,84.0,51.0,30.15,SSW,194,4.9,8.3,32,0.00,,---,0.00,VWS V14.01,2013-05-08 18:53:00,
2013-05-08 13:54:00,84.0,51.8,30.15,SSE,154,3.1,4.9,33,0.00,,---,0.00,VWS V14.01,2013-05-08 18:54:00,
2013-05-08 13:55:00,83.8,51.7,30.15,South,178,4.0,6.3,33,0.00,,---,0.00,VWS V14.01,2013-05-08 18:55:00,
2013-05-08 13:56:00,84.4,52.2,30.15,NW,324,5.8,5.8,33,0.00,,---,0.00,VWS V14.01,2013-05-08 18:56:00,
2013-05-08 13:57:00,84.6,52.3,30.15,South,170,5.8,5.8,33,0.00,,---,0.00,VWS V14.01,2013-05-08 18:57:00,
2013-05-08 13:58:00,84.2,51.2,30.15,South,189,3.6,8.3,32,0.00,,---,0.00,VWS V14.01,2013-05-08 18:58:00,
2013-05-08 13:59:00,84.0,51.8,30.15,SW,217,8.7,8.7,33,0.00,,---,0.00,VWS V14.01,2013-05-08 18:59:00,
2013-05-08 14:00:00,84.2,51.2,30.15,SW,226,2.2,8.7,32,0.00,,---,0.00,VWS V14.01,2013-05-08 19:00:00,
2013-05-08 14:01:00,83.7,51.5,30.15,SSE,166,3.6,3.6,33,0.00,,---,0.00,VWS V14.01,2013-05-08 19:01:00,
2013-05-08 14:02:00,83.3,51.2,30.15,SSE,151,3.6,5.8,33,0.00,,---,0.00,VWS V14.01,2013-05-08 19:02:00,
2013-05-08 14:03:00,83.1,51.1,30.15,West,268,2.7,3.6,33,0.00,,---,0.00,VWS V14.01,2013-05-08 19:03:00,
2013-05-08 14:04:00,83.5,51.4,30.15,SSE,165,8.7,8.7,33,0.00,,---,0.00,VWS V14.01,2013-05-08 19:04:00,
2013-05-08 14:05:00,83.3,51.2,30.15,SW,216,5.8,8.7,33,0.00,,---,0.00,VWS V14.01,2013-05-08 19:05:00,
2013-05-08 14:06:00,83.1,51.1,30.15,South,190,7.6,7.6,33,0.00,,---,0.00,VWS V14.01,2013-05-08 19:06:00,
2013-05-08 14:07:00,83.1,51.1,30.15,SSE,149,3.6,7.6,33,0.00,,---,0.00,VWS V14.01,2013-05-08 19:07:00,
2013-05-08 14:08:00,83.1,51.1,30.15,South,191,3.1,5.8,33,0.00,,---,0.00,VWS V14.01,2013-05-08 19:08:00,
2013-05-08 14:09:00,83.7,51.5,30.15,SSE,165,4.0,5.4,33,0.00,,---,0.00,VWS V14.01,2013-05-08 19:09:00,
2013-05-08 14:10:00,83.5,51.4,30.15,SSW,212,5.4,7.6,33,0.00,,---,0.00,VWS V14.01,2013-05-08 19:10:00,
2013-05-08 14:11:00,82.9,50.9,30.15,SSE,153,8.1,8.1,33,0.00,,---,0.00,VWS V14.01,2013-05-08 19:11:00,
2013-05-08 14:12:00,82.9,51.7,30.15,West,274,4.9,8.1,34,0.00,,---,0.00,VWS V14.01,2013-05-08 19:12:00,
2013-05-08 14:13:00,82.9,50.1,30.15,WSW,258,3.6,5.4,32,0.00,,---,0.00,VWS V14.01,2013-05-08 19:13:00,
2013-05-08 14:14:00,82.8,50.8,30.15,West,267,3.6,5.8,33,0.00,,---,0.00,VWS V14.01,2013-05-08 19:14:00,
2013-05-08 14:15:00,82.8,50.8,30.15,WSW,251,4.9,5.4,33,0.00,,---,0.00,VWS V14.01,2013-05-08 19:15:00,
2013-05-08 14:16:00,82.8,50.8,30.15,SW,223,3.1,5.4,33,0.00,,---,0.00,VWS V14.01,2013-05-08 19:16:00,
2013-05-08 14:17:00,82.8,50.8,30.15,SW,214,3.6,3.6,33,0.00,,---,0.00,VWS V14.01,2013-05-08 19:17:00,
2013-05-08 14:18:00,82.8,50.8,30.15,SE,146,4.9,4.9,33,0.00,,---,0.00,VWS V14.01,2013-05-08 19:18:00,
2013-05-08 14:19:00,82.4,51.2,30.15,South,187,8.7,8.7,34,0.00,,---,0.00,VWS V14.01,2013-05-08 19:19:00,
2013-05-08 14:20:00,82.2,51.1,30.15,South,178,5.4,8.7,34,0.00,,---,0.00,VWS V14.01,2013-05-08 19:20:00,
2013-05-08 14:21:00,82.0,50.9,30.15,South,189,5.4,5.4,34,0.00,,---,0.00,VWS V14.01,2013-05-08 19:21:00,
2013-05-08 14:22:00,82.2,51.1,30.15,WSW,247,2.2,5.4,34,0.00,,---,0.00,VWS V14.01,2013-05-08 19:22:00,
2013-05-08 14:23:00,82.2,51.1,30.15,SSE,147,5.4,8.1,34,0.00,,---,0.00,VWS V14.01,2013-05-08 19:23:00,
2013-05-08 14:24:00,81.3,49.5,30.15,WNW,297,3.6,6.3,33,0.00,,---,0.00,VWS V14.01,2013-05-08 19:24:00,
2013-05-08 14:25:00,81.1,50.1,30.15,SW,233,3.6,4.0,34,0.00,,---,0.00,VWS V14.01,2013-05-08 19:25:00,
2013-05-08 14:26:00,81.3,51.1,30.15,SW,223,5.8,5.8,35,0.00,,---,0.00,VWS V14.01,2013-05-08 19:26:00,
2013-05-08 14:27:00,81.5,51.2,30.15,SSW,204,3.6,6.3,35,0.00,,---,0.00,VWS V14.01,2013-05-08 19:27:00,
2013-05-08 14:28:00,81.3,51.1,30.15,SSE,168,8.1,8.7,35,0.00,,---,0.00,VWS V14.01,2013-05-08 19:28:00,
2013-05-08 14:29:00,81.1,50.9,30.15,South,187,5.8,8.1,35,0.00,,---,0.00,VWS V14.01,2013-05-08 19:29:00,
2013-05-08 14:30:00,81.0,50.8,30.15,South,171,3.6,5.8,35,0.00,,---,0.00,VWS V14.01,2013-05-08 19:30:00,
2013-05-08 14:31:00,81.0,51.5,30.15,SW,226,5.4,6.7,36,0.00,,---,0.00,VWS V14.01,2013-05-08 19:31:00,
2013-05-08 14:32:00,81.0,51.5,30.15,SSE,152,3.1,6.7,36,0.00,,---,0.00,VWS V14.01,2013-05-08 19:32:00,
2013-05-08 14:33:00,81.3,52.6,30.15,South,177,2.2,3.6,37,0.00,,---,0.00,VWS V14.01,2013-05-08 19:33:00,
2013-05-08 14:34:00,81.7,52.9,30.15,WNW,284,5.8,5.8,37,0.00,,---,0.00,VWS V14.01,2013-05-08 19:34:00,
2013-05-08 14:35:00,82.0,54.0,30.15,West,260,2.7,5.8,38,0.00,,---,0.00,VWS V14.01,2013-05-08 19:35:00,
2013-05-08 14:36:00,82.0,53.2,30.15,WSW,247,4.0,4.0,37,0.00,,---,0.00,VWS V14.01,2013-05-08 19:36:00,
2013-05-08 14:37:00,81.3,51.8,30.15,West,270,3.6,6.3,36,0.00,,---,0.00,VWS V14.01,2013-05-08 19:37:00,
2013-05-08 14:38:00,81.1,50.9,30.15,West,278,3.6,5.4,35,0.00,,---,0.00,VWS V14.01,2013-05-08 19:38:00,
2013-05-08 14:39:00,81.1,50.1,30.15,WNW,292,3.6,3.6,34,0.00,,---,0.00,VWS V14.01,2013-05-08 19:39:00,
2013-05-08 14:40:00,81.3,51.1,30.15,SW,225,5.8,5.8,35,0.00,,---,0.00,VWS V14.01,2013-05-08 19:40:00,
2013-05-08 14:41:00,81.5,51.2,30.15,SE,131,3.6,3.6,35,0.00,,---,0.00,VWS V14.01,2013-05-08 19:41:00,
2013-05-08 14:42:00,81.5,50.5,30.15,South,184,3.1,5.4,34,0.00,,---,0.00,VWS V14.01,2013-05-08 19:42:00,
2013-05-08 14:43:00,81.7,51.4,30.15,West,264,2.7,5.4,35,0.00,,---,0.00,VWS V14.01,2013-05-08 19:43:00,
2013-05-08 14:44:00,81.9,50.8,30.15,WNW,282,3.6,3.6,34,0.00,,---,0.00,VWS V14.01,2013-05-08 19:44:00,
2013-05-08 14:45:00,82.0,50.9,30.15,South,180,8.7,8.7,34,0.00,,---,0.00,VWS V14.01,2013-05-08 19:45:00,
2013-05-08 14:46:00,82.0,50.1,30.12,SSW,192,8.7,8.7,33,0.00,,---,0.00,VWS V14.01,2013-05-08 19:46:00,
2013-05-08 14:47:00,81.9,50.0,30.12,South,185,5.8,8.7,33,0.00,,---,0.00,VWS V14.01,2013-05-08 19:47:00,
2013-05-08 14:48:00,81.9,50.0,30.12,South,191,4.0,5.8,33,0.00,,---,0.00,VWS V14.01,2013-05-08 19:48:00,
2013-05-08 14:49:00,82.2,50.3,30.12,West,280,2.2,4.0,33,0.00,,---,0.00,VWS V14.01,2013-05-08 19:49:00,
2013-05-08 14:50:00,82.4,50.4,30.12,West,271,3.6,5.4,33,0.00,,---,0.00,VWS V14.01,2013-05-08 19:50:00,
2013-05-08 14:51:00,82.6,50.6,30.12,WSW,243,3.6,3.6,33,0.00,,---,0.00,VWS V14.01,2013-05-08 19:51:00,
2013-05-08 14:52:00,82.6,50.6,30.12,SSE,168,4.0,4.9,33,0.00,,---,0.00,VWS V14.01,2013-05-08 19:52:00,
2013-05-08 14:53:00,82.4,51.2,30.12,SSW,197,3.1,4.0,34,0.00,,---,0.00,VWS V14.01,2013-05-08 19:53:00,
2013-05-08 14:54:00,82.6,51.4,30.12,SW,214,3.1,5.8,34,0.00,,---,0.00,VWS V14.01,2013-05-08 19:54:00,
2013-05-08 14:55:00,83.1,51.9,30.12,South,171,3.1,3.6,34,0.00,,---,0.00,VWS V14.01,2013-05-08 19:55:00,
2013-05-08 14:56:00,82.9,51.7,30.12,South,176,0.0,5.4,34,0.00,,---,0.00,VWS V14.01,2013-05-08 19:56:00,
2013-05-08 14:57:00,82.9,51.7,30.12,South,188,5.8,5.8,34,0.00,,---,0.00,VWS V14.01,2013-05-08 19:57:00,
2013-05-08 14:58:00,82.8,52.3,30.12,South,172,5.8,6.3,35,0.00,,---,0.00,VWS V14.01,2013-05-08 19:58:00,
2013-05-08 14:59:00,82.6,52.2,30.12,SSW,207,3.6,6.3,35,0.00,,---,0.00,VWS V14.01,2013-05-08 19:59:00,
2013-05-08 15:00:00,82.4,52.8,30.12,SSW,194,4.9,8.1,36,0.00,,---,0.00,VWS V14.01,2013-05-08 20:00:00,
2013-05-08 15:01:00,82.4,53.5,30.12,SE,138,3.1,4.9,37,0.00,,---,0.00,VWS V14.01,2013-05-08 20:01:00,
2013-05-08 15:02:00,82.4,54.3,30.12,WSW,252,4.0,4.0,38,0.00,,---,0.00,VWS V14.01,2013-05-08 20:02:00,
2013-05-08 15:03:00,82.6,54.4,30.12,SSE,149,3.1,4.0,38,0.00,,---,0.00,VWS V14.01,2013-05-08 20:03:00,
2013-05-08 15:04:00,82.8,54.6,30.12,SSE,166,2.7,3.1,38,0.00,,---,0.00,VWS V14.01,2013-05-08 20:04:00,
2013-05-08 15:05:00,82.8,54.6,30.12,NW,319,3.6,3.6,38,0.00,,---,0.00,VWS V14.01,2013-05-08 20:05:00,
2013-05-08 15:06:00,82.8,53.1,30.12,WNW,282,3.1,5.8,36,0.00,,---,0.00,VWS V14.01,2013-05-08 20:06:00,
2013-05-08 15:07:00,82.8,53.1,30.12,WSW,246,2.2,5.4,36,0.00,,---,0.00,VWS V14.01,2013-05-08 20:07:00,
2013-05-08 15:08:00,82.9,53.3,30.12,SSW,209,4.9,4.9,36,0.00,,---,0.00,VWS V14.01,2013-05-08 20:08:00,
2013-05-08 15:09:00,82.8,52.3,30.12,West,266,3.1,6.3,35,0.00,,---,0.00,VWS V14.01,2013-05-08 20:09:00,
2013-05-08 15:10:00,82.8,50.8,30.12,WNW,283,6.3,6.3,33,0.00,,---,0.00,VWS V14.01,2013-05-08 20:10:00,
2013-05-08 15:11:00,82.8,51.6,30.12,SW,214,5.8,6.3,34,0.00,,---,0.00,VWS V14.01,2013-05-08 20:11:00,
2013-05-08 15:12:00,82.8,51.6,30.12,SW,224,4.9,5.8,34,0.00,,---,0.00,VWS V14.01,2013-05-08 20:12:00,
2013-05-08 15:13:00,82.4,51.2,30.12,WNW,293,3.1,6.3,34,0.00,,---,0.00,VWS V14.01,2013-05-08 20:13:00,
2013-05-08 15:14:00,82.4,51.2,30.12,SSW,213,3.6,3.6,34,0.00,,---,0.00,VWS V14.01,2013-05-08 20:14:00,
2013-05-08 15:15:00,82.6,51.4,30.12,SSW,204,2.7,3.6,34,0.00,,---,0.00,VWS V14.01,2013-05-08 20:15:00,
2013-05-08 15:16:00,82.4,51.2,30.12,SW,217,6.3,6.3,34,0.00,,---,0.00,VWS V14.01,2013-05-08 20:16:00,
2013-05-08 15:17:00,82.2,51.1,30.12,SW,235,2.7,3.6,34,0.00,,---,0.00,VWS V14.01,2013-05-08 20:17:00,
2013-05-08 15:18:00,82.0,50.9,30.12,WSW,254,3.6,4.5,34,0.00,,---,0.00,VWS V14.01,2013-05-08 20:18:00,
2013-05-08 15:19:00,82.0,51.7,30.12,SW,220,2.7,7.6,35,0.00,,---,0.00,VWS V14.01,2013-05-08 20:19:00,
2013-05-08 15:20:00,81.5,50.5,30.12,West,278,3.1,5.8,34,0.00,,---,0.00,VWS V14.01,2013-05-08 20:20:00,
2013-05-08 15:21:00,81.3,50.3,30.12,West,280,3.6,3.6,34,0.00,,---,0.00,VWS V14.01,2013-05-08 20:21:00,
2013-05-08 15:22:00,81.5,50.5,30.12,West,261,4.9,4.9,34,0.00,,---,0.00,VWS V14.01,2013-05-08 20:22:00,
2013-05-08 15:23:00,81.5,50.5,30.12,West,266,4.0,4.9,34,0.00,,---,0.00,VWS V14.01,2013-05-08 20:23:00,
2013-05-08 15:24:00,81.5,50.5,30.12,West,262,4.9,5.8,34,0.00,,---,0.00,VWS V14.01,2013-05-08 20:24:00,
2013-05-08 15:25:00,81.5,50.5,30.12,WSW,240,2.7,4.9,34,0.00,,---,0.00,VWS V14.01,2013-05-08 20:25:00,
2013-05-08 15:26:00,81.5,50.5,30.12,SW,233,5.8,5.8,34,0.00,,---,0.00,VWS V14.01,2013-05-08 20:26:00,
2013-05-08 15:27:00,81.3,50.3,30.12,SW,231,3.6,6.3,34,0.00,,---,0.00,VWS V14.01,2013-05-08 20:27:00,
2013-05-08 15:28:00,81.3,49.5,30.12,SSE,167,2.7,4.0,33,0.00,,---,0.00,VWS V14.01,2013-05-08 20:28:00,
2013-05-08 15:29:00,81.1,50.1,30.12,SW,223,3.6,4.9,34,0.00,,---,0.00,VWS V14.01,2013-05-08 20:29:00,
2013-05-08 15:30:00,81.0,50.0,30.12,NW,305,2.7,6.3,34,0.00,,---,0.00,VWS V14.01,2013-05-08 20:30:00,
2013-05-08 15:31:00,81.0,50.8,30.12,SSE,164,4.0,5.4,35,0.00,,---,0.00,VWS V14.01,2013-05-08 20:31:00,
2013-05-08 15:32:00,81.0,50.8,30.12,South,170,0.0,5.4,35,0.00,,---,0.00,VWS V14.01,2013-05-08 20:32:00,
2013-05-08 15:33:00,80.8,50.6,30.12,West,278,3.1,3.6,35,0.00,,---,0.00,VWS V14.01,2013-05-08 20:33:00,
2013-05-08 15:34:00,80.6,50.5,30.12,WSW,254,3.1,3.1,35,0.00,,---,0.00,VWS V14.01,2013-05-08 20:34:00,
2013-05-08 15:35:00,80.8,51.4,30.12,SW,231,5.4,7.6,36,0.00,,---,0.00,VWS V14.01,2013-05-08 20:35:00,
2013-05-08 15:36:00,80.6,51.2,30.12,SSW,195,5.4,5.4,36,0.00,,---,0.00,VWS V14.01,2013-05-08 20:36:00,
2013-05-08 15:37:00,80.8,52.1,30.12,SE,138,5.8,6.3,37,0.00,,---,0.00,VWS V14.01,2013-05-08 20:37:00,
2013-05-08 15:38:00,80.1,50.7,30.12,South,172,5.4,8.7,36,0.00,,---,0.00,VWS V14.01,2013-05-08 20:38:00,
2013-05-08 15:39:00,80.1,51.5,30.12,West,264,3.1,6.3,37,0.00,,---,0.00,VWS V14.01,2013-05-08 20:39:00,
2013-05-08 15:40:00,80.4,52.5,30.12,WSW,248,2.2,4.0,38,0.00,,---,0.00,VWS V14.01,2013-05-08 20:40:00,
2013-05-08 15:41:00,80.4,52.5,30.12,WSW,248,2.2,4.0,38,0.00,,---,0.00,VWS V14.01,2013-05-08 20:41:00,
2013-05-08 15:42:00,80.6,51.2,30.12,WSW,244,5.4,5.4,36,0.00,,---,0.00,VWS V14.01,2013-05-08 20:42:00,
2013-05-08 15:43:00,80.8,51.4,30.12,SW,235,4.9,6.3,36,0.00,,---,0.00,VWS V14.01,2013-05-08 20:43:00,
2013-05-08 15:44:00,80.8,50.6,30.12,SW,222,4.0,4.9,35,0.00,,---,0.00,VWS V14.01,2013-05-08 20:44:00,
2013-05-08 15:45:00,81.0,50.0,30.12,SSW,207,6.3,6.3,34,0.00,,---,0.00,VWS V14.01,2013-05-08 20:45:00,
2013-05-08 15:46:00,81.0,50.0,30.12,West,269,4.9,6.3,34,0.00,,---,0.00,VWS V14.01,2013-05-08 20:46:00,
2013-05-08 15:47:00,81.0,50.0,30.12,WSW,238,2.7,4.9,34,0.00,,---,0.00,VWS V14.01,2013-05-08 20:47:00,
2013-05-08 15:48:00,81.1,50.9,30.12,SW,223,2.7,4.0,35,0.00,,---,0.00,VWS V14.01,2013-05-08 20:48:00,
2013-05-08 15:49:00,81.0,50.0,30.12,SW,223,4.0,5.4,34,0.00,,---,0.00,VWS V14.01,2013-05-08 20:49:00,
2013-05-08 15:50:00,81.0,49.2,30.12,South,169,4.0,4.0,33,0.00,,---,0.00,VWS V14.01,2013-05-08 20:50:00,
2013-05-08 15:51:00,80.8,49.8,30.12,South,169,4.0,4.0,34,0.00,,---,0.00,VWS V14.01,2013-05-08 20:51:00,
2013-05-08 15:52:00,80.8,49.8,30.12,WNW,290,2.2,6.3,34,0.00,,---,0.00,VWS V14.01,2013-05-08 20:52:00,
2013-05-08 15:53:00,81.3,51.1,30.12,WSW,243,3.1,6.3,35,0.00,,---,0.00,VWS V14.01,2013-05-08 20:53:00,
2013-05-08 15:54:00,81.3,51.1,30.12,SW,235,4.0,4.9,35,0.00,,---,0.00,VWS V14.01,2013-05-08 20:54:00,
2013-05-08 15:55:00,81.5,52.0,30.12,SW,233,3.1,4.0,36,0.00,,---,0.00,VWS V14.01,2013-05-08 20:55:00,
2013-05-08 15:56:00,81.5,51.2,30.12,SW,230,6.3,7.6,35,0.00,,---,0.00,VWS V14.01,2013-05-08 20:56:00,
2013-05-08 15:57:00,81.0,50.0,30.12,SSE,148,5.4,8.7,34,0.00,,---,0.00,VWS V14.01,2013-05-08 20:57:00,
2013-05-08 15:58:00,80.8,50.6,30.12,South,183,3.6,6.3,35,0.00,,---,0.00,VWS V14.01,2013-05-08 20:58:00,
2013-05-08 15:59:00,80.8,50.6,30.12,SW,231,3.6,3.6,35,0.00,,---,0.00,VWS V14.01,2013-05-08 20:59:00,
2013-05-08 16:00:00,81.0,50.8,30.12,SSE,154,3.1,3.6,35,0.00,,---,0.00,VWS V14.01,2013-05-08 21:00:00,
2013-05-08 16:01:00,81.0,50.8,30.12,South,186,5.8,5.8,35,0.00,,---,0.00,VWS V14.01,2013-05-08 21:01:00,
2013-05-08 16:02:00,80.8,50.6,30.12,SW,218,3.6,5.4,35,0.00,,---,0.00,VWS V14.01,2013-05-08 21:02:00,
2013-05-08 16:03:00,80.6,50.5,30.12,SSE,165,3.6,6.3,35,0.00,,---,0.00,VWS V14.01,2013-05-08 21:03:00,
2013-05-08 16:04:00,80.6,50.5,30.12,SW,214,3.6,4.0,35,0.00,,---,0.00,VWS V14.01,2013-05-08 21:04:00,
2013-05-08 16:05:00,80.6,50.5,30.12,South,171,3.6,3.6,35,0.00,,---,0.00,VWS V14.01,2013-05-08 21:05:00,
2013-05-08 16:06:00,80.8,49.8,30.12,SW,226,3.6,3.6,34,0.00,,---,0.00,VWS V14.01,2013-05-08 21:06:00,
2013-05-08 16:07:00,80.8,50.6,30.12,South,176,5.4,5.4,35,0.00,,---,0.00,VWS V14.01,2013-05-08 21:07:00,
2013-05-08 16:08:00,80.8,51.4,30.12,SSW,192,3.6,5.8,36,0.00,,---,0.00,VWS V14.01,2013-05-08 21:08:00,
2013-05-08 16:09:00,80.6,50.5,30.12,SSW,213,6.3,8.7,35,0.00,,---,0.00,VWS V14.01,2013-05-08 21:09:00,
2013-05-08 16:10:00,80.4,51.8,30.12,SW,228,5.4,6.3,37,0.00,,---,0.00,VWS V14.01,2013-05-08 21:10:00,
2013-05-08 16:11:00,80.6,51.2,30.12,SW,228,5.4,6.3,36,0.00,,---,0.00,VWS V14.01,2013-05-08 21:11:00,
2013-05-08 16:12:00,80.6,51.2,30.12,WSW,247,3.6,6.7,36,0.00,,---,0.00,VWS V14.01,2013-05-08 21:12:00,
2013-05-08 16:13:00,80.6,51.2,30.12,West,276,4.0,5.4,36,0.00,,---,0.00,VWS V14.01,2013-05-08 21:13:00,
2013-05-08 16:14:00,80.8,51.4,30.12,SE,145,5.4,5.4,36,0.00,,---,0.00,VWS V14.01,2013-05-08 21:14:00,
2013-05-08 16:15:00,80.6,50.5,30.12,SW,235,4.0,6.7,35,0.00,,---,0.00,VWS V14.01,2013-05-08 21:15:00,
2013-05-08 16:16:00,80.6,50.5,30.09,SW,235,4.0,6.7,35,0.00,,---,0.00,VWS V14.01,2013-05-08 21:16:00,
2013-05-08 16:17:00,80.8,51.4,30.09,SW,230,2.2,4.0,36,0.00,,---,0.00,VWS V14.01,2013-05-08 21:17:00,
2013-05-08 16:18:00,81.0,52.3,30.09,SSW,199,5.4,5.8,37,0.00,,---,0.00,VWS V14.01,2013-05-08 21:18:00,
2013-05-08 16:19:00,81.0,52.3,30.09,NNW,331,3.6,5.4,37,0.00,,---,0.00,VWS V14.01,2013-05-08 21:19:00,
2013-05-08 16:20:00,80.6,52.0,30.09,SSW,192,6.3,6.3,37,0.00,,---,0.00,VWS V14.01,2013-05-08 21:20:00,
2013-05-08 16:21:00,80.6,52.0,30.09,SW,219,4.5,6.3,37,0.00,,---,0.00,VWS V14.01,2013-05-08 21:21:00,
2013-05-08 16:22:00,80.4,51.8,30.09,SW,226,0.0,5.8,37,0.00,,---,0.00,VWS V14.01,2013-05-08 21:22:00,
2013-05-08 16:23:00,80.6,52.7,30.09,SSE,160,0.0,0.0,38,0.00,,---,0.00,VWS V14.01,2013-05-08 21:23:00,
2013-05-08 16:24:00,80.6,52.7,30.09,SSE,157,4.0,4.0,38,0.00,,---,0.00,VWS V14.01,2013-05-08 21:24:00,
2013-05-08 16:25:00,80.4,52.5,30.09,WSW,248,3.6,3.6,38,0.00,,---,0.00,VWS V14.01,2013-05-08 21:25:00,
2013-05-08 16:26:00,80.4,52.5,30.09,WSW,255,0.0,3.6,38,0.00,,---,0.00,VWS V14.01,2013-05-08 21:26:00,
2013-05-08 16:27:00,80.6,52.0,30.09,SW,234,4.0,6.7,37,0.00,,---,0.00,VWS V14.01,2013-05-08 21:27:00,
2013-05-08 16:28:00,80.6,51.2,30.09,WSW,243,5.4,5.4,36,0.00,,---,0.00,VWS V14.01,2013-05-08 21:28:00,
2013-05-08 16:29:00,80.4,51.0,30.09,SSE,159,5.8,5.8,36,0.00,,---,0.00,VWS V14.01,2013-05-08 21:29:00,
2013-05-08 16:30:00,80.6,52.0,30.09,WSW,258,3.6,5.4,37,0.00,,---,0.00,VWS V14.01,2013-05-08 21:30:00,
2013-05-08 16:31:00,80.6,52.0,30.09,WSW,249,2.7,5.4,37,0.00,,---,0.00,VWS V14.01,2013-05-08 21:31:00,
2013-05-08 16:32:00,80.6,52.0,30.09,West,264,2.7,3.6,37,0.00,,---,0.00,VWS V14.01,2013-05-08 21:32:00,
2013-05-08 16:33:00,80.6,52.0,30.09,NW,308,3.1,3.1,37,0.00,,---,0.00,VWS V14.01,2013-05-08 21:33:00,
2013-05-08 16:34:00,80.8,52.1,30.09,WSW,258,4.5,4.5,37,0.00,,---,0.00,VWS V14.01,2013-05-08 21:34:00,
2013-05-08 16:35:00,80.8,52.1,30.09,West,279,2.7,3.6,37,0.00,,---,0.00,VWS V14.01,2013-05-08 21:35:00,
2013-05-08 16:36:00,80.8,52.1,30.09,West,279,2.7,3.6,37,0.00,,---,0.00,VWS V14.01,2013-05-08 21:36:00,
2013-05-08 16:37:00,80.8,52.1,30.09,South,182,3.6,4.0,37,0.00,,---,0.00,VWS V14.01,2013-05-08 21:37:00,
2013-05-08 16:38:00,80.8,52.1,30.09,NW,305,5.8,5.8,37,0.00,,---,0.00,VWS V14.01,2013-05-08 21:38:00,
2013-05-08 16:39:00,80.8,52.1,30.09,WSW,250,4.9,5.8,37,0.00,,---,0.00,VWS V14.01,2013-05-08 21:39:00,
2013-05-08 16:40:00,80.8,52.1,30.09,WSW,237,2.7,4.0,37,0.00,,---,0.00,VWS V14.01,2013-05-08 21:40:00,
2013-05-08 16:41:00,80.8,52.1,30.09,WSW,237,0.0,4.0,37,0.00,,---,0.00,VWS V14.01,2013-05-08 21:41:00,
2013-05-08 16:42:00,80.8,51.4,30.09,SE,138,5.4,5.4,36,0.00,,---,0.00,VWS V14.01,2013-05-08 21:42:00,
2013-05-08 16:43:00,80.2,50.9,30.09,SSE,164,5.8,5.8,36,0.00,,---,0.00,VWS V14.01,2013-05-08 21:43:00,
2013-05-08 16:44:00,80.2,51.6,30.09,SSW,204,5.4,5.8,37,0.00,,---,0.00,VWS V14.01,2013-05-08 21:44:00,
2013-05-08 16:45:00,79.7,51.2,30.09,South,179,2.7,7.6,37,0.00,,---,0.00,VWS V14.01,2013-05-08 21:45:00,
2013-05-08 16:46:00,79.7,51.2,30.09,South,179,2.7,7.6,37,0.00,,---,0.00,VWS V14.01,2013-05-08 21:46:00,
2013-05-08 16:47:00,79.9,52.0,30.09,West,265,0.0,2.7,38,0.00,,---,0.00,VWS V14.01,2013-05-08 21:47:00,
2013-05-08 16:48:00,80.1,52.2,30.09,WSW,254,3.1,4.0,38,0.00,,---,0.00,VWS V14.01,2013-05-08 21:48:00,
2013-05-08 16:49:00,80.4,53.2,30.09,SW,229,3.6,3.6,39,0.00,,---,0.00,VWS V14.01,2013-05-08 21:49:00,
2013-05-08 16:50:00,80.6,52.7,30.09,SSE,164,4.0,4.0,38,0.00,,---,0.00,VWS V14.01,2013-05-08 21:50:00,
2013-05-08 16:51:00,80.6,52.7,30.09,South,174,7.6,7.6,38,0.00,,---,0.00,VWS V14.01,2013-05-08 21:51:00,
2013-05-08 16:52:00,80.8,52.1,30.09,SW,235,6.3,8.7,37,0.00,,---,0.00,VWS V14.01,2013-05-08 21:52:00,
2013-05-08 16:53:00,80.6,51.2,30.09,West,268,5.4,7.6,36,0.00,,---,0.00,VWS V14.01,2013-05-08 21:53:00,
2013-05-08 16:54:00,80.6,52.0,30.09,South,185,6.3,6.3,37,0.00,,---,0.00,VWS V14.01,2013-05-08 21:54:00,
2013-05-08 16:55:00,80.2,51.6,30.09,SSE,167,4.9,5.4,37,0.00,,---,0.00,VWS V14.01,2013-05-08 21:55:00,
2013-05-08 16:56:00,80.2,52.3,30.09,South,171,3.6,5.4,38,0.00,,---,0.00,VWS V14.01,2013-05-08 21:56:00,
2013-05-08 16:57:00,80.4,52.5,30.09,South,184,2.7,3.6,38,0.00,,---,0.00,VWS V14.01,2013-05-08 21:57:00,
2013-05-08 16:58:00,80.2,52.3,30.09,South,172,3.1,6.7,38,0.00,,---,0.00,VWS V14.01,2013-05-08 21:58:00,
2013-05-08 16:59:00,80.2,52.3,30.09,SSE,158,4.9,4.9,38,0.00,,---,0.00,VWS V14.01,2013-05-08 21:59:00,
2013-05-08 17:00:00,80.1,52.9,30.09,SSW,211,4.9,4.9,39,0.00,,---,0.00,VWS V14.01,2013-05-08 22:00:00,
2013-05-08 17:01:00,80.1,52.9,30.09,SW,216,4.0,4.9,39,0.00,,---,0.00,VWS V14.01,2013-05-08 22:01:00,
2013-05-08 17:02:00,80.2,53.1,30.09,SW,226,3.6,5.4,39,0.00,,---,0.00,VWS V14.01,2013-05-08 22:02:00,
2013-05-08 17:03:00,80.2,52.3,30.09,SSW,200,5.4,5.4,38,0.00,,---,0.00,VWS V14.01,2013-05-08 22:03:00,
2013-05-08 17:04:00,80.4,52.5,30.09,SW,220,3.1,5.8,38,0.00,,---,0.00,VWS V14.01,2013-05-08 22:04:00,
2013-05-08 17:05:00,80.6,51.2,30.09,NNW,342,2.7,3.1,36,0.00,,---,0.00,VWS V14.01,2013-05-08 22:05:00,
2013-05-08 17:06:00,80.6,51.2,30.09,NNW,342,2.7,3.1,36,0.00,,---,0.00,VWS V14.01,2013-05-08 22:06:00,
2013-05-08 17:07:00,81.0,51.5,30.09,NW,307,4.0,4.0,36,0.00,,---,0.00,VWS V14.01,2013-05-08 22:07:00,
2013-05-08 17:08:00,81.1,51.7,30.09,West,262,2.7,7.2,36,0.00,,---,0.00,VWS V14.01,2013-05-08 22:08:00,
2013-05-08 17:09:00,81.5,52.0,30.09,SSW,212,0.0,2.7,36,0.00,,---,0.00,VWS V14.01,2013-05-08 22:09:00,
2013-05-08 17:10:00,81.3,51.8,30.09,South,186,4.0,9.6,36,0.00,,---,0.00,VWS V14.01,2013-05-08 22:10:00,
2013-05-08 17:11:00,81.3,51.8,30.09,South,186,4.0,9.6,36,0.00,,---,0.00,VWS V14.01,2013-05-08 22:11:00,
2013-05-08 17:12:00,81.1,51.7,30.09,SSW,213,6.3,6.3,36,0.00,,---,0.00,VWS V14.01,2013-05-08 22:12:00,
2013-05-08 17:13:00,81.1,51.7,30.09,SSW,192,2.7,6.3,36,0.00,,---,0.00,VWS V14.01,2013-05-08 22:13:00,
2013-05-08 17:14:00,81.3,51.8,30.09,SW,236,6.3,6.3,36,0.00,,---,0.00,VWS V14.01,2013-05-08 22:14:00,
2013-05-08 17:15:00,81.0,51.5,30.09,South,180,4.0,8.1,36,0.00,,---,0.00,VWS V14.01,2013-05-08 22:15:00,
2013-05-08 17:16:00,81.0,51.5,30.09,SSE,166,6.3,8.1,36,0.00,,---,0.00,VWS V14.01,2013-05-08 22:16:00,
2013-05-08 17:17:00,80.8,51.4,30.09,SW,223,2.7,6.3,36,0.00,,---,0.00,VWS V14.01,2013-05-08 22:17:00,
2013-05-08 17:18:00,80.8,51.4,30.09,WSW,245,2.2,2.7,36,0.00,,---,0.00,VWS V14.01,2013-05-08 22:18:00,
2013-05-08 17:19:00,80.8,51.4,30.09,SSW,193,6.3,8.1,36,0.00,,---,0.00,VWS V14.01,2013-05-08 22:19:00,
2013-05-08 17:20:00,80.2,51.6,30.09,SSW,196,7.6,7.6,37,0.00,,---,0.00,VWS V14.01,2013-05-08 22:20:00,
2013-05-08 17:21:00,80.2,51.6,30.09,SSE,167,5.4,7.6,37,0.00,,---,0.00,VWS V14.01,2013-05-08 22:21:00,
2013-05-08 17:22:00,80.1,52.2,30.09,South,170,5.8,7.6,38,0.00,,---,0.00,VWS V14.01,2013-05-08 22:22:00,
2013-05-08 17:23:00,80.1,52.2,30.09,SSE,161,6.3,8.1,38,0.00,,---,0.00,VWS V14.01,2013-05-08 22:23:00,
2013-05-08 17:24:00,79.7,51.9,30.09,SSE,168,5.8,7.6,38,0.00,,---,0.00,VWS V14.01,2013-05-08 22:24:00,
2013-05-08 17:25:00,79.7,52.6,30.09,WNW,285,5.4,6.3,39,0.00,,---,0.00,VWS V14.01,2013-05-08 22:25:00,
2013-05-08 17:26:00,79.7,52.6,30.09,ESE,112,3.1,6.3,39,0.00,,---,0.00,VWS V14.01,2013-05-08 22:26:00,
2013-05-08 17:27:00,79.7,52.6,30.09,SW,226,4.0,4.0,39,0.00,,---,0.00,VWS V14.01,2013-05-08 22:27:00,
2013-05-08 17:28:00,79.9,53.4,30.09,SSE,153,4.0,4.0,40,0.00,,---,0.00,VWS V14.01,2013-05-08 22:28:00,
2013-05-08 17:29:00,79.9,53.4,30.09,West,264,3.1,4.0,40,0.00,,---,0.00,VWS V14.01,2013-05-08 22:29:00,
2013-05-08 17:30:00,79.7,53.3,30.09,SSE,164,3.1,5.4,40,0.00,,---,0.00,VWS V14.01,2013-05-08 22:30:00,
2013-05-08 17:31:00,79.7,53.3,30.09,South,184,7.6,7.6,40,0.00,,---,0.00,VWS V14.01,2013-05-08 22:31:00,
2013-05-08 17:32:00,79.5,52.4,30.09,SSW,207,5.4,7.6,39,0.00,,---,0.00,VWS V14.01,2013-05-08 22:32:00,
2013-05-08 17:33:00,79.3,52.3,30.09,SSW,198,5.4,7.6,39,0.00,,---,0.00,VWS V14.01,2013-05-08 22:33:00,
2013-05-08 17:34:00,79.2,52.1,30.09,SW,216,2.7,5.4,39,0.00,,---,0.00,VWS V14.01,2013-05-08 22:34:00,
2013-05-08 17:35:00,79.2,52.8,30.09,SSW,204,2.7,3.6,40,0.00,,---,0.00,VWS V14.01,2013-05-08 22:35:00,
2013-05-08 17:36:00,79.2,52.8,30.09,SW,228,3.6,3.6,40,0.00,,---,0.00,VWS V14.01,2013-05-08 22:36:00,
2013-05-08 17:37:00,79.0,52.6,30.09,SSE,168,5.4,5.4,40,0.00,,---,0.00,VWS V14.01,2013-05-08 22:37:00,
2013-05-08 17:38:00,78.8,51.8,30.09,SSW,203,6.3,7.6,39,0.00,,---,0.00,VWS V14.01,2013-05-08 22:38:00,
2013-05-08 17:39:00,78.6,52.3,30.09,SSE,156,4.0,6.3,40,0.00,,---,0.00,VWS V14.01,2013-05-08 22:39:00,
2013-05-08 17:40:00,78.4,52.1,30.09,WSW,248,2.7,4.9,40,0.00,,---,0.00,VWS V14.01,2013-05-08 22:40:00,
2013-05-08 17:41:00,78.4,52.1,30.09,WNW,283,3.1,4.9,40,0.00,,---,0.00,VWS V14.01,2013-05-08 22:41:00,
2013-05-08 17:42:00,78.4,52.8,30.09,SSE,167,3.1,5.8,41,0.00,,---,0.00,VWS V14.01,2013-05-08 22:42:00,
2013-05-08 17:43:00,78.4,52.8,30.09,South,169,4.0,4.0,41,0.00,,---,0.00,VWS V14.01,2013-05-08 22:43:00,
2013-05-08 17:44:00,78.4,52.8,30.09,SSE,162,4.0,5.8,41,0.00,,---,0.00,VWS V14.01,2013-05-08 22:44:00,
2013-05-08 17:45:00,78.3,52.7,30.09,WNW,285,3.6,4.9,41,0.00,,---,0.00,VWS V14.01,2013-05-08 22:45:00,
2013-05-08 17:46:00,78.3,52.7,30.09,SW,232,3.1,4.9,41,0.00,,---,0.00,VWS V14.01,2013-05-08 22:46:00,
2013-05-08 17:47:00,78.4,52.8,30.09,NW,317,3.6,4.9,41,0.00,,---,0.00,VWS V14.01,2013-05-08 22:47:00,
2013-05-08 17:48:00,78.3,52.7,30.09,SE,145,3.1,4.0,41,0.00,,---,0.00,VWS V14.01,2013-05-08 22:48:00,
2013-05-08 17:49:00,78.1,52.5,30.09,SW,216,6.3,7.6,41,0.00,,---,0.00,VWS V14.01,2013-05-08 22:49:00,
2013-05-08 17:50:00,78.1,52.5,30.09,South,189,4.9,5.8,41,0.00,,---,0.00,VWS V14.01,2013-05-08 22:50:00,
2013-05-08 17:51:00,78.1,52.5,30.09,South,189,4.9,5.8,41,0.00,,---,0.00,VWS V14.01,2013-05-08 22:51:00,
2013-05-08 17:52:00,77.9,52.3,30.09,South,169,3.1,5.8,41,0.00,,---,0.00,VWS V14.01,2013-05-08 22:52:00,
2013-05-08 17:53:00,77.9,52.3,30.09,SSW,200,4.0,6.3,41,0.00,,---,0.00,VWS V14.01,2013-05-08 22:53:00,
2013-05-08 17:54:00,77.7,52.2,30.09,SSE,155,3.1,4.9,41,0.00,,---,0.00,VWS V14.01,2013-05-08 22:54:00,
2013-05-08 17:55:00,77.7,52.2,30.09,SSE,164,8.3,8.3,41,0.00,,---,0.00,VWS V14.01,2013-05-08 22:55:00,
2013-05-08 17:56:00,77.7,52.2,30.09,SSW,210,6.3,8.3,41,0.00,,---,0.00,VWS V14.01,2013-05-08 22:56:00,
2013-05-08 17:57:00,77.5,52.7,30.09,SSW,203,5.4,7.6,42,0.00,,---,0.00,VWS V14.01,2013-05-08 22:57:00,
2013-05-08 17:58:00,77.5,52.0,30.09,SSE,163,5.4,6.3,41,0.00,,---,0.00,VWS V14.01,2013-05-08 22:58:00,
2013-05-08 17:59:00,77.5,52.0,30.09,SE,142,4.0,6.3,41,0.00,,---,0.00,VWS V14.01,2013-05-08 22:59:00,
2013-05-08 18:00:00,77.5,52.7,30.09,SSW,195,2.7,4.0,42,0.00,,---,0.00,VWS V14.01,2013-05-08 23:00:00,
2013-05-08 18:01:00,77.4,52.5,30.09,SSW,195,2.7,4.0,42,0.00,,---,0.00,VWS V14.01,2013-05-08 23:01:00,
2013-05-08 18:02:00,77.5,52.7,30.09,SW,221,4.0,4.0,42,0.00,,---,0.00,VWS V14.01,2013-05-08 23:02:00,
2013-05-08 18:03:00,77.9,53.0,30.09,West,267,2.7,4.0,42,0.00,,---,0.00,VWS V14.01,2013-05-08 23:03:00,
2013-05-08 18:04:00,77.7,52.8,30.09,SSE,162,4.9,4.9,42,0.00,,---,0.00,VWS V14.01,2013-05-08 23:04:00,
2013-05-08 18:05:00,77.5,52.7,30.09,SE,144,5.4,5.8,42,0.00,,---,0.00,VWS V14.01,2013-05-08 23:05:00,
2013-05-08 18:06:00,77.5,52.7,30.09,WSW,248,4.0,5.8,42,0.00,,---,0.00,VWS V14.01,2013-05-08 23:06:00,
2013-05-08 18:07:00,77.4,53.1,30.09,SW,236,3.6,4.0,43,0.00,,---,0.00,VWS V14.01,2013-05-08 23:07:00,
2013-05-08 18:08:00,77.4,53.1,30.09,WSW,242,2.7,5.4,43,0.00,,---,0.00,VWS V14.01,2013-05-08 23:08:00,
2013-05-08 18:09:00,77.5,53.3,30.09,WSW,248,4.0,4.0,43,0.00,,---,0.00,VWS V14.01,2013-05-08 23:09:00,
2013-05-08 18:10:00,77.4,53.1,30.09,SW,235,7.6,8.1,43,0.00,,---,0.00,VWS V14.01,2013-05-08 23:10:00,
2013-05-08 18:11:00,77.4,53.1,30.09,SSE,163,5.4,8.1,43,0.00,,---,0.00,VWS V14.01,2013-05-08 23:11:00,
2013-05-08 18:12:00,77.2,53.0,30.09,SSE,151,4.9,5.4,43,0.00,,---,0.00,VWS V14.01,2013-05-08 23:12:00,
2013-05-08 18:13:00,77.2,53.0,30.09,South,175,5.4,5.4,43,0.00,,---,0.00,VWS V14.01,2013-05-08 23:13:00,
2013-05-08 18:14:00,77.0,53.4,30.09,South,171,5.8,6.3,44,0.00,,---,0.00,VWS V14.01,2013-05-08 23:14:00,
2013-05-08 18:15:00,76.8,53.3,30.09,South,186,5.4,6.3,44,0.00,,---,0.00,VWS V14.01,2013-05-08 23:15:00,
2013-05-08 18:16:00,76.8,53.3,30.09,SSW,198,4.0,6.3,44,0.00,,---,0.00,VWS V14.01,2013-05-08 23:16:00,
2013-05-08 18:17:00,76.8,53.3,30.09,South,177,5.4,5.4,44,0.00,,---,0.00,VWS V14.01,2013-05-08 23:17:00,
2013-05-08 18:18:00,76.8,53.9,30.09,SSW,196,6.3,6.3,45,0.00,,---,0.00,VWS V14.01,2013-05-08 23:18:00,
2013-05-08 18:19:00,76.8,53.3,30.09,East,86,3.1,6.3,44,0.00,,---,0.00,VWS V14.01,2013-05-08 23:19:00,
2013-05-08 18:20:00,76.6,53.7,30.09,WSW,246,4.0,4.0,45,0.00,,---,0.00,VWS V14.01,2013-05-08 23:20:00,
2013-05-08 18:21:00,76.6,53.7,30.09,SW,233,6.3,6.3,45,0.00,,---,0.00,VWS V14.01,2013-05-08 23:21:00,
2013-05-08 18:22:00,76.5,53.0,30.09,West,259,2.7,6.3,44,0.00,,---,0.00,VWS V14.01,2013-05-08 23:22:00,
2013-05-08 18:23:00,76.5,53.6,30.09,WSW,246,2.2,6.3,45,0.00,,---,0.00,VWS V14.01,2013-05-08 23:23:00,
2013-05-08 18:24:00,76.3,53.4,30.09,South,179,3.1,3.1,45,0.00,,---,0.00,VWS V14.01,2013-05-08 23:24:00,
2013-05-08 18:25:00,76.3,53.4,30.09,South,179,4.0,5.4,45,0.00,,---,0.00,VWS V14.01,2013-05-08 23:25:00,
2013-05-08 18:26:00,76.3,53.4,30.09,SSW,202,3.6,5.4,45,0.00,,---,0.00,VWS V14.01,2013-05-08 23:26:00,
2013-05-08 18:27:00,76.1,53.2,30.09,South,179,5.8,5.8,45,0.00,,---,0.00,VWS V14.01,2013-05-08 23:27:00,
2013-05-08 18:28:00,76.1,53.2,30.09,South,181,4.0,8.7,45,0.00,,---,0.00,VWS V14.01,2013-05-08 23:28:00,
2013-05-08 18:29:00,75.9,53.1,30.09,South,189,5.8,5.8,45,0.00,,---,0.00,VWS V14.01,2013-05-08 23:29:00,
2013-05-08 18:30:00,75.7,54.1,30.09,South,186,4.9,4.9,47,0.00,,---,0.00,VWS V14.01,2013-05-08 23:30:00,
2013-05-08 18:31:00,75.6,53.3,30.09,SSW,211,6.3,6.3,46,0.00,,---,0.00,VWS V14.01,2013-05-08 23:31:00,
2013-05-08 18:32:00,75.6,53.3,30.09,NW,305,4.9,6.3,46,0.00,,---,0.00,VWS V14.01,2013-05-08 23:32:00,
2013-05-08 18:33:00,75.6,53.3,30.09,SSE,168,3.1,4.9,46,0.00,,---,0.00,VWS V14.01,2013-05-08 23:33:00,
2013-05-08 18:34:00,75.6,53.3,30.09,SSE,165,3.6,4.9,46,0.00,,---,0.00,VWS V14.01,2013-05-08 23:34:00,
2013-05-08 18:35:00,75.4,52.6,30.09,South,171,4.9,7.6,45,0.00,,---,0.00,VWS V14.01,2013-05-08 23:35:00,
2013-05-08 18:36:00,75.4,52.6,30.09,South,173,8.1,8.1,45,0.00,,---,0.00,VWS V14.01,2013-05-08 23:36:00,
2013-05-08 18:37:00,75.4,52.6,30.09,SSW,200,3.1,8.1,45,0.00,,---,0.00,VWS V14.01,2013-05-08 23:37:00,
2013-05-08 18:38:00,75.4,52.6,30.09,SSE,155,3.1,3.1,45,0.00,,---,0.00,VWS V14.01,2013-05-08 23:38:00,
2013-05-08 18:39:00,75.2,52.4,30.09,South,188,3.1,5.4,45,0.00,,---,0.00,VWS V14.01,2013-05-08 23:39:00,
2013-05-08 18:40:00,75.2,53.0,30.09,South,171,4.0,4.0,46,0.00,,---,0.00,VWS V14.01,2013-05-08 23:40:00,
2013-05-08 18:41:00,75.2,52.4,30.09,SSW,198,5.8,5.8,45,0.00,,---,0.00,VWS V14.01,2013-05-08 23:41:00,
2013-05-08 18:42:00,75.0,52.9,30.09,South,181,3.6,3.6,46,0.00,,---,0.00,VWS V14.01,2013-05-08 23:42:00,
2013-05-08 18:43:00,75.0,52.9,30.09,South,173,5.4,8.7,46,0.00,,---,0.00,VWS V14.01,2013-05-08 23:43:00,
2013-05-08 18:44:00,74.8,52.7,30.09,South,182,5.8,5.8,46,0.00,,---,0.00,VWS V14.01,2013-05-08 23:44:00,
2013-05-08 18:45:00,74.8,52.7,30.09,SSW,206,2.7,7.6,46,0.00,,---,0.00,VWS V14.01,2013-05-08 23:45:00,
2013-05-08 18:46:00,74.7,52.5,30.09,South,171,6.3,6.3,46,0.00,,---,0.00,VWS V14.01,2013-05-08 23:46:00,
2013-05-08 18:47:00,74.7,52.5,30.09,SSW,205,5.4,6.3,46,0.00,,---,0.00,VWS V14.01,2013-05-08 23:47:00,
2013-05-08 18:48:00,74.7,53.1,30.09,South,189,3.6,5.4,47,0.00,,---,0.00,VWS V14.01,2013-05-08 23:48:00,
2013-05-08 18:49:00,74.7,53.1,30.09,SSE,150,0.0,3.6,47,0.00,,---,0.00,VWS V14.01,2013-05-08 23:49:00,
2013-05-08 18:50:00,75.0,53.4,30.09,SSE,158,2.7,4.0,47,0.00,,---,0.00,VWS V14.01,2013-05-08 23:50:00,
2013-05-08 18:51:00,74.8,53.3,30.09,WSW,252,7.6,7.6,47,0.00,,---,0.00,VWS V14.01,2013-05-08 23:51:00,
2013-05-08 18:52:00,74.7,53.7,30.09,SW,215,3.6,6.3,48,0.00,,---,0.00,VWS V14.01,2013-05-08 23:52:00,
2013-05-08 18:53:00,74.5,53.5,30.09,SW,229,4.0,6.3,48,0.00,,---,0.00,VWS V14.01,2013-05-08 23:53:00,
2013-05-08 18:54:00,74.5,53.5,30.09,SSE,167,0.0,4.0,48,0.00,,---,0.00,VWS V14.01,2013-05-08 23:54:00,
2013-05-08 18:55:00,74.3,53.9,30.09,South,189,7.6,7.6,49,0.00,,---,0.00,VWS V14.01,2013-05-08 23:55:00,
2013-05-08 18:56:00,74.3,53.9,30.09,SSE,168,3.1,7.6,49,0.00,,---,0.00,VWS V14.01,2013-05-08 23:56:00,
2013-05-08 18:57:00,74.1,53.8,30.09,SSW,196,6.3,6.3,49,0.00,,---,0.00,VWS V14.01,2013-05-08 23:57:00,
2013-05-08 18:58:00,74.1,54.3,30.09,SSW,211,8.1,8.1,50,0.00,,---,0.00,VWS V14.01,2013-05-08 23:58:00,
2013-05-08 18:59:00,74.1,54.3,30.09,SSE,167,6.7,8.1,50,0.00,,---,0.00,VWS V14.01,2013-05-08 23:59:00,
2013-05-08 19:00:00,74.1,54.3,30.09,WSW,248,3.6,6.7,50,0.00,,---,0.00,VWS V14.01,2013-05-09 00:00:00,
2013-05-08 19:01:00,73.9,54.2,30.09,SE,141,4.9,5.4,50,0.00,,---,0.00,VWS V14.01,2013-05-09 00:01:00,
2013-05-08 19:02:00,73.9,54.7,30.09,SW,219,4.0,5.4,51,0.00,,---,0.00,VWS V14.01,2013-05-09 00:02:00,
2013-05-08 19:03:00,73.9,54.7,30.09,SSW,207,0.0,5.4,51,0.00,,---,0.00,VWS V14.01,2013-05-09 00:03:00,
2013-05-08 19:04:00,73.8,54.5,30.09,South,190,4.9,4.9,51,0.00,,---,0.00,VWS V14.01,2013-05-09 00:04:00,
2013-05-08 19:05:00,73.8,55.1,30.09,WSW,246,2.2,4.9,52,0.00,,---,0.00,VWS V14.01,2013-05-09 00:05:00,
2013-05-08 19:06:00,73.8,55.1,30.09,SW,217,5.4,5.4,52,0.00,,---,0.00,VWS V14.01,2013-05-09 00:06:00,
2013-05-08 19:07:00,73.8,55.1,30.09,SW,226,4.5,5.4,52,0.00,,---,0.00,VWS V14.01,2013-05-09 00:07:00,
2013-05-08 19:08:00,73.8,55.1,30.09,SW,226,2.2,4.5,52,0.00,,---,0.00,VWS V14.01,2013-05-09 00:08:00,
2013-05-08 19:09:00,73.6,54.9,30.09,SSW,212,6.3,6.3,52,0.00,,---,0.00,VWS V14.01,2013-05-09 00:09:00,
2013-05-08 19:10:00,73.6,55.4,30.09,SSE,154,5.8,6.3,53,0.00,,---,0.00,VWS V14.01,2013-05-09 00:10:00,
2013-05-08 19:11:00,73.6,54.9,30.09,SE,142,5.4,5.8,52,0.00,,---,0.00,VWS V14.01,2013-05-09 00:11:00,
2013-05-08 19:12:00,73.6,54.9,30.09,SSW,196,3.1,7.6,52,0.00,,---,0.00,VWS V14.01,2013-05-09 00:12:00,
2013-05-08 19:13:00,73.6,54.9,30.09,SSW,206,4.0,5.8,52,0.00,,---,0.00,VWS V14.01,2013-05-09 00:13:00,
2013-05-08 19:14:00,73.4,54.7,30.09,SSW,202,5.8,6.3,52,0.00,,---,0.00,VWS V14.01,2013-05-09 00:14:00,
2013-05-08 19:15:00,73.4,54.7,30.09,SSW,204,3.6,5.8,52,0.00,,---,0.00,VWS V14.01,2013-05-09 00:15:00,
2013-05-08 19:16:00,73.4,54.7,30.09,WSW,246,0.0,4.0,52,0.00,,---,0.00,VWS V14.01,2013-05-09 00:16:00,
2013-05-08 19:17:00,73.2,55.1,30.09,West,263,3.6,3.6,53,0.00,,---,0.00,VWS V14.01,2013-05-09 00:17:00,
2013-05-08 19:18:00,73.2,55.6,30.09,South,172,4.0,7.6,54,0.00,,---,0.00,VWS V14.01,2013-05-09 00:18:00,
2013-05-08 19:19:00,73.2,56.1,30.09,SSW,209,5.4,5.4,55,0.00,,---,0.00,VWS V14.01,2013-05-09 00:19:00,
2013-05-08 19:20:00,73.2,56.1,30.09,SSW,196,3.6,5.4,55,0.00,,---,0.00,VWS V14.01,2013-05-09 00:20:00,
2013-05-08 19:21:00,73.0,55.9,30.09,SSW,202,3.6,3.6,55,0.00,,---,0.00,VWS V14.01,2013-05-09 00:21:00,
2013-05-08 19:22:00,73.0,55.9,30.09,SW,235,5.8,5.8,55,0.00,,---,0.00,VWS V14.01,2013-05-09 00:22:00,
2013-05-08 19:23:00,73.0,56.4,30.09,South,178,4.0,5.8,56,0.00,,---,0.00,VWS V14.01,2013-05-09 00:23:00,
2013-05-08 19:24:00,73.0,56.9,30.09,SSW,204,4.0,5.4,57,0.00,,---,0.00,VWS V14.01,2013-05-09 00:24:00,
2013-05-08 19:25:00,73.0,56.9,30.09,SSW,195,4.0,5.8,57,0.00,,---,0.00,VWS V14.01,2013-05-09 00:25:00,
2013-05-08 19:26:00,72.9,56.8,30.09,South,181,4.0,4.9,57,0.00,,---,0.00,VWS V14.01,2013-05-09 00:26:00,
2013-05-08 19:27:00,72.9,57.2,30.09,SSW,197,3.6,5.4,58,0.00,,---,0.00,VWS V14.01,2013-05-09 00:27:00,
2013-05-08 19:28:00,72.9,57.2,30.09,South,179,2.7,4.0,58,0.00,,---,0.00,VWS V14.01,2013-05-09 00:28:00,
2013-05-08 19:29:00,72.7,57.1,30.09,SW,236,0.0,2.7,58,0.00,,---,0.00,VWS V14.01,2013-05-09 00:29:00,
2013-05-08 19:30:00,72.7,57.1,30.09,SSE,155,2.7,3.6,58,0.00,,---,0.00,VWS V14.01,2013-05-09 00:30:00,
2013-05-08 19:31:00,72.5,56.9,30.09,SW,226,3.1,3.1,58,0.00,,---,0.00,VWS V14.01,2013-05-09 00:31:00,
2013-05-08 19:32:00,72.3,56.7,30.06,SW,223,0.0,3.1,58,0.00,,---,0.00,VWS V14.01,2013-05-09 00:32:00,
2013-05-08 19:33:00,72.3,56.7,30.06,WSW,254,0.0,0.0,58,0.00,,---,0.00,VWS V14.01,2013-05-09 00:33:00,
2013-05-08 19:34:00,72.3,57.2,30.06,SW,222,3.6,3.6,59,0.00,,---,0.00,VWS V14.01,2013-05-09 00:34:00,
2013-05-08 19:35:00,72.3,57.2,30.06,SW,233,2.2,3.6,59,0.00,,---,0.00,VWS V14.01,2013-05-09 00:35:00,
2013-05-08 19:36:00,72.1,57.0,30.06,SW,233,0.0,2.2,59,0.00,,---,0.00,VWS V14.01,2013-05-09 00:36:00,
2013-05-08 19:37:00,72.1,57.0,30.06,SSW,206,4.0,5.4,59,0.00,,---,0.00,VWS V14.01,2013-05-09 00:37:00,
2013-05-08 19:38:00,72.1,57.0,30.06,SSW,205,4.0,4.9,59,0.00,,---,0.00,VWS V14.01,2013-05-09 00:38:00,
2013-05-08 19:39:00,72.0,56.9,30.06,SSE,150,4.5,4.5,59,0.00,,---,0.00,VWS V14.01,2013-05-09 00:39:00,
2013-05-08 19:40:00,72.0,57.3,30.06,SW,220,4.0,5.8,60,0.00,,---,0.00,VWS V14.01,2013-05-09 00:40:00,
2013-05-08 19:41:00,72.0,57.3,30.06,SSW,209,5.8,5.8,60,0.00,,---,0.00,VWS V14.01,2013-05-09 00:41:00,
2013-05-08 19:42:00,72.0,57.3,30.06,WSW,253,2.7,5.8,60,0.00,,---,0.00,VWS V14.01,2013-05-09 00:42:00,
2013-05-08 19:43:00,72.0,57.3,30.06,SSW,206,3.1,4.0,60,0.00,,---,0.00,VWS V14.01,2013-05-09 00:43:00,
2013-05-08 19:44:00,71.8,57.2,30.06,SSW,206,2.7,4.0,60,0.00,,---,0.00,VWS V14.01,2013-05-09 00:44:00,
2013-05-08 19:45:00,71.8,57.2,30.06,South,174,2.7,3.1,60,0.00,,---,0.00,VWS V14.01,2013-05-09 00:45:00,
2013-05-08 19:46:00,71.6,57.0,30.09,SW,224,2.7,3.1,60,0.00,,---,0.00,VWS V14.01,2013-05-09 00:46:00,
2013-05-08 19:47:00,71.6,57.5,30.09,SW,232,3.1,4.0,61,0.00,,---,0.00,VWS V14.01,2013-05-09 00:47:00,
2013-05-08 19:48:00,71.6,57.5,30.09,WSW,243,4.0,4.0,61,0.00,,---,0.00,VWS V14.01,2013-05-09 00:48:00,
2013-05-08 19:49:00,71.4,57.3,30.09,SSW,205,2.2,4.0,61,0.00,,---,0.00,VWS V14.01,2013-05-09 00:49:00,
2013-05-08 19:50:00,71.4,57.7,30.09,South,188,4.9,6.7,62,0.00,,---,0.00,VWS V14.01,2013-05-09 00:50:00,
2013-05-08 19:51:00,71.2,57.6,30.09,SSW,207,2.7,4.9,62,0.00,,---,0.00,VWS V14.01,2013-05-09 00:51:00,
2013-05-08 19:52:00,71.2,57.6,30.09,South,175,3.6,4.0,62,0.00,,---,0.00,VWS V14.01,2013-05-09 00:52:00,
2013-05-08 19:53:00,71.2,58.0,30.09,WSW,244,2.7,3.6,63,0.00,,---,0.00,VWS V14.01,2013-05-09 00:53:00,
2013-05-08 19:54:00,71.1,57.8,30.09,SSW,209,3.1,3.6,63,0.00,,---,0.00,VWS V14.01,2013-05-09 00:54:00,
2013-05-08 19:55:00,71.1,57.8,30.09,SSE,165,3.1,4.0,63,0.00,,---,0.00,VWS V14.01,2013-05-09 00:55:00,
2013-05-08 19:56:00,71.1,58.3,30.09,South,176,0.0,5.4,64,0.00,,---,0.00,VWS V14.01,2013-05-09 00:56:00,
2013-05-08 19:57:00,70.9,58.1,30.09,ESE,108,2.7,4.0,64,0.00,,---,0.00,VWS V14.01,2013-05-09 00:57:00,
2013-05-08 19:58:00,70.9,58.1,30.09,WSW,239,0.0,4.0,64,0.00,,---,0.00,VWS V14.01,2013-05-09 00:58:00,
2013-05-08 19:59:00,70.9,58.1,30.09,SSW,208,5.4,5.4,64,0.00,,---,0.00,VWS V14.01,2013-05-09 00:59:00,
2013-05-08 20:00:00,70.9,58.5,30.09,SSE,165,5.4,5.8,65,0.00,,---,0.00,VWS V14.01,2013-05-09 01:00:00,
2013-05-08 20:01:00,70.9,58.5,30.09,SSE,156,4.0,5.8,65,0.00,,---,0.00,VWS V14.01,2013-05-09 01:01:00,
2013-05-08 20:02:00,70.7,58.4,30.09,SW,232,3.6,4.0,65,0.00,,---,0.00,VWS V14.01,2013-05-09 01:02:00,
2013-05-08 20:03:00,70.7,58.4,30.09,South,180,2.2,4.0,65,0.00,,---,0.00,VWS V14.01,2013-05-09 01:03:00,
2013-05-08 20:04:00,70.5,58.2,30.09,SSE,162,3.6,3.6,65,0.00,,---,0.00,VWS V14.01,2013-05-09 01:04:00,
2013-05-08 20:05:00,70.3,58.0,30.09,South,190,2.2,3.1,65,0.00,,---,0.00,VWS V14.01,2013-05-09 01:05:00,
2013-05-08 20:06:00,70.3,58.0,30.09,South,174,3.1,3.1,65,0.00,,---,0.00,VWS V14.01,2013-05-09 01:06:00,
2013-05-08 20:07:00,70.3,58.5,30.09,SE,146,3.1,4.0,66,0.00,,---,0.00,VWS V14.01,2013-05-09 01:07:00,
2013-05-08 20:08:00,70.3,58.5,30.09,SSW,196,3.6,4.0,66,0.00,,---,0.00,VWS V14.01,2013-05-09 01:08:00,
2013-05-08 20:09:00,70.3,58.5,30.09,SSE,153,3.6,6.3,66,0.00,,---,0.00,VWS V14.01,2013-05-09 01:09:00,
2013-05-08 20:10:00,70.3,58.9,30.09,SW,233,4.9,4.9,67,0.00,,---,0.00,VWS V14.01,2013-05-09 01:10:00,
2013-05-08 20:11:00,70.3,58.9,30.09,SSE,161,2.7,4.9,67,0.00,,---,0.00,VWS V14.01,2013-05-09 01:11:00,
2013-05-08 20:12:00,70.2,58.7,30.09,SSW,194,4.0,5.8,67,0.00,,---,0.00,VWS V14.01,2013-05-09 01:12:00,
2013-05-08 20:13:00,70.2,58.7,30.09,SSE,154,3.6,4.9,67,0.00,,---,0.00,VWS V14.01,2013-05-09 01:13:00,
2013-05-08 20:14:00,70.2,58.7,30.09,South,184,2.7,5.4,67,0.00,,---,0.00,VWS V14.01,2013-05-09 01:14:00,
2013-05-08 20:15:00,70.0,58.5,30.09,South,171,2.2,5.4,67,0.00,,---,0.00,VWS V14.01,2013-05-09 01:15:00,
2013-05-08 20:16:00,70.0,58.5,30.06,South,171,2.2,5.4,67,0.00,,---,0.00,VWS V14.01,2013-05-09 01:16:00,
2013-05-08 20:17:00,70.0,59.0,30.06,SSW,200,2.7,5.8,68,0.00,,---,0.00,VWS V14.01,2013-05-09 01:17:00,
2013-05-08 20:18:00,70.0,59.0,30.06,SW,221,2.7,2.7,68,0.00,,---,0.00,VWS V14.01,2013-05-09 01:18:00,
2013-05-08 20:19:00,69.8,58.8,30.06,SSW,195,5.8,5.8,68,0.00,,---,0.00,VWS V14.01,2013-05-09 01:19:00,
2013-05-08 20:20:00,70.0,59.0,30.06,South,184,2.7,3.1,68,0.00,,---,0.00,VWS V14.01,2013-05-09 01:20:00,
2013-05-08 20:21:00,70.0,59.0,30.06,South,182,3.1,3.1,68,0.00,,---,0.00,VWS V14.01,2013-05-09 01:21:00,
2013-05-08 20:22:00,70.0,59.0,30.06,South,182,2.7,4.0,68,0.00,,---,0.00,VWS V14.01,2013-05-09 01:22:00,
2013-05-08 20:23:00,69.8,58.8,30.06,South,174,2.7,3.1,68,0.00,,---,0.00,VWS V14.01,2013-05-09 01:23:00,
2013-05-08 20:24:00,69.6,59.0,30.06,South,172,3.1,4.0,69,0.00,,---,0.00,VWS V14.01,2013-05-09 01:24:00,
2013-05-08 20:25:00,69.4,58.8,30.06,SSW,208,2.7,3.6,69,0.00,,---,0.00,VWS V14.01,2013-05-09 01:25:00,
2013-05-08 20:26:00,69.4,58.8,30.06,SSW,208,2.7,3.6,69,0.00,,---,0.00,VWS V14.01,2013-05-09 01:26:00,
2013-05-08 20:27:00,69.4,58.8,30.06,South,179,3.6,3.6,69,0.00,,---,0.00,VWS V14.01,2013-05-09 01:27:00,
2013-05-08 20:28:00,69.4,58.8,30.06,SSW,205,3.6,4.0,69,0.00,,---,0.00,VWS V14.01,2013-05-09 01:28:00,
2013-05-08 20:29:00,69.4,58.8,30.06,South,173,2.7,3.6,69,0.00,,---,0.00,VWS V14.01,2013-05-09 01:29:00,
2013-05-08 20:30:00,69.3,58.7,30.06,SSW,194,3.6,4.0,69,0.00,,---,0.00,VWS V14.01,2013-05-09 01:30:00,
2013-05-08 20:31:00,69.3,59.1,30.09,South,180,3.1,3.6,70,0.00,,---,0.00,VWS V14.01,2013-05-09 01:31:00,
2013-05-08 20:32:00,69.3,59.1,30.09,SSE,163,2.7,5.4,70,0.00,,---,0.00,VWS V14.01,2013-05-09 01:32:00,
2013-05-08 20:33:00,69.3,59.1,30.09,SSW,198,2.2,4.0,70,0.00,,---,0.00,VWS V14.01,2013-05-09 01:33:00,
2013-05-08 20:34:00,69.3,59.1,30.09,SSW,198,0.0,2.7,70,0.00,,---,0.00,VWS V14.01,2013-05-09 01:34:00,
2013-05-08 20:35:00,69.1,58.9,30.09,SSW,204,3.1,3.1,70,0.00,,---,0.00,VWS V14.01,2013-05-09 01:35:00,
2013-05-08 20:36:00,69.1,58.9,30.09,South,191,3.1,3.1,70,0.00,,---,0.00,VWS V14.01,2013-05-09 01:36:00,
2013-05-08 20:37:00,68.9,58.7,30.09,SSW,202,0.0,3.1,70,0.00,,---,0.00,VWS V14.01,2013-05-09 01:37:00,
2013-05-08 20:38:00,68.9,58.7,30.09,SSW,200,2.2,2.7,70,0.00,,---,0.00,VWS V14.01,2013-05-09 01:38:00,
2013-05-08 20:39:00,68.9,58.7,30.09,South,186,0.0,2.2,70,0.00,,---,0.00,VWS V14.01,2013-05-09 01:39:00,
2013-05-08 20:40:00,69.4,59.6,30.09,South,169,0.0,2.7,71,0.00,,---,0.00,VWS V14.01,2013-05-09 01:40:00,
2013-05-08 20:41:00,69.4,59.6,30.09,South,169,0.0,2.7,71,0.00,,---,0.00,VWS V14.01,2013-05-09 01:41:00,
2013-05-08 20:42:00,69.4,59.6,30.09,South,169,0.0,0.0,71,0.00,,---,0.00,VWS V14.01,2013-05-09 01:42:00,
2013-05-08 20:43:00,69.3,59.5,30.09,SW,227,0.0,0.0,71,0.00,,---,0.00,VWS V14.01,2013-05-09 01:43:00,
2013-05-08 20:44:00,69.1,59.3,30.09,SW,227,0.0,0.0,71,0.00,,---,0.00,VWS V14.01,2013-05-09 01:44:00,
2013-05-08 20:45:00,68.9,59.1,30.09,South,184,2.7,3.1,71,0.00,,---,0.00,VWS V14.01,2013-05-09 01:45:00,
2013-05-08 20:46:00,68.9,59.1,30.09,South,184,3.1,3.1,71,0.00,,---,0.00,VWS V14.01,2013-05-09 01:46:00,
2013-05-08 20:47:00,68.7,59.0,30.09,South,184,0.0,3.1,71,0.00,,---,0.00,VWS V14.01,2013-05-09 01:47:00,
2013-05-08 20:48:00,68.7,59.0,30.09,South,182,0.0,0.0,71,0.00,,---,0.00,VWS V14.01,2013-05-09 01:48:00,
2013-05-08 20:49:00,68.7,59.0,30.09,South,185,0.0,0.0,71,0.00,,---,0.00,VWS V14.01,2013-05-09 01:49:00,
2013-05-08 20:50:00,68.5,59.2,30.09,SSE,155,2.7,3.1,72,0.00,,---,0.00,VWS V14.01,2013-05-09 01:50:00,
2013-05-08 20:51:00,68.5,59.2,30.09,SSE,155,2.2,3.1,72,0.00,,---,0.00,VWS V14.01,2013-05-09 01:51:00,
2013-05-08 20:52:00,68.5,59.2,30.09,SSE,155,0.0,2.2,72,0.00,,---,0.00,VWS V14.01,2013-05-09 01:52:00,
2013-05-08 20:53:00,68.4,59.0,30.09,SW,219,2.2,2.7,72,0.00,,---,0.00,VWS V14.01,2013-05-09 01:53:00,
2013-05-08 20:54:00,68.4,59.0,30.09,SW,217,2.2,3.1,72,0.00,,---,0.00,VWS V14.01,2013-05-09 01:54:00,
2013-05-08 20:55:00,68.4,59.0,30.09,South,186,0.0,0.0,72,0.00,,---,0.00,VWS V14.01,2013-05-09 01:55:00,
2013-05-08 20:56:00,68.4,59.0,30.09,South,186,0.0,0.0,72,0.00,,---,0.00,VWS V14.01,2013-05-09 01:56:00,
2013-05-08 20:57:00,68.4,59.4,30.09,South,186,0.0,0.0,73,0.00,,---,0.00,VWS V14.01,2013-05-09 01:57:00,
2013-05-08 20:58:00,68.5,59.5,30.09,South,186,0.0,0.0,73,0.00,,---,0.00,VWS V14.01,2013-05-09 01:58:00,
2013-05-08 20:59:00,68.9,59.9,30.09,South,186,0.0,0.0,73,0.00,,---,0.00,VWS V14.01,2013-05-09 01:59:00,
2013-05-08 21:00:00,68.7,59.7,30.09,SSW,207,0.0,0.0,73,0.00,,---,0.00,VWS V14.01,2013-05-09 02:00:00,
2013-05-08 21:01:00,68.7,59.7,30.09,SSW,207,0.0,0.0,73,0.00,,---,0.00,VWS V14.01,2013-05-09 02:01:00,
2013-05-08 21:02:00,68.5,59.5,30.09,South,185,0.0,0.0,73,0.00,,---,0.00,VWS V14.01,2013-05-09 02:02:00,
2013-05-08 21:03:00,68.4,59.4,30.09,South,185,0.0,0.0,73,0.00,,---,0.00,VWS V14.01,2013-05-09 02:03:00,
2013-05-08 21:04:00,68.2,59.2,30.09,South,185,0.0,0.0,73,0.00,,---,0.00,VWS V14.01,2013-05-09 02:04:00,
2013-05-08 21:05:00,68.0,59.0,30.09,South,183,0.0,0.0,73,0.00,,---,0.00,VWS V14.01,2013-05-09 02:05:00,
2013-05-08 21:06:00,68.0,59.0,30.09,South,183,0.0,0.0,73,0.00,,---,0.00,VWS V14.01,2013-05-09 02:06:00,
2013-05-08 21:07:00,67.8,59.2,30.09,South,186,0.0,0.0,74,0.00,,---,0.00,VWS V14.01,2013-05-09 02:07:00,
2013-05-08 21:08:00,67.8,59.2,30.09,South,186,0.0,0.0,74,0.00,,---,0.00,VWS V14.01,2013-05-09 02:08:00,
2013-05-08 21:09:00,67.6,59.1,30.09,South,182,0.0,0.0,74,0.00,,---,0.00,VWS V14.01,2013-05-09 02:09:00,
2013-05-08 21:10:00,67.5,59.3,30.09,South,180,0.0,0.0,75,0.00,,---,0.00,VWS V14.01,2013-05-09 02:10:00,
2013-05-08 21:11:00,67.5,59.3,30.09,South,180,0.0,0.0,75,0.00,,---,0.00,VWS V14.01,2013-05-09 02:11:00,
2013-05-08 21:12:00,67.5,59.3,30.09,South,180,0.0,0.0,75,0.00,,---,0.00,VWS V14.01,2013-05-09 02:12:00,
2013-05-08 21:13:00,67.5,59.3,30.09,South,180,0.0,0.0,75,0.00,,---,0.00,VWS V14.01,2013-05-09 02:13:00,
2013-05-08 21:14:00,67.1,58.9,30.09,South,180,0.0,0.0,75,0.00,,---,0.00,VWS V14.01,2013-05-09 02:14:00,
2013-05-08 21:15:00,66.9,58.8,30.09,South,180,0.0,0.0,75,0.00,,---,0.00,VWS V14.01,2013-05-09 02:15:00,
2013-05-08 21:16:00,66.9,59.1,30.09,South,180,0.0,0.0,76,0.00,,---,0.00,VWS V14.01,2013-05-09 02:16:00,
2013-05-08 21:17:00,66.9,59.1,30.09,South,180,0.0,0.0,76,0.00,,---,0.00,VWS V14.01,2013-05-09 02:17:00,
2013-05-08 21:18:00,66.9,59.1,30.09,South,180,0.0,0.0,76,0.00,,---,0.00,VWS V14.01,2013-05-09 02:18:00,
2013-05-08 21:19:00,66.9,59.1,30.09,South,180,0.0,0.0,76,0.00,,---,0.00,VWS V14.01,2013-05-09 02:19:00,
2013-05-08 21:20:00,66.7,59.3,30.09,South,180,0.0,0.0,77,0.00,,---,0.00,VWS V14.01,2013-05-09 02:20:00,
2013-05-08 21:21:00,66.7,59.3,30.09,South,174,0.0,0.0,77,0.00,,---,0.00,VWS V14.01,2013-05-09 02:21:00,
2013-05-08 21:22:00,67.3,60.2,30.09,SSE,154,0.0,0.0,78,0.00,,---,0.00,VWS V14.01,2013-05-09 02:22:00,
2013-05-08 21:23:00,67.5,60.4,30.09,SSE,154,0.0,0.0,78,0.00,,---,0.00,VWS V14.01,2013-05-09 02:23:00,
2013-05-08 21:24:00,67.3,60.2,30.09,South,174,0.0,0.0,78,0.00,,---,0.00,VWS V14.01,2013-05-09 02:24:00,
2013-05-08 21:25:00,67.3,60.2,30.09,South,174,0.0,0.0,78,0.00,,---,0.00,VWS V14.01,2013-05-09 02:25:00,
2013-05-08 21:26:00,67.3,60.2,30.09,South,174,0.0,0.0,78,0.00,,---,0.00,VWS V14.01,2013-05-09 02:26:00,
2013-05-08 21:27:00,67.1,60.0,30.09,South,174,0.0,0.0,78,0.00,,---,0.00,VWS V14.01,2013-05-09 02:27:00,
2013-05-08 21:28:00,67.1,60.0,30.09,South,174,0.0,0.0,78,0.00,,---,0.00,VWS V14.01,2013-05-09 02:28:00,
2013-05-08 21:29:00,67.1,60.0,30.09,South,174,0.0,0.0,78,0.00,,---,0.00,VWS V14.01,2013-05-09 02:29:00,
2013-05-08 21:30:00,66.9,59.8,30.09,South,174,0.0,0.0,78,0.00,,---,0.00,VWS V14.01,2013-05-09 02:30:00,
2013-05-08 21:31:00,66.9,59.8,30.09,South,174,0.0,0.0,78,0.00,,---,0.00,VWS V14.01,2013-05-09 02:31:00,
2013-05-08 21:32:00,66.9,59.8,30.09,South,174,0.0,0.0,78,0.00,,---,0.00,VWS V14.01,2013-05-09 02:32:00,
2013-05-08 21:33:00,66.7,59.7,30.09,South,174,0.0,0.0,78,0.00,,---,0.00,VWS V14.01,2013-05-09 02:33:00,
2013-05-08 21:34:00,66.6,59.5,30.09,South,174,0.0,0.0,78,0.00,,---,0.00,VWS V14.01,2013-05-09 02:34:00,
2013-05-08 21:35:00,66.4,59.7,30.09,South,174,0.0,0.0,79,0.00,,---,0.00,VWS V14.01,2013-05-09 02:35:00,
2013-05-08 21:36:00,66.4,59.7,30.09,South,174,0.0,0.0,79,0.00,,---,0.00,VWS V14.01,2013-05-09 02:36:00,
2013-05-08 21:37:00,66.4,59.7,30.09,South,174,0.0,0.0,79,0.00,,---,0.00,VWS V14.01,2013-05-09 02:37:00,
2013-05-08 21:38:00,66.4,59.7,30.09,South,174,0.0,0.0,79,0.00,,---,0.00,VWS V14.01,2013-05-09 02:38:00,
2013-05-08 21:39:00,66.4,59.7,30.09,South,174,0.0,0.0,79,0.00,,---,0.00,VWS V14.01,2013-05-09 02:39:00,
2013-05-08 21:40:00,66.2,59.9,30.09,South,174,0.0,0.0,80,0.00,,---,0.00,VWS V14.01,2013-05-09 02:40:00,
2013-05-08 21:41:00,66.2,59.9,30.09,South,174,0.0,0.0,80,0.00,,---,0.00,VWS V14.01,2013-05-09 02:41:00,
2013-05-08 21:42:00,66.0,59.7,30.09,South,174,0.0,0.0,80,0.00,,---,0.00,VWS V14.01,2013-05-09 02:42:00,
2013-05-08 21:43:00,66.0,59.7,30.09,South,174,0.0,0.0,80,0.00,,---,0.00,VWS V14.01,2013-05-09 02:43:00,
2013-05-08 21:44:00,66.2,59.9,30.09,South,174,0.0,0.0,80,0.00,,---,0.00,VWS V14.01,2013-05-09 02:44:00,
2013-05-08 21:45:00,66.2,60.2,30.09,South,172,0.0,0.0,81,0.00,,---,0.00,VWS V14.01,2013-05-09 02:45:00,
2013-05-08 21:46:00,66.2,60.2,30.12,South,172,0.0,0.0,81,0.00,,---,0.00,VWS V14.01,2013-05-09 02:46:00,
2013-05-08 21:47:00,66.2,60.2,30.12,South,172,0.0,0.0,81,0.00,,---,0.00,VWS V14.01,2013-05-09 02:47:00,
2013-05-08 21:48:00,66.0,60.0,30.12,South,172,0.0,0.0,81,0.00,,---,0.00,VWS V14.01,2013-05-09 02:48:00,
2013-05-08 21:49:00,66.0,60.0,30.12,South,172,0.0,0.0,81,0.00,,---,0.00,VWS V14.01,2013-05-09 02:49:00,
2013-05-08 21:50:00,66.0,60.4,30.12,South,173,0.0,0.0,82,0.00,,---,0.00,VWS V14.01,2013-05-09 02:50:00,
2013-05-08 21:51:00,66.0,60.4,30.12,South,173,0.0,0.0,82,0.00,,---,0.00,VWS V14.01,2013-05-09 02:51:00,
2013-05-08 21:52:00,66.0,60.4,30.12,South,173,0.0,0.0,82,0.00,,---,0.00,VWS V14.01,2013-05-09 02:52:00,
2013-05-08 21:53:00,66.0,60.4,30.12,South,173,0.0,0.0,82,0.00,,---,0.00,VWS V14.01,2013-05-09 02:53:00,
2013-05-08 21:54:00,66.0,60.4,30.12,South,173,0.0,0.0,82,0.00,,---,0.00,VWS V14.01,2013-05-09 02:54:00,
2013-05-08 21:55:00,66.0,60.4,30.12,South,186,0.0,0.0,82,0.00,,---,0.00,VWS V14.01,2013-05-09 02:55:00,
2013-05-08 21:56:00,66.0,60.4,30.12,South,186,0.0,0.0,82,0.00,,---,0.00,VWS V14.01,2013-05-09 02:56:00,
2013-05-08 21:57:00,65.8,60.2,30.12,South,186,0.0,0.0,82,0.00,,---,0.00,VWS V14.01,2013-05-09 02:57:00,
2013-05-08 21:58:00,66.0,60.4,30.12,South,184,0.0,0.0,82,0.00,,---,0.00,VWS V14.01,2013-05-09 02:58:00,
2013-05-08 21:59:00,66.0,60.7,30.12,South,184,0.0,0.0,83,0.00,,---,0.00,VWS V14.01,2013-05-09 02:59:00,
2013-05-08 22:00:00,66.0,60.7,30.12,South,184,0.0,0.0,83,0.00,,---,0.00,VWS V14.01,2013-05-09 03:00:00,
2013-05-08 22:01:00,66.0,60.7,30.12,South,184,0.0,0.0,83,0.00,,---,0.00,VWS V14.01,2013-05-09 03:01:00,
2013-05-08 22:02:00,66.0,60.7,30.12,South,186,0.0,0.0,83,0.00,,---,0.00,VWS V14.01,2013-05-09 03:02:00,
2013-05-08 22:03:00,66.0,60.7,30.12,South,182,0.0,0.0,83,0.00,,---,0.00,VWS V14.01,2013-05-09 03:03:00,
2013-05-08 22:04:00,66.0,60.7,30.12,South,177,0.0,0.0,83,0.00,,---,0.00,VWS V14.01,2013-05-09 03:04:00,
2013-05-08 22:05:00,66.0,60.7,30.12,SSE,161,2.7,2.7,83,0.00,,---,0.00,VWS V14.01,2013-05-09 03:05:00,
2013-05-08 22:06:00,66.2,60.9,30.12,SSE,161,0.0,2.7,83,0.00,,---,0.00,VWS V14.01,2013-05-09 03:06:00,
2013-05-08 22:07:00,66.2,60.9,30.12,SSW,206,0.0,0.0,83,0.00,,---,0.00,VWS V14.01,2013-05-09 03:07:00,
2013-05-08 22:08:00,66.0,61.0,30.12,SSW,206,0.0,0.0,84,0.00,,---,0.00,VWS V14.01,2013-05-09 03:08:00,
2013-05-08 22:09:00,66.0,61.0,30.12,SSE,166,0.0,0.0,84,0.00,,---,0.00,VWS V14.01,2013-05-09 03:09:00,
2013-05-08 22:10:00,66.0,61.0,30.12,SSE,166,0.0,0.0,84,0.00,,---,0.00,VWS V14.01,2013-05-09 03:10:00,
2013-05-08 22:11:00,66.0,61.0,30.12,SSE,166,0.0,0.0,84,0.00,,---,0.00,VWS V14.01,2013-05-09 03:11:00,
2013-05-08 22:12:00,66.0,61.0,30.12,SSE,166,0.0,0.0,84,0.00,,---,0.00,VWS V14.01,2013-05-09 03:12:00,
2013-05-08 22:13:00,66.0,61.0,30.12,SW,226,0.0,0.0,84,0.00,,---,0.00,VWS V14.01,2013-05-09 03:13:00,
2013-05-08 22:14:00,66.0,61.0,30.12,South,184,0.0,0.0,84,0.00,,---,0.00,VWS V14.01,2013-05-09 03:14:00,
2013-05-08 22:15:00,66.0,61.0,30.12,South,184,0.0,0.0,84,0.00,,---,0.00,VWS V14.01,2013-05-09 03:15:00,
2013-05-08 22:16:00,66.0,61.0,30.12,South,184,0.0,0.0,84,0.00,,---,0.00,VWS V14.01,2013-05-09 03:16:00,
2013-05-08 22:17:00,66.0,61.0,30.12,WSW,251,0.0,0.0,84,0.00,,---,0.00,VWS V14.01,2013-05-09 03:17:00,
2013-05-08 22:18:00,66.2,61.2,30.12,South,186,0.0,0.0,84,0.00,,---,0.00,VWS V14.01,2013-05-09 03:18:00,
2013-05-08 22:19:00,66.4,61.7,30.12,South,186,0.0,0.0,85,0.00,,---,0.00,VWS V14.01,2013-05-09 03:19:00,
2013-05-08 22:20:00,66.4,61.7,30.12,South,186,0.0,0.0,85,0.00,,---,0.00,VWS V14.01,2013-05-09 03:20:00,
2013-05-08 22:21:00,66.4,61.7,30.12,South,186,0.0,0.0,85,0.00,,---,0.00,VWS V14.01,2013-05-09 03:21:00,
2013-05-08 22:22:00,66.4,61.7,30.12,South,186,0.0,0.0,85,0.00,,---,0.00,VWS V14.01,2013-05-09 03:22:00,
2013-05-08 22:23:00,66.4,61.7,30.12,SSE,162,0.0,0.0,85,0.00,,---,0.00,VWS V14.01,2013-05-09 03:23:00,
2013-05-08 22:24:00,66.4,61.7,30.12,South,184,0.0,0.0,85,0.00,,---,0.00,VWS V14.01,2013-05-09 03:24:00,
2013-05-08 22:25:00,66.4,61.7,30.12,SSW,197,0.0,0.0,85,0.00,,---,0.00,VWS V14.01,2013-05-09 03:25:00,
2013-05-08 22:26:00,66.4,61.7,30.12,SSW,197,0.0,0.0,85,0.00,,---,0.00,VWS V14.01,2013-05-09 03:26:00,
2013-05-08 22:27:00,66.4,61.7,30.12,SW,230,0.0,0.0,85,0.00,,---,0.00,VWS V14.01,2013-05-09 03:27:00,
2013-05-08 22:28:00,66.4,61.7,30.12,SSW,205,0.0,0.0,85,0.00,,---,0.00,VWS V14.01,2013-05-09 03:28:00,
2013-05-08 22:29:00,66.6,61.9,30.12,SSW,202,0.0,0.0,85,0.00,,---,0.00,VWS V14.01,2013-05-09 03:29:00,
2013-05-08 22:30:00,66.7,62.4,30.12,SW,216,0.0,0.0,86,0.00,,---,0.00,VWS V14.01,2013-05-09 03:30:00,
2013-05-08 22:31:00,66.7,62.4,30.09,SW,216,0.0,0.0,86,0.00,,---,0.00,VWS V14.01,2013-05-09 03:31:00,
2013-05-08 22:32:00,66.7,62.4,30.09,SW,214,0.0,0.0,86,0.00,,---,0.00,VWS V14.01,2013-05-09 03:32:00,
2013-05-08 22:33:00,66.7,62.4,30.09,South,190,0.0,0.0,86,0.00,,---,0.00,VWS V14.01,2013-05-09 03:33:00,
2013-05-08 22:34:00,66.7,62.4,30.09,South,190,0.0,0.0,86,0.00,,---,0.00,VWS V14.01,2013-05-09 03:34:00,
2013-05-08 22:35:00,66.7,62.4,30.09,South,171,0.0,0.0,86,0.00,,---,0.00,VWS V14.01,2013-05-09 03:35:00,
2013-05-08 22:36:00,66.7,62.4,30.09,South,171,0.0,0.0,86,0.00,,---,0.00,VWS V14.01,2013-05-09 03:36:00,
2013-05-08 22:37:00,66.7,62.4,30.09,South,169,0.0,0.0,86,0.00,,---,0.00,VWS V14.01,2013-05-09 03:37:00,
2013-05-08 22:38:00,66.7,62.4,30.09,SSW,204,0.0,0.0,86,0.00,,---,0.00,VWS V14.01,2013-05-09 03:38:00,
2013-05-08 22:39:00,66.7,62.4,30.09,South,175,0.0,0.0,86,0.00,,---,0.00,VWS V14.01,2013-05-09 03:39:00,
2013-05-08 22:40:00,66.7,62.4,30.09,SSW,195,0.0,0.0,86,0.00,,---,0.00,VWS V14.01,2013-05-09 03:40:00,
2013-05-08 22:41:00,66.7,62.4,30.09,South,179,0.0,0.0,86,0.00,,---,0.00,VWS V14.01,2013-05-09 03:41:00,
2013-05-08 22:42:00,66.7,62.4,30.09,SSE,162,0.0,0.0,86,0.00,,---,0.00,VWS V14.01,2013-05-09 03:42:00,
2013-05-08 22:43:00,66.7,62.4,30.09,South,175,0.0,0.0,86,0.00,,---,0.00,VWS V14.01,2013-05-09 03:43:00,
2013-05-08 22:44:00,66.7,62.4,30.09,South,191,0.0,0.0,86,0.00,,---,0.00,VWS V14.01,2013-05-09 03:44:00,
2013-05-08 22:45:00,66.9,62.6,30.09,SW,220,2.2,3.6,86,0.00,,---,0.00,VWS V14.01,2013-05-09 03:45:00,
2013-05-08 22:46:00,66.9,62.6,30.09,SSE,155,2.7,3.6,86,0.00,,---,0.00,VWS V14.01,2013-05-09 03:46:00,
2013-05-08 22:47:00,66.9,62.9,30.09,SW,227,4.9,4.9,87,0.00,,---,0.00,VWS V14.01,2013-05-09 03:47:00,
2013-05-08 22:48:00,66.9,62.9,30.09,South,173,2.2,4.9,87,0.00,,---,0.00,VWS V14.01,2013-05-09 03:48:00,
2013-05-08 22:49:00,66.2,62.2,30.09,South,170,0.0,2.7,87,0.00,,---,0.00,VWS V14.01,2013-05-09 03:49:00,
2013-05-08 22:50:00,66.9,62.9,30.09,SW,217,0.0,0.0,87,0.00,,---,0.00,VWS V14.01,2013-05-09 03:50:00,
2013-05-08 22:51:00,66.9,62.9,30.09,SW,217,0.0,0.0,87,0.00,,---,0.00,VWS V14.01,2013-05-09 03:51:00,
2013-05-08 22:52:00,66.9,62.9,30.09,South,176,0.0,0.0,87,0.00,,---,0.00,VWS V14.01,2013-05-09 03:52:00,
2013-05-08 22:53:00,66.9,62.9,30.09,SSE,151,0.0,4.0,87,0.00,,---,0.00,VWS V14.01,2013-05-09 03:53:00,
2013-05-08 22:54:00,66.9,62.9,30.09,South,172,2.7,3.6,87,0.00,,---,0.00,VWS V14.01,2013-05-09 03:54:00,
2013-05-08 22:55:00,66.9,62.9,30.09,SSW,197,0.0,0.0,87,0.00,,---,0.00,VWS V14.01,2013-05-09 03:55:00,
2013-05-08 22:56:00,66.9,62.9,30.09,SSW,195,0.0,0.0,87,0.00,,---,0.00,VWS V14.01,2013-05-09 03:56:00,
2013-05-08 22:57:00,66.9,62.9,30.09,SSW,195,0.0,0.0,87,0.00,,---,0.00,VWS V14.01,2013-05-09 03:57:00,
2013-05-08 22:58:00,66.9,62.9,30.09,SSE,161,0.0,0.0,87,0.00,,---,0.00,VWS V14.01,2013-05-09 03:58:00,
2013-05-08 22:59:00,66.9,63.3,30.09,South,181,0.0,0.0,88,0.00,,---,0.00,VWS V14.01,2013-05-09 03:59:00,
2013-05-08 23:00:00,67.1,63.4,30.09,South,180,0.0,0.0,88,0.00,,---,0.00,VWS V14.01,2013-05-09 04:00:00,
2013-05-08 23:01:00,67.1,63.4,30.09,South,180,0.0,0.0,88,0.00,,---,0.00,VWS V14.01,2013-05-09 04:01:00,
2013-05-08 23:02:00,67.1,63.4,30.09,South,170,0.0,0.0,88,0.00,,---,0.00,VWS V14.01,2013-05-09 04:02:00,
2013-05-08 23:03:00,67.1,63.4,30.09,SSW,193,0.0,0.0,88,0.00,,---,0.00,VWS V14.01,2013-05-09 04:03:00,
2013-05-08 23:04:00,67.1,63.4,30.09,SSW,195,4.9,6.3,88,0.00,,---,0.00,VWS V14.01,2013-05-09 04:04:00,
2013-05-08 23:05:00,67.3,63.6,30.09,SSW,206,2.7,4.9,88,0.00,,---,0.00,VWS V14.01,2013-05-09 04:05:00,
2013-05-08 23:06:00,67.1,63.4,30.09,SSE,168,0.0,0.0,88,0.00,,---,0.00,VWS V14.01,2013-05-09 04:06:00,
2013-05-08 23:07:00,67.1,63.4,30.09,SSE,168,0.0,0.0,88,0.00,,---,0.00,VWS V14.01,2013-05-09 04:07:00,
2013-05-08 23:08:00,67.3,63.6,30.09,South,183,3.1,3.6,88,0.00,,---,0.00,VWS V14.01,2013-05-09 04:08:00,
2013-05-08 23:09:00,67.3,63.9,30.09,SSW,194,4.0,5.4,89,0.00,,---,0.00,VWS V14.01,2013-05-09 04:09:00,
2013-05-08 23:10:00,67.3,63.9,30.09,SSE,157,0.0,4.0,89,0.00,,---,0.00,VWS V14.01,2013-05-09 04:10:00,
2013-05-08 23:11:00,67.5,64.1,30.09,South,191,3.6,4.0,89,0.00,,---,0.00,VWS V14.01,2013-05-09 04:11:00,
2013-05-08 23:12:00,67.5,64.1,30.09,South,185,2.7,4.0,89,0.00,,---,0.00,VWS V14.01,2013-05-09 04:12:00,
2013-05-08 23:13:00,67.5,64.1,30.09,SSW,198,4.0,4.0,89,0.00,,---,0.00,VWS V14.01,2013-05-09 04:13:00,
2013-05-08 23:14:00,67.5,64.1,30.09,SSE,147,0.0,5.4,89,0.00,,---,0.00,VWS V14.01,2013-05-09 04:14:00,
2013-05-08 23:15:00,67.5,64.1,30.09,South,189,0.0,0.0,89,0.00,,---,0.00,VWS V14.01,2013-05-09 04:15:00,
2013-05-08 23:16:00,67.5,64.1,30.09,SSW,209,0.0,0.0,89,0.00,,---,0.00,VWS V14.01,2013-05-09 04:16:00,
2013-05-08 23:17:00,67.6,64.3,30.09,South,173,0.0,0.0,89,0.00,,---,0.00,VWS V14.01,2013-05-09 04:17:00,
2013-05-08 23:18:00,67.6,64.3,30.09,South,175,0.0,0.0,89,0.00,,---,0.00,VWS V14.01,2013-05-09 04:18:00,
2013-05-08 23:19:00,67.6,64.3,30.09,SSE,159,0.0,0.0,89,0.00,,---,0.00,VWS V14.01,2013-05-09 04:19:00,
2013-05-08 23:20:00,67.6,64.0,30.09,South,185,0.0,0.0,88,0.00,,---,0.00,VWS V14.01,2013-05-09 04:20:00,
2013-05-08 23:21:00,67.6,64.0,30.09,SW,224,0.0,0.0,88,0.00,,---,0.00,VWS V14.01,2013-05-09 04:21:00,
2013-05-08 23:22:00,67.6,64.0,30.09,SSW,206,0.0,0.0,88,0.00,,---,0.00,VWS V14.01,2013-05-09 04:22:00,
2013-05-08 23:23:00,67.6,64.0,30.09,SSW,206,0.0,0.0,88,0.00,,---,0.00,VWS V14.01,2013-05-09 04:23:00,
2013-05-08 23:24:00,67.6,64.0,30.09,South,182,0.0,0.0,88,0.00,,---,0.00,VWS V14.01,2013-05-09 04:24:00,
2013-05-08 23:25:00,67.6,64.0,30.09,WSW,240,5.8,5.8,88,0.00,,---,0.00,VWS V14.01,2013-05-09 04:25:00,
2013-05-08 23:26:00,67.6,64.0,30.09,SSW,197,2.2,6.3,88,0.00,,---,0.00,VWS V14.01,2013-05-09 04:26:00,
2013-05-08 23:27:00,67.8,64.1,30.09,South,171,3.1,6.3,88,0.00,,---,0.00,VWS V14.01,2013-05-09 04:27:00,
2013-05-08 23:28:00,68.0,64.3,30.09,South,182,0.0,3.1,88,0.00,,---,0.00,VWS V14.01,2013-05-09 04:28:00,
2013-05-08 23:29:00,68.0,64.3,30.09,SSW,200,0.0,0.0,88,0.00,,---,0.00,VWS V14.01,2013-05-09 04:29:00,
2013-05-08 23:30:00,68.0,64.0,30.09,SSW,197,0.0,4.0,87,0.00,,---,0.00,VWS V14.01,2013-05-09 04:30:00,
2013-05-08 23:31:00,68.0,64.0,30.09,South,171,2.7,4.0,87,0.00,,---,0.00,VWS V14.01,2013-05-09 04:31:00,
2013-05-08 23:32:00,68.0,64.0,30.09,SSE,156,3.6,4.0,87,0.00,,---,0.00,VWS V14.01,2013-05-09 04:32:00,
2013-05-08 23:33:00,68.0,64.0,30.09,SSE,168,3.1,5.4,87,0.00,,---,0.00,VWS V14.01,2013-05-09 04:33:00,
2013-05-08 23:34:00,68.0,64.0,30.09,South,178,0.0,3.1,87,0.00,,---,0.00,VWS V14.01,2013-05-09 04:34:00,
2013-05-08 23:35:00,68.0,64.0,30.09,South,169,0.0,0.0,87,0.00,,---,0.00,VWS V14.01,2013-05-09 04:35:00,
2013-05-08 23:36:00,68.0,64.0,30.09,South,184,0.0,0.0,87,0.00,,---,0.00,VWS V14.01,2013-05-09 04:36:00,
2013-05-08 23:37:00,68.0,64.0,30.09,SSW,197,0.0,0.0,87,0.00,,---,0.00,VWS V14.01,2013-05-09 04:37:00,
2013-05-08 23:38:00,68.0,63.7,30.09,SSW,212,0.0,0.0,86,0.00,,---,0.00,VWS V14.01,2013-05-09 04:38:00,
2013-05-08 23:39:00,68.0,63.7,30.09,SSE,166,0.0,0.0,86,0.00,,---,0.00,VWS V14.01,2013-05-09 04:39:00,
2013-05-08 23:40:00,68.0,63.7,30.09,SSE,163,0.0,0.0,86,0.00,,---,0.00,VWS V14.01,2013-05-09 04:40:00,
2013-05-08 23:41:00,68.2,63.8,30.09,SSW,200,0.0,0.0,86,0.00,,---,0.00,VWS V14.01,2013-05-09 04:41:00,
2013-05-08 23:42:00,68.2,63.8,30.09,South,189,0.0,0.0,86,0.00,,---,0.00,VWS V14.01,2013-05-09 04:42:00,
2013-05-08 23:43:00,68.2,63.8,30.09,South,171,0.0,0.0,86,0.00,,---,0.00,VWS V14.01,2013-05-09 04:43:00,
2013-05-08 23:44:00,68.2,63.8,30.09,SW,221,0.0,0.0,86,0.00,,---,0.00,VWS V14.01,2013-05-09 04:44:00,
2013-05-08 23:45:00,68.2,63.8,30.09,WSW,244,0.0,0.0,86,0.00,,---,0.00,VWS V14.01,2013-05-09 04:45:00,
2013-05-08 23:46:00,68.2,63.8,30.09,South,177,0.0,0.0,86,0.00,,---,0.00,VWS V14.01,2013-05-09 04:46:00,
2013-05-08 23:47:00,68.2,63.8,30.09,SSW,202,0.0,0.0,86,0.00,,---,0.00,VWS V14.01,2013-05-09 04:47:00,
2013-05-08 23:48:00,68.4,64.0,30.09,SSE,168,0.0,0.0,86,0.00,,---,0.00,VWS V14.01,2013-05-09 04:48:00,
2013-05-08 23:49:00,68.4,64.0,30.09,South,190,5.4,5.4,86,0.00,,---,0.00,VWS V14.01,2013-05-09 04:49:00,
2013-05-08 23:50:00,68.4,64.0,30.09,WSW,237,4.0,5.4,86,0.00,,---,0.00,VWS V14.01,2013-05-09 04:50:00,
2013-05-08 23:51:00,68.4,64.0,30.09,SSW,196,3.1,3.6,86,0.00,,---,0.00,VWS V14.01,2013-05-09 04:51:00,
2013-05-08 23:52:00,68.4,64.0,30.09,South,185,5.4,5.4,86,0.00,,---,0.00,VWS V14.01,2013-05-09 04:52:00,
2013-05-08 23:53:00,68.5,64.2,30.09,SW,229,3.1,5.4,86,0.00,,---,0.00,VWS V14.01,2013-05-09 04:53:00,
2013-05-08 23:54:00,68.5,63.9,30.09,South,182,2.7,3.1,85,0.00,,---,0.00,VWS V14.01,2013-05-09 04:54:00,
2013-05-08 23:55:00,68.5,63.9,30.09,SW,217,0.0,2.7,85,0.00,,---,0.00,VWS V14.01,2013-05-09 04:55:00,
2013-05-08 23:56:00,68.5,63.9,30.09,SW,215,0.0,0.0,85,0.00,,---,0.00,VWS V14.01,2013-05-09 04:56:00,
2013-05-08 23:57:00,68.4,63.7,30.09,SE,140,0.0,0.0,85,0.00,,---,0.00,VWS V14.01,2013-05-09 04:57:00,
2013-05-08 23:58:00,68.4,63.7,30.09,South,170,0.0,2.2,85,0.00,,---,0.00,VWS V14.01,2013-05-09 04:58:00,
2013-05-08 23:59:00,68.4,63.7,30.09,South,170,0.0,0.0,85,0.00,,---,0.00,VWS V14.01,2013-05-09 04:59:00,